GFSGBSN_850_thetae_000.txt.gz
Theta_e
306 306 305 305 305 305 305 306 306 306 306 307 307 308 309 309 309 309 310 311 311 312 313 315 317 317 317 323 322 321 321 321 320 320 323 325 323 325 327 330 331 333 335 335 336 340 342
304 304 304 305 304 304 304 304 305 306 306 306 307 307 308 309 310 310 310 311 311 312 312 313 315 316 316 322 321 321 323 322 326 324 323 323 323 324 327 329 332 333 333 334 335 340 343
303 302 302 302 302 303 303 303 303 304 305 305 306 307 307 308 309 310 310 311 311 312 312 312 314 314 317 321 321 320 321 324 328 326 324 323 323 324 326 330 331 332 336 341 340 342 345
306 304 303 303 302 302 302 302 302 303 303 304 305 306 307 307 308 309 310 311 312 312 313 312 313 316 323 323 321 324 327 325 322 327 325 324 323 324 326 330 331 334 337 341 343 344 345
308 307 304 302 302 302 302 302 302 302 302 303 304 305 306 307 307 308 309 311 312 312 313 312 317 321 326 325 325 327 327 324 323 325 323 323 323 325 326 331 335 336 339 339 346 345 348
308 308 306 304 302 301 302 302 302 302 302 302 302 303 305 306 307 308 309 311 312 313 315 319 323 327 326 325 328 325 328 323 324 325 324 323 324 327 329 331 336 338 339 339 341 347 348
309 308 307 306 304 301 301 301 301 302 302 302 302 303 304 305 306 307 309 310 320 322 319 324 323 325 324 324 324 325 326 322 323 325 324 323 325 326 329 332 334 336 339 340 340 345 348
309 309 308 308 306 304 302 301 301 301 302 302 302 302 303 304 306 307 308 310 312 311 314 316 316 317 319 320 320 321 324 326 324 326 326 324 324 326 328 330 333 336 337 339 340 345 347
309 309 308 308 307 305 303 302 301 301 301 301 302 302 303 304 305 308 307 310 310 308 315 318 317 317 320 318 321 322 323 325 326 325 325 325 324 326 327 328 332 336 337 339 342 345 346
309 308 308 308 308 306 305 303 301 301 301 301 302 302 302 304 307 305 311 308 308 308 319 323 322 323 322 323 325 323 322 324 326 326 326 324 325 325 325 327 331 335 335 337 340 344 347
309 308 308 308 308 308 307 305 302 301 300 301 301 302 301 301 302 306 307 306 306 312 323 324 324 324 325 326 326 325 323 323 326 326 327 326 324 324 324 326 329 333 335 336 337 343 344
307 307 307 307 307 307 306 305 303 302 301 300 301 301 301 302 303 305 305 305 312 322 322 323 325 326 326 326 326 325 323 324 324 326 327 327 324 324 325 326 328 331 333 335 337 339 344
307 306 306 305 306 306 304 304 302 301 301 301 301 301 302 302 306 303 304 308 318 320 322 322 324 326 325 324 325 326 325 325 326 328 328 326 325 324 324 326 327 330 335 338 339 340 341
308 307 306 305 305 304 304 304 303 302 301 301 302 302 303 303 303 303 305 312 317 320 321 323 324 325 325 325 325 326 326 325 325 327 328 327 326 325 324 325 328 329 333 337 340 338 338
307 307 306 305 305 305 303 304 301 303 303 301 302 303 305 303 307 307 310 312 317 318 320 320 321 323 325 325 323 325 326 327 326 327 328 328 328 326 325 325 327 330 333 334 336 336 336
307 307 306 306 305 305 304 303 302 303 303 301 301 304 306 306 309 313 312 312 315 316 318 321 322 323 323 323 324 325 326 326 326 327 329 329 329 328 326 326 327 329 331 333 335 342 339
306 305 305 305 304 304 304 304 302 303 302 302 305 305 307 309 314 314 314 313 314 314 315 318 320 321 322 323 324 324 325 326 326 327 329 329 329 327 327 325 326 328 330 333 334 335 337
305 305 304 305 305 305 304 303 302 303 303 304 304 307 306 312 314 314 315 315 314 314 313 314 317 318 319 322 323 324 324 325 326 327 329 330 330 329 325 326 326 328 330 333 335 339 336
304 304 304 305 305 304 304 303 303 303 303 303 305 304 305 307 310 311 314 314 314 314 314 315 315 316 318 320 322 322 323 322 322 326 328 330 330 332 330 326 325 326 328 330 332 334 342
304 304 304 304 304 303 303 303 302 303 302 303 305 307 306 310 309 312 314 315 315 314 315 315 317 317 317 319 320 321 323 322 324 324 328 330 329 330 331 330 327 326 325 327 329 334 335
301 302 302 302 302 303 303 303 303 303 302 303 304 307 309 308 313 314 315 315 314 314 314 316 317 319 319 319 320 322 322 324 326 326 330 335 336 333 330 329 329 328 326 326 327 328 334
302 302 302 301 302 302 302 303 303 303 302 303 304 307 307 306 306 309 309 311 313 313 315 317 318 317 318 320 321 321 321 322 322 326 327 330 336 334 334 331 330 329 328 326 326 327 328
302 301 301 302 301 302 301 302 303 303 302 303 304 303 303 304 304 306 308 309 310 313 313 313 316 317 318 320 320 321 322 324 326 327 329 332 335 338 337 334 332 333 331 329 327 327 328
302 302 302 302 302 301 301 301 302 303 303 302 303 302 302 305 305 306 307 308 309 310 312 312 312 313 315 314 314 317 319 322 323 326 328 333 338 338 338 337 337 331 331 330 328 327 328
302 302 302 302 302 302 302 302 302 303 303 302 302 302 301 304 305 305 305 306 308 308 310 311 310 310 311 311 316 321 323 325 325 325 327 331 334 337 336 336 335 334 335 330 329 328 328
302 302 302 302 302 302 302 302 302 302 302 303 303 302 301 303 305 304 305 306 309 310 310 310 309 310 311 313 319 324 324 324 325 327 329 331 333 336 336 336 337 339 338 336 338 338 330
300 301 302 302 302 302 302 301 302 302 303 302 302 303 303 303 303 304 305 306 307 309 311 310 309 310 315 323 323 325 325 325 326 330 334 336 337 334 335 337 336 338 335 336 341 335 331
301 301 301 302 301 301 302 302 302 301 301 302 302 302 303 302 303 304 304 304 305 307 311 310 310 313 316 326 326 324 326 327 327 331 337 337 337 334 336 339 338 334 336 342 341 338 339
301 301 301 302 301 301 302 302 301 302 301 301 302 303 303 302 303 304 304 304 304 304 305 307 309 309 310 320 325 328 334 332 330 330 334 335 333 333 335 334 335 332 334 336 337 339 339

GFSGBSN_850_thetae_003.txt.gz
Theta_e
305 304 304 304 304 304 304 304 304 305 305 306 306 307 308 309 310 310 311 311 311 312 312 312 313 314 316 325 324 325 322 321 321 323 330 328 329 329 334 333 334 336 338 338 338 340 341
308 307 305 304 304 303 303 303 303 304 304 305 306 307 307 308 309 309 310 311 312 312 312 312 312 312 314 325 323 324 324 324 327 327 326 326 328 328 330 332 335 336 336 336 337 339 341
309 309 308 306 304 303 303 303 304 303 304 304 305 306 307 307 308 309 310 311 312 313 313 313 312 311 320 324 323 323 326 326 327 327 326 325 325 326 327 331 332 335 336 338 338 338 341
309 309 309 307 305 303 302 302 302 303 303 303 304 305 306 306 307 308 309 310 312 313 314 313 312 312 324 325 326 324 323 324 325 326 326 325 324 326 327 330 333 335 336 339 340 339 339
310 309 309 309 308 306 304 302 302 302 302 302 303 304 304 305 307 308 309 310 312 313 314 313 315 323 325 327 326 325 326 326 325 325 327 326 326 325 327 330 333 336 337 338 341 340 343
311 310 309 309 309 308 307 305 302 302 302 302 302 303 304 304 306 307 309 310 312 313 316 316 322 329 326 327 327 327 327 325 324 326 325 324 325 328 328 332 335 338 338 340 345 340 344
311 310 309 309 309 309 308 307 305 303 302 302 302 303 303 304 305 306 309 314 321 327 327 326 328 326 327 326 328 325 327 324 324 326 327 325 326 327 329 332 334 337 339 339 340 339 343
311 310 310 310 309 309 309 308 307 305 303 302 301 302 303 304 305 306 309 315 316 313 316 318 320 322 322 323 323 325 326 325 324 327 327 326 326 328 331 332 334 335 338 340 340 340 342
311 310 310 310 309 309 308 308 308 306 304 302 301 301 302 304 305 311 310 313 313 313 317 319 320 321 321 321 322 323 323 325 326 326 328 326 327 328 330 332 334 335 337 339 340 345 345
310 309 308 307 308 308 308 308 308 306 305 303 302 301 301 304 309 309 313 313 312 312 319 323 323 322 322 323 323 322 325 323 327 327 326 328 328 327 328 331 333 334 335 338 339 342 347
307 307 307 307 306 307 307 307 307 306 305 304 303 303 301 301 303 309 312 311 311 313 323 326 325 325 326 327 329 327 326 324 327 327 327 327 327 328 328 329 332 333 334 337 338 342 347
308 308 308 307 306 306 306 305 304 304 303 303 303 303 302 305 308 309 309 310 313 320 324 326 326 327 328 327 327 327 326 325 325 327 328 327 327 327 328 329 331 332 334 336 337 340 343
308 308 308 308 306 305 305 305 305 303 302 302 303 303 303 302 308 310 310 312 318 321 325 326 326 327 327 327 328 328 327 327 327 327 328 328 328 328 327 327 329 331 334 337 339 340 340
308 307 307 307 307 306 305 304 304 304 303 303 303 303 306 307 309 307 308 314 318 323 324 326 326 327 327 328 327 328 328 327 327 328 329 329 329 328 327 327 328 330 333 335 340 340 340
308 307 307 306 306 305 305 304 304 304 303 303 303 307 308 310 310 309 310 314 318 321 324 324 325 326 327 327 327 326 328 329 328 327 329 330 330 329 328 327 327 330 333 334 336 338 339
306 307 307 306 305 304 305 305 304 304 303 304 304 309 309 310 312 312 313 315 318 319 321 322 324 325 327 327 327 327 328 328 329 328 328 329 331 330 328 327 327 327 331 334 337 342 341
305 305 304 304 304 305 305 305 305 304 304 305 309 309 311 311 313 313 315 315 316 316 318 319 322 324 325 326 326 327 327 327 328 329 329 328 330 330 330 328 327 327 329 332 334 336 338
304 304 305 305 305 304 304 304 304 303 303 306 307 312 311 311 315 315 318 317 316 318 317 317 318 320 323 325 325 326 327 328 328 328 329 329 330 332 331 330 329 328 328 329 336 340 336
302 302 303 303 303 303 303 303 303 303 303 305 307 309 309 308 311 312 314 315 317 318 318 318 317 318 319 321 323 325 326 326 326 328 329 329 330 332 333 331 329 328 328 329 330 335 342
302 302 302 302 302 302 303 303 304 303 303 304 306 311 310 309 309 311 312 314 314 315 316 316 317 318 318 318 321 322 324 325 325 325 327 331 331 332 334 333 329 328 328 327 329 333 335
303 302 301 301 301 302 302 303 303 303 303 303 306 309 309 312 312 311 313 315 315 316 316 315 317 317 318 319 319 320 322 325 325 325 327 330 333 332 331 332 331 329 327 327 327 330 332
302 302 302 302 302 302 302 302 302 303 304 303 306 307 307 308 309 309 309 311 310 312 313 314 315 317 318 319 321 320 321 324 326 326 328 330 335 334 332 331 330 330 330 327 327 327 329
301 302 302 302 303 303 303 302 301 301 303 303 304 305 306 306 308 309 308 309 310 310 309 311 314 315 319 319 318 319 321 323 324 328 329 333 335 338 338 335 334 333 331 330 330 329 328
301 301 302 302 302 302 303 303 303 302 303 303 302 303 305 307 307 308 308 307 308 309 312 311 311 314 315 313 314 317 319 323 324 326 326 330 333 333 336 337 338 334 335 333 331 331 330
301 301 301 302 302 302 302 303 303 303 303 303 304 303 301 306 305 307 308 308 307 307 309 308 308 310 311 311 317 320 321 321 322 322 327 330 332 334 337 338 339 337 339 339 341 338 333
300 301 301 301 302 302 302 303 303 303 303 303 304 303 301 303 306 306 307 307 309 309 310 309 309 310 311 314 315 319 321 320 321 321 323 327 331 335 338 338 339 335 339 338 337 338 333
301 300 301 302 302 302 302 302 302 302 302 303 303 303 301 302 304 304 307 307 307 308 312 312 312 311 310 313 315 317 318 319 321 323 324 325 329 331 334 336 335 340 338 337 339 339 344
302 301 301 301 302 302 302 302 302 302 303 302 303 303 302 304 304 304 305 306 305 307 309 310 313 313 315 318 320 319 319 322 323 325 327 326 331 331 332 334 335 337 337 339 343 339 341
302 301 301 301 302 301 302 302 302 302 302 302 303 303 303 302 304 305 306 305 306 306 307 308 310 310 312 319 321 321 327 329 326 328 327 331 330 331 331 334 340 337 338 337 338 339 340

GFSGBSN_850_thetae_006.txt.gz
Theta_e
309 309 309 308 305 304 303 303 303 303 304 305 305 306 307 307 308 309 310 311 312 312 312 313 312 312 312 323 326 325 324 323 321 320 326 329 330 333 334 336 336 336 341 340 339 339 341
310 309 309 309 308 306 304 303 303 303 303 303 304 305 306 306 307 308 309 310 311 313 313 313 313 312 312 321 324 325 325 325 325 324 327 330 329 332 333 334 336 335 336 338 337 338 339
312 311 310 309 309 309 308 306 304 303 303 304 304 304 304 306 306 307 309 309 310 312 313 314 313 312 317 319 326 325 325 327 326 327 325 328 329 330 331 332 333 334 336 337 337 337 340
313 313 312 311 310 309 309 308 308 305 303 303 304 305 305 306 306 307 308 309 310 311 313 313 313 312 320 320 325 325 325 326 326 328 327 326 327 327 329 330 331 333 335 337 337 338 339
312 312 312 312 312 311 310 310 309 307 305 303 303 304 305 306 307 307 309 310 311 311 312 313 314 320 325 324 326 327 326 324 324 325 327 327 327 326 327 329 331 333 335 336 337 339 339
312 312 311 311 311 311 310 310 310 309 308 305 303 303 304 305 306 307 309 310 312 314 315 316 318 329 328 328 328 326 325 325 326 326 325 327 327 328 328 330 331 333 336 337 338 341 339
311 312 311 310 310 310 310 309 309 309 309 307 305 304 305 306 306 306 309 312 322 326 327 328 328 324 326 328 326 328 328 327 326 325 328 328 328 328 330 330 332 333 337 337 338 342 340
311 311 311 310 311 310 310 309 309 309 309 309 307 305 306 307 307 307 310 318 317 316 316 317 321 327 328 328 328 329 326 327 326 327 328 327 327 327 330 331 332 334 336 338 339 342 342
309 309 309 308 308 307 307 308 308 309 309 309 308 306 305 307 307 315 314 313 315 315 316 318 319 319 323 327 326 326 326 328 326 326 329 327 327 327 329 331 332 333 335 337 339 341 341
309 309 309 308 308 308 307 306 305 306 307 307 306 305 304 306 311 313 313 315 314 314 317 322 324 322 321 322 324 323 324 326 328 327 326 328 328 327 327 330 332 334 334 335 337 341 344
310 309 308 308 308 308 307 307 306 304 304 304 304 304 303 303 305 307 313 313 312 314 322 328 326 325 324 324 326 325 323 324 325 326 328 326 328 327 327 329 331 334 334 335 336 338 345
309 309 308 307 307 308 307 306 305 304 304 304 304 304 304 306 308 311 311 312 313 318 322 327 327 326 325 325 327 328 324 324 326 326 328 328 328 328 328 328 330 332 334 334 335 337 341
308 308 308 308 307 308 307 306 305 305 305 305 304 304 305 304 308 311 312 312 317 320 326 327 328 328 329 328 327 329 328 327 327 326 328 328 328 328 329 328 329 330 332 336 337 339 340
307 306 307 307 307 307 306 305 305 305 305 304 305 305 306 308 310 309 310 314 318 323 323 328 328 328 328 330 329 328 329 328 327 327 328 329 328 328 329 327 328 329 330 336 339 340 339
305 306 306 306 306 305 305 305 306 305 305 304 304 307 308 310 311 312 313 313 319 321 325 326 327 327 328 328 328 328 329 329 327 327 330 328 329 330 329 329 328 328 329 331 334 335 338
303 304 305 305 304 305 305 305 305 305 304 304 304 308 312 312 312 312 313 315 317 319 322 324 325 326 327 329 328 329 329 330 329 328 328 329 330 330 330 329 329 328 330 329 332 338 341
303 304 303 304 304 304 304 305 304 304 304 304 307 311 311 312 312 314 316 315 316 316 317 318 320 322 325 328 329 329 329 329 329 330 329 328 330 330 331 330 329 327 328 329 331 334 339
302 302 302 302 302 302 302 302 303 303 304 306 307 311 312 313 315 316 317 317 316 318 318 320 320 320 321 323 327 328 329 329 329 329 329 330 329 332 330 331 330 329 329 328 330 337 335
303 303 303 303 302 303 303 303 303 303 304 305 306 307 308 309 313 314 314 316 317 318 320 320 320 320 321 320 323 324 327 328 329 329 329 330 331 333 330 331 332 330 328 328 328 331 336
302 302 302 303 303 302 301 302 302 303 303 304 306 309 308 310 310 312 313 313 314 314 317 318 319 320 321 320 321 322 323 325 327 328 327 329 330 334 333 333 332 333 330 330 329 329 332
300 300 302 302 302 303 303 302 302 302 303 304 306 308 308 310 311 312 313 314 314 316 315 316 318 318 319 320 320 320 320 322 325 328 330 329 332 332 330 330 332 332 330 330 330 331 332
301 301 301 301 302 302 303 303 303 303 302 304 305 306 307 308 308 309 308 310 311 313 314 313 315 316 316 318 319 319 319 323 325 326 327 327 332 332 333 332 331 333 332 330 329 330 331
301 300 301 301 301 302 302 302 303 303 302 303 304 304 306 307 308 308 308 308 309 310 311 311 311 312 315 316 315 315 316 318 322 325 330 330 329 335 335 332 332 333 333 332 331 329 329
300 301 301 301 301 302 303 302 303 303 303 303 304 304 302 308 307 308 308 308 308 311 310 310 311 313 313 312 313 315 316 320 321 323 326 333 332 334 336 336 336 333 332 331 331 331 330
301 300 301 301 301 302 302 303 302 303 303 304 303 304 302 306 306 306 308 308 308 309 311 309 309 311 310 311 315 316 319 321 323 324 327 329 334 335 338 339 336 335 334 335 334 334 334
301 302 302 302 301 302 303 303 303 303 303 303 303 303 304 303 305 305 308 307 308 309 310 310 311 311 311 312 314 318 320 322 323 325 325 327 335 334 337 336 341 339 339 338 338 339 342
302 302 302 302 301 302 302 302 302 302 303 302 303 304 303 300 303 305 307 307 308 309 310 311 312 313 312 310 314 317 318 319 323 326 325 327 331 333 335 335 334 338 338 336 340 341 342
302 302 302 301 301 302 302 301 302 302 303 303 304 304 304 303 304 305 306 306 306 307 309 309 308 314 314 311 311 314 317 319 321 324 327 326 326 330 336 340 341 337 337 340 342 340 339
301 300 301 301 301 301 301 301 302 303 302 302 303 304 304 304 304 304 306 307 306 307 307 308 309 309 313 316 318 320 320 324 324 324 323 324 325 327 330 333 335 338 341 340 339 339 341

GFSGBSN_850_thetae_009.txt.gz
Theta_e
314 314 313 312 311 310 309 310 309 309 307 307 307 307 307 307 307 308 308 309 310 311 312 312 312 312 311 314 319 321 323 323 322 321 320 323 324 326 329 332 334 336 337 339 341 342 340
314 313 313 313 313 312 312 311 310 310 309 308 307 307 307 307 307 308 308 309 310 310 311 311 312 312 311 318 320 325 324 324 324 323 320 323 326 328 331 332 332 334 335 339 340 339 342
313 313 312 312 312 312 312 312 311 311 310 310 309 308 307 307 306 308 309 309 309 311 311 311 312 311 310 316 321 326 326 324 325 326 324 325 328 330 330 330 333 332 332 333 335 336 338
312 312 312 312 312 312 312 312 312 312 311 311 310 310 310 309 307 308 309 310 310 311 311 311 311 311 313 320 321 322 326 324 326 327 327 324 327 329 329 329 330 330 328 329 333 334 336
313 312 312 312 312 312 312 312 312 311 311 311 310 310 310 310 309 309 310 311 311 312 311 311 312 314 325 323 323 322 324 325 326 326 327 327 326 326 327 325 325 326 327 329 332 335 338
312 312 311 311 311 311 310 308 308 309 309 309 310 310 310 311 310 308 310 311 313 319 320 318 317 325 322 323 325 325 326 327 325 325 325 326 327 323 323 322 325 326 328 329 332 336 337
311 310 310 309 309 309 308 307 306 306 307 308 308 309 309 311 311 308 310 312 318 321 325 327 326 320 320 323 327 327 326 325 325 324 323 325 324 325 324 323 325 328 329 330 332 337 338
311 310 309 309 308 309 309 308 307 306 305 305 307 307 308 311 311 309 311 315 315 314 315 315 316 320 326 327 328 327 327 325 325 325 324 323 325 325 327 327 326 327 329 330 332 338 337
311 311 310 309 308 308 308 308 307 306 305 303 304 305 307 310 310 314 315 315 315 314 314 314 316 316 317 323 327 328 328 328 326 325 324 324 326 327 327 327 329 327 328 330 332 336 339
310 309 309 309 308 307 307 308 307 306 306 305 303 304 304 307 312 312 313 314 314 313 312 317 319 319 318 319 323 327 328 327 327 325 324 324 326 326 325 325 327 328 329 331 332 333 338
309 309 308 308 308 308 307 308 307 306 305 305 305 305 304 304 306 311 311 313 312 313 318 324 323 322 320 319 324 326 328 327 326 327 323 323 326 326 326 324 325 329 330 331 332 332 339
309 308 305 306 307 308 308 307 305 305 305 305 305 305 305 306 306 311 311 312 312 315 319 323 325 322 320 320 321 324 326 325 325 325 325 325 327 324 326 327 326 327 329 330 331 331 333
307 305 305 307 307 307 306 305 305 305 306 306 305 305 305 305 308 309 310 312 313 316 323 326 325 324 322 321 321 322 323 322 321 321 322 323 324 326 326 325 324 325 324 328 330 332 331
306 304 303 303 304 304 305 305 305 305 305 305 305 303 305 307 308 309 312 312 314 320 320 323 323 325 324 324 323 323 323 322 322 321 322 322 323 325 327 325 324 323 324 326 330 332 332
303 302 302 302 302 303 304 305 304 305 305 304 304 303 304 307 310 310 312 315 315 318 320 322 319 324 326 327 327 324 325 323 322 322 323 322 324 327 327 327 325 324 324 324 324 328 330
302 302 302 303 302 302 302 302 303 303 303 304 304 307 305 311 312 312 313 314 315 316 316 316 316 319 319 320 325 327 325 326 327 326 325 324 326 326 328 327 326 324 325 324 325 325 330
302 303 303 303 303 303 302 303 303 303 303 303 306 308 307 310 311 313 314 314 314 314 315 316 317 318 318 319 319 320 326 327 327 328 325 324 324 325 326 326 325 325 323 322 323 325 327
301 302 302 302 302 303 303 302 302 302 303 304 305 307 304 306 309 313 314 315 315 316 316 317 317 317 318 319 319 319 320 322 328 328 327 325 324 324 325 326 327 326 324 322 324 323 326
300 301 300 301 301 302 302 303 302 302 303 303 305 306 306 308 309 311 313 314 315 314 314 315 317 318 319 319 320 320 321 321 322 324 327 327 326 325 327 325 326 326 326 323 323 322 324
302 301 301 301 301 301 302 302 303 303 303 303 305 306 306 307 309 310 311 311 313 312 313 314 315 316 318 318 318 319 320 322 321 321 326 329 325 326 327 327 326 328 327 326 324 323 323
300 300 300 301 301 301 301 302 302 303 303 302 304 306 306 307 309 307 309 310 310 310 311 311 314 314 314 317 317 319 319 318 319 321 323 322 326 326 327 328 327 327 328 327 326 324 324
300 301 301 301 301 301 301 302 302 303 303 303 303 305 305 304 305 306 307 308 308 308 309 310 311 313 312 314 315 317 316 316 317 318 316 318 325 329 330 329 328 328 329 330 327 326 326
302 302 301 301 302 301 301 302 303 302 304 303 303 304 304 305 304 306 307 307 308 308 309 310 311 311 312 313 312 313 313 313 314 316 317 318 323 329 327 330 330 329 327 329 330 328 327
301 301 301 302 302 302 301 302 303 302 303 303 304 304 304 304 304 305 305 306 307 308 309 308 309 311 311 313 311 312 313 315 316 317 317 319 320 325 327 331 333 331 330 330 331 332 328
302 302 302 302 303 302 302 302 303 303 303 303 303 304 303 304 304 305 304 306 306 307 307 308 309 310 312 312 313 315 316 317 318 319 319 320 321 326 327 329 330 332 331 332 330 330 334
301 302 302 302 302 302 302 302 303 303 303 303 303 304 304 302 304 304 306 305 307 307 308 308 308 311 310 311 315 315 319 319 320 321 320 320 325 328 326 329 331 331 336 336 336 339 342
301 301 301 301 302 302 302 302 301 302 302 302 303 303 304 300 303 303 305 307 307 307 308 307 308 308 311 311 314 316 315 316 319 322 325 325 327 328 331 328 333 337 337 336 339 344 341
301 301 301 302 302 301 301 301 301 302 302 303 303 303 304 303 304 303 304 305 306 307 308 308 308 309 309 315 311 314 314 315 319 320 321 323 326 327 333 335 336 338 337 340 342 344 346
300 301 302 302 302 302 302 302 302 302 302 302 302 304 305 305 305 304 305 305 305 306 307 306 308 306 306 314 316 317 315 320 321 324 321 324 326 327 325 331 336 336 336 337 340 344 345

GFSGBSN_850_thetae_012.txt.gz
Theta_e
315 314 314 314 314 314 314 314 313 313 313 312 311 311 311 310 308 308 309 309 309 309 310 310 311 311 311 311 315 321 322 322 322 323 323 322 324 323 323 325 329 330 332 335 339 341 339
314 314 313 314 314 314 314 314 315 314 313 314 315 313 311 312 311 310 310 311 310 309 309 310 310 310 310 311 319 319 323 320 323 321 321 320 323 323 324 327 328 331 331 331 336 340 340
315 313 312 313 313 313 313 312 312 312 312 312 313 314 314 312 312 312 312 311 311 311 310 310 310 309 309 316 319 324 325 325 324 324 324 322 320 325 326 326 329 331 329 329 329 336 338
313 311 311 311 311 311 311 310 309 309 310 310 310 310 311 313 313 312 312 313 312 311 311 311 310 309 311 318 319 319 318 323 324 326 324 324 320 323 326 329 327 326 325 326 328 331 338
312 311 311 310 310 309 309 309 308 308 308 309 309 308 309 311 312 312 313 314 312 312 312 312 311 312 315 318 321 322 320 325 325 325 326 326 324 325 325 323 321 321 324 325 326 329 339
312 311 311 310 309 309 308 308 308 307 306 306 306 307 308 310 312 312 316 312 314 319 322 321 317 320 317 319 324 323 321 325 323 325 327 327 326 321 320 319 322 323 324 324 326 328 336
311 311 311 310 309 309 308 307 308 307 307 306 304 304 305 309 311 312 314 314 315 317 315 316 320 316 317 320 321 325 324 323 322 325 321 323 320 324 322 320 322 323 324 324 326 328 337
310 309 309 309 309 309 308 307 307 307 306 305 305 305 305 307 309 311 313 313 313 312 311 313 315 316 318 319 323 327 324 323 323 321 320 320 321 321 322 322 322 323 323 324 325 327 336
309 309 309 307 307 307 308 308 308 307 306 305 305 305 306 307 310 310 313 313 313 313 310 312 314 315 316 316 320 324 326 326 321 321 321 321 321 322 324 324 324 322 322 324 325 327 335
309 308 307 305 305 306 307 308 307 306 305 305 305 305 305 306 310 310 312 312 312 313 309 312 314 316 315 317 318 321 327 325 324 323 323 322 322 323 324 325 323 322 325 325 326 327 329
305 304 304 304 304 304 304 304 304 304 304 304 304 304 304 305 305 308 309 311 312 313 317 321 319 319 317 317 320 322 326 326 325 323 321 322 323 323 325 325 324 324 324 327 327 327 328
302 303 302 302 302 302 302 303 304 304 304 304 304 303 303 305 305 309 310 311 312 311 316 319 321 317 316 317 319 324 324 326 326 324 323 322 323 323 324 324 324 324 323 325 326 326 328
301 301 301 301 301 301 301 302 302 302 302 303 303 302 302 303 305 306 307 310 309 312 317 322 319 317 316 316 317 319 326 325 325 321 324 325 325 323 322 322 322 321 319 321 325 327 328
301 302 302 303 303 303 303 303 303 303 303 303 303 302 302 303 303 304 310 308 311 315 315 316 315 316 318 317 317 318 318 326 323 318 318 322 323 321 322 323 321 319 320 322 323 326 326
301 301 301 301 302 303 303 303 302 302 303 303 303 302 302 305 305 308 310 311 310 312 314 314 314 316 316 318 316 317 317 319 323 321 318 316 320 321 322 323 323 323 318 320 319 323 325
300 300 300 300 300 301 302 302 303 302 302 302 303 304 303 308 307 310 308 311 310 313 313 314 314 314 316 316 316 316 315 319 320 321 320 318 319 320 323 322 322 321 320 321 315 322 324
300 300 300 300 300 300 301 302 302 303 302 302 303 305 302 306 305 309 310 309 312 312 313 314 314 315 315 316 316 316 317 318 319 321 320 320 319 322 321 321 323 323 321 318 318 319 322
300 301 300 300 301 301 301 302 302 302 303 303 303 302 302 306 304 305 310 309 312 312 313 313 314 315 315 316 316 317 318 317 319 319 318 319 319 321 323 321 323 324 323 318 322 320 320
300 301 300 300 300 301 301 302 302 302 303 303 303 304 304 306 303 305 307 310 310 311 310 311 312 312 313 315 316 316 317 318 316 318 320 320 322 323 321 320 320 322 323 322 315 316 321
301 301 300 301 301 302 302 301 302 302 303 303 303 302 305 305 306 304 306 309 309 309 310 310 309 312 312 312 313 314 317 316 315 317 318 314 318 319 324 323 322 322 323 322 321 323 322
301 302 302 302 301 301 302 301 301 302 302 303 303 302 304 302 304 304 305 306 308 309 308 308 309 310 312 311 313 315 315 314 314 316 313 313 315 319 321 323 324 324 324 324 322 322 322
300 301 301 302 302 303 303 301 301 302 303 304 303 304 303 303 303 302 304 305 307 308 308 307 308 310 309 311 312 313 312 313 312 312 312 311 315 317 322 324 325 326 326 326 325 324 323
301 302 302 303 303 303 303 302 302 302 303 303 303 303 303 303 301 301 303 304 305 306 307 307 308 308 309 310 309 311 312 312 311 312 312 312 313 316 319 322 325 326 327 326 325 324 324
301 301 302 302 303 303 302 302 302 303 303 303 303 303 303 304 302 303 303 303 305 306 307 306 306 308 309 310 311 312 310 310 311 312 313 314 315 314 319 321 327 327 327 326 325 326 325
301 301 301 301 301 302 302 302 302 303 303 303 303 304 304 304 303 303 304 304 304 304 304 306 307 307 308 307 308 310 311 313 314 313 315 315 316 318 321 323 324 330 329 326 324 326 334
301 301 301 301 302 302 301 302 302 302 302 302 302 303 303 301 303 303 303 303 302 303 305 307 306 307 308 308 310 310 313 316 319 319 317 319 317 319 322 325 328 326 332 332 329 343 339
301 301 301 301 302 302 301 301 301 301 302 302 302 303 303 302 302 302 302 303 304 304 304 305 307 307 308 309 310 312 312 314 318 320 321 323 322 322 324 329 326 334 334 333 334 332 338
300 300 300 301 301 302 302 302 302 302 302 302 302 302 303 303 303 303 303 303 303 304 305 305 307 307 305 310 311 311 311 312 315 317 322 324 327 330 327 333 338 325 333 333 332 344 346
301 301 301 301 301 301 301 301 301 301 302 302 302 302 303 303 304 303 303 303 303 304 304 305 307 306 306 309 310 311 312 314 314 320 321 325 324 327 324 330 323 326 335 341 342 342 344

GFSGBSN_850_thetae_015.txt.gz
Theta_e
316 315 313 313 313 313 314 314 314 314 313 312 312 312 313 313 313 312 311 311 309 310 310 309 309 309 310 311 315 320 321 322 318 316 319 326 326 324 320 322 327 335 334 332 333 335 344
312 312 312 311 311 311 311 311 310 310 310 311 311 310 310 312 313 314 313 313 313 311 310 310 309 308 309 308 319 319 318 317 322 320 324 324 323 325 322 322 324 328 329 330 331 331 346
313 312 311 311 310 309 309 309 309 309 308 308 310 310 309 310 312 314 315 315 315 313 311 311 310 308 308 315 319 319 321 321 319 322 322 321 321 323 323 322 326 328 329 326 327 329 342
312 312 311 311 310 309 309 308 308 308 308 307 307 307 308 309 310 312 316 317 314 315 313 312 310 308 309 315 317 318 321 320 320 321 322 323 323 322 324 325 325 325 324 326 327 327 331
311 310 310 310 310 310 309 307 307 307 307 306 307 307 307 308 309 310 316 315 313 313 314 316 312 310 312 314 315 318 320 320 321 324 322 324 325 323 323 323 321 319 325 325 325 325 336
310 310 309 309 308 308 308 307 308 307 307 307 307 306 307 308 308 311 314 313 314 320 320 321 319 318 317 317 325 325 322 320 322 324 323 323 323 318 317 318 323 323 324 323 324 327 335
309 309 309 307 305 305 306 307 307 307 306 305 305 306 307 307 308 310 312 314 314 315 313 315 320 318 318 319 319 324 325 320 320 322 320 322 322 320 320 319 321 322 323 323 324 327 335
307 306 305 305 304 304 304 304 303 303 303 303 303 303 304 306 307 310 310 310 309 308 308 314 316 315 317 317 317 321 325 319 319 319 318 319 321 321 321 320 321 321 322 322 322 323 327
303 302 302 302 302 302 302 302 302 302 302 302 302 302 302 304 308 310 310 310 309 309 307 311 314 314 314 316 316 319 322 320 320 320 318 320 319 320 322 322 321 320 321 322 322 324 328
302 301 301 301 301 301 301 301 301 301 301 301 301 301 302 303 306 307 310 309 309 311 307 312 312 313 314 316 316 318 322 321 321 321 319 318 319 321 321 322 321 320 321 323 323 324 324
301 301 301 301 301 302 302 302 302 302 302 302 301 301 301 301 302 304 308 310 311 311 318 321 315 315 315 317 318 317 319 325 322 320 319 320 320 321 321 322 321 323 323 323 325 324 325
301 301 301 301 301 301 302 302 302 302 303 303 302 301 301 303 302 305 304 309 312 310 314 318 317 314 314 315 317 319 320 326 324 322 321 321 322 321 321 322 322 323 323 321 322 321 324
300 300 300 300 300 300 301 301 302 302 303 303 302 302 301 302 303 302 303 309 308 310 314 318 314 314 314 315 316 319 321 322 322 323 323 322 323 320 321 321 321 321 318 320 319 322 325
300 300 300 300 300 300 300 300 301 302 302 302 303 302 301 305 308 303 304 306 309 313 312 313 314 313 315 315 315 316 322 323 323 320 322 322 323 322 320 321 321 318 319 316 320 321 324
299 300 300 300 300 300 300 301 301 301 302 302 302 302 302 306 305 308 309 307 308 310 313 314 313 314 315 315 314 315 313 323 324 317 320 320 322 320 323 321 321 319 320 319 318 319 319
300 300 300 300 300 300 301 301 301 301 302 302 303 303 304 305 305 306 306 308 308 311 311 313 313 314 315 314 315 314 315 315 317 320 317 317 318 317 321 321 320 321 318 321 312 321 322
300 300 301 300 300 300 300 301 301 301 302 302 303 303 303 305 306 308 307 307 310 311 312 312 313 314 314 315 315 315 316 316 318 318 317 317 316 320 318 318 319 318 321 317 316 315 321
300 299 300 300 301 301 301 301 301 301 302 302 303 300 303 304 303 301 304 305 310 310 310 311 312 312 313 314 314 315 316 316 316 317 319 317 311 319 319 318 320 320 320 316 319 318 316
299 299 300 302 301 301 301 302 301 301 302 302 303 303 304 305 303 302 303 306 308 308 309 309 310 310 311 313 314 315 315 316 315 316 318 317 315 316 316 318 318 318 319 319 318 315 322
299 301 302 303 303 302 302 303 302 301 302 302 303 301 304 304 303 303 303 304 307 308 309 307 308 310 311 311 311 313 314 316 313 314 318 313 312 316 318 317 319 319 321 321 319 320 322
301 302 302 303 303 303 303 303 302 301 302 303 302 300 302 301 302 301 302 303 307 307 308 307 307 308 310 311 312 313 313 312 313 314 311 310 313 315 317 317 319 320 320 322 320 321 322
301 301 301 302 302 303 303 303 302 302 302 302 302 303 303 302 302 301 301 304 306 305 306 308 307 307 308 309 310 311 310 312 312 311 310 308 314 313 316 318 321 322 321 322 322 322 321
300 300 301 301 302 302 302 301 302 302 303 302 302 302 303 304 303 303 301 303 303 304 306 307 306 305 306 307 308 308 308 309 310 311 309 311 311 313 316 317 318 322 322 323 323 321 321
300 301 300 301 302 302 302 302 301 302 303 303 303 303 303 304 303 304 303 303 303 303 305 305 304 305 307 306 306 308 308 308 309 309 309 311 311 312 315 317 324 322 322 323 323 322 320
300 300 300 300 301 301 301 302 301 302 302 302 303 303 303 303 303 303 303 303 303 303 302 303 304 306 306 307 306 308 308 309 309 310 310 310 312 314 316 319 321 324 326 325 323 323 325
301 300 301 301 301 301 302 302 302 302 301 302 302 302 303 303 303 303 303 302 302 303 303 305 305 304 307 305 307 309 310 313 313 315 311 311 312 316 316 321 325 323 327 329 327 325 336
302 302 301 301 301 301 301 301 302 302 302 302 302 302 303 303 303 302 302 301 302 302 302 302 305 306 307 306 306 308 310 311 312 317 315 314 319 319 318 319 322 326 334 331 331 326 336
303 303 303 303 303 302 301 301 302 301 301 302 302 302 302 302 302 302 302 302 302 303 303 303 303 305 303 307 308 308 309 310 311 312 316 319 322 323 319 325 328 331 335 340 336 336 343
303 303 303 303 303 303 303 303 302 302 302 302 302 302 303 303 302 302 302 302 303 303 303 303 304 304 306 306 305 306 308 310 310 315 314 318 320 324 323 325 324 327 329 335 334 338 340

GFSGBSN_850_thetae_018.txt.gz
Theta_e
313 313 312 311 311 310 310 310 311 311 310 310 310 311 310 309 309 309 312 314 313 312 311 310 310 309 308 309 314 319 321 320 322 318 319 328 345 343 330 331 340 340 339 337 336 335 335
312 312 312 311 310 310 309 308 308 308 307 307 308 308 308 308 309 309 310 312 313 313 313 312 310 309 307 306 316 316 318 318 318 317 319 322 336 339 323 321 329 327 330 334 331 330 335
310 310 310 310 309 309 309 308 307 307 307 307 307 307 307 308 308 309 311 312 313 315 315 313 311 309 307 312 316 317 318 317 319 316 321 324 324 324 324 321 323 325 326 326 326 327 338
310 309 309 308 306 306 306 306 307 307 306 305 305 306 307 307 307 309 312 313 316 317 316 313 310 309 308 314 314 314 319 317 317 319 317 320 324 324 322 323 323 323 323 325 327 327 338
309 308 307 306 304 304 304 304 303 303 302 302 303 303 303 304 306 308 311 312 314 314 315 316 312 308 311 313 314 315 315 320 319 319 321 322 323 323 322 321 320 319 324 324 325 325 332
305 303 303 302 302 302 302 301 301 301 301 302 302 302 302 303 304 310 311 312 314 319 320 319 319 314 316 317 322 317 316 317 316 320 321 324 323 318 315 317 320 323 322 323 325 327 336
302 302 302 301 301 301 301 301 301 301 301 301 302 302 302 303 303 310 311 313 312 313 311 318 321 317 317 317 321 322 323 317 317 318 319 320 319 320 316 317 321 322 322 325 323 324 331
301 301 301 301 301 301 301 301 301 301 301 301 301 301 301 303 302 309 311 309 306 306 307 313 316 314 317 318 317 321 323 317 318 318 317 316 322 319 318 318 320 321 321 321 322 323 324
301 301 301 300 300 300 300 300 301 301 300 300 300 301 301 302 303 305 308 308 306 308 306 310 313 313 314 316 315 318 321 318 316 317 318 321 319 321 322 320 320 319 320 321 323 323 323
301 300 300 300 300 300 300 300 300 300 300 300 300 301 301 301 303 302 307 307 305 310 306 311 310 312 313 315 314 318 321 320 318 319 316 318 318 321 319 321 320 319 319 322 322 321 322
300 300 299 299 299 299 299 299 299 299 300 300 300 301 302 302 301 302 304 303 307 309 318 319 312 313 314 316 316 315 319 320 319 318 318 319 318 319 320 321 319 322 320 320 321 321 321
299 299 299 300 300 299 299 299 299 300 300 300 299 301 302 302 302 305 303 303 310 311 317 317 314 313 313 314 314 317 319 323 321 320 320 320 319 320 319 320 320 320 322 317 317 318 321
299 300 300 300 299 299 299 299 299 300 300 300 300 301 302 306 305 307 305 306 307 311 313 315 314 312 313 313 314 316 317 321 320 320 319 321 322 320 319 319 319 320 318 319 320 320 324
299 299 299 299 299 299 299 299 300 301 301 301 300 301 303 305 305 305 304 305 308 312 310 312 313 312 313 313 314 315 317 321 320 320 319 321 321 321 319 319 319 318 317 318 321 319 322
299 299 299 299 299 300 300 300 301 301 301 301 300 301 304 304 305 305 308 305 307 308 311 312 312 314 314 314 314 314 313 318 322 317 321 320 321 320 320 319 321 317 320 317 316 317 317
299 298 298 299 300 300 300 300 300 301 301 301 301 301 303 304 305 305 305 306 307 309 310 311 313 313 314 313 314 313 314 315 317 317 315 318 321 318 322 320 319 317 316 319 311 320 320
298 298 299 300 301 301 301 301 301 301 301 301 302 302 303 303 305 307 302 304 307 309 310 310 311 312 312 313 313 313 315 316 316 317 315 314 314 318 317 319 322 317 317 315 316 314 318
299 300 301 302 302 303 303 302 302 302 301 302 302 299 304 305 301 300 303 303 308 308 308 308 309 311 312 313 314 314 316 316 314 316 317 317 311 316 318 317 320 322 321 315 319 317 313
300 301 302 302 303 302 303 303 303 302 301 302 302 301 303 303 300 300 303 303 305 308 308 307 308 309 310 311 312 314 313 314 312 314 318 315 313 315 315 317 317 317 319 317 317 314 319
300 301 301 301 301 302 303 302 303 302 301 302 302 301 302 303 302 301 301 302 304 306 309 307 307 308 309 309 310 311 313 313 312 313 317 312 311 313 317 316 316 318 318 316 318 320 321
300 300 300 301 301 302 302 302 301 302 302 302 302 299 302 301 300 302 300 301 305 305 305 307 308 306 307 309 309 311 311 310 311 313 311 310 314 314 315 315 316 317 318 319 316 319 320
300 301 301 301 301 302 301 302 301 301 302 303 302 302 302 302 302 303 300 301 304 303 304 306 308 307 305 307 309 309 308 309 310 309 309 307 313 312 314 316 316 317 319 320 319 318 318
300 300 300 300 300 301 301 301 302 302 303 303 302 302 303 302 303 302 301 303 303 302 303 305 306 304 304 305 307 307 307 307 307 308 308 309 311 312 315 315 315 318 318 319 319 318 319
301 301 301 301 301 301 302 302 302 301 302 302 302 303 302 304 302 303 303 303 303 303 303 303 304 304 304 305 306 305 305 304 305 306 307 308 310 311 314 315 319 317 317 322 320 320 319
302 303 303 303 302 301 301 301 302 302 302 301 301 302 303 304 302 302 303 303 302 302 301 302 303 303 303 306 304 305 305 308 308 308 308 308 307 312 315 315 316 318 325 330 329 328 321
303 303 303 303 303 303 303 302 301 302 302 302 302 302 302 303 302 302 302 301 301 301 301 303 304 305 305 303 304 305 308 307 311 312 308 307 309 310 311 317 320 321 327 329 328 331 334
302 302 302 302 302 302 302 303 303 302 302 301 302 302 302 302 302 302 302 301 302 302 303 302 303 303 306 307 307 306 307 309 309 312 310 309 310 311 313 317 317 321 328 333 332 333 336
301 301 300 300 301 302 303 304 304 304 302 302 302 302 302 303 302 302 302 302 301 301 302 302 302 303 303 306 308 307 306 307 308 308 311 311 313 313 313 317 319 323 331 339 334 334 334
301 300 300 300 301 303 304 304 304 305 304 303 302 303 302 303 302 302 302 302 302 302 302 302 303 302 303 303 305 303 307 308 310 310 309 310 315 317 316 317 316 326 326 331 331 332 333

GFSGBSN_850_thetae_021.txt.gz
Theta_e
311 310 310 310 309 309 308 307 308 308 308 307 307 308 308 308 308 308 310 311 312 314 315 313 312 310 308 308 312 317 319 318 320 317 333 343 344 344 343 346 345 351 344 340 339 338 336
309 309 308 306 305 305 305 304 304 304 303 303 303 303 304 305 306 307 309 310 312 315 317 315 313 311 307 308 313 316 317 317 320 332 337 341 344 340 336 328 340 337 335 329 332 334 331
307 306 305 303 302 302 302 302 302 302 302 302 302 302 302 302 303 305 307 311 314 315 318 317 314 311 308 312 313 315 316 317 319 319 334 330 330 337 327 325 327 326 326 328 328 329 330
303 302 302 302 301 301 301 301 301 301 301 302 302 302 302 303 303 303 310 310 313 315 316 316 313 310 309 314 313 317 318 315 317 319 323 325 325 331 324 323 324 326 326 328 329 329 332
302 301 301 301 301 301 301 301 301 301 301 301 301 301 302 302 303 304 310 312 313 317 318 316 314 309 311 312 312 313 318 316 317 323 322 322 323 324 322 324 324 325 329 328 330 329 337
301 301 301 301 301 300 300 300 300 300 300 300 300 300 301 301 302 305 309 312 313 313 319 318 316 311 313 316 314 313 315 318 321 322 322 322 323 325 324 324 325 325 325 327 330 330 332
301 300 300 300 300 299 299 299 299 299 300 300 300 300 301 301 301 304 309 311 311 312 309 320 322 317 318 317 321 318 313 318 317 322 322 323 323 326 324 323 323 323 325 327 328 328 333
300 300 300 299 299 299 299 299 299 299 299 299 299 300 300 301 302 304 308 308 304 305 308 312 314 313 319 317 317 321 314 315 317 321 322 323 324 323 323 322 323 322 324 327 326 326 327
300 299 299 299 299 299 299 299 299 299 299 299 299 299 300 301 302 302 304 307 304 303 308 310 311 311 313 316 316 319 316 316 319 320 321 324 323 324 323 323 323 322 323 325 327 326 326
299 299 299 299 299 299 299 299 299 299 299 299 299 299 300 300 302 301 306 306 303 305 312 316 312 313 313 316 316 317 318 319 319 321 321 322 324 324 324 324 323 322 322 323 325 326 330
299 299 299 299 299 299 299 299 299 299 299 299 299 300 301 302 303 305 305 305 303 307 316 318 312 312 313 317 316 317 318 320 321 321 322 323 324 323 324 324 324 322 322 323 325 327 327
299 299 298 298 299 299 299 299 299 300 300 300 300 300 301 304 304 304 305 304 308 313 317 319 313 314 315 315 316 316 318 320 321 321 322 323 321 324 324 324 324 325 324 325 325 327 328
299 298 298 299 299 299 300 299 299 300 300 301 300 300 303 304 304 305 305 304 312 315 316 317 316 315 315 316 316 318 319 322 324 322 323 323 323 322 324 323 324 324 325 327 326 327 329
299 298 299 299 300 300 300 300 300 301 301 301 300 301 303 303 304 304 306 308 312 312 313 313 314 315 316 316 317 317 320 322 324 322 323 324 324 324 323 324 323 324 324 324 326 327 327
299 299 300 300 300 301 302 302 302 301 302 301 300 301 303 303 303 304 307 307 310 311 311 312 314 317 317 316 316 317 319 322 324 323 324 324 324 323 323 323 324 324 326 324 323 322 325
300 300 300 300 301 302 302 302 302 302 302 301 301 301 303 303 305 305 307 307 309 309 310 311 314 314 317 316 318 318 319 317 321 320 320 324 326 324 324 324 324 323 324 323 324 324 325
300 300 300 300 301 301 302 303 302 302 302 301 301 302 303 303 304 305 307 306 306 308 309 311 312 313 314 315 316 316 318 316 316 319 320 321 322 322 325 324 325 322 324 324 324 324 324
300 300 300 300 301 301 302 303 302 302 302 301 302 304 303 302 303 303 304 304 304 307 309 309 310 312 313 314 315 317 319 317 313 318 321 319 320 325 324 324 325 325 325 325 325 326 324
300 300 301 301 301 302 302 302 301 301 301 302 302 301 302 302 304 304 303 304 304 307 308 310 309 309 311 313 314 315 316 314 313 318 319 318 321 327 325 324 322 325 326 325 325 326 327
300 300 300 300 300 301 303 302 302 301 301 302 302 303 302 302 301 302 303 304 305 305 307 308 309 308 310 312 313 313 314 313 312 316 317 316 318 324 328 325 322 324 322 325 325 327 326
301 301 300 301 300 300 302 302 302 302 302 302 302 302 301 304 303 303 304 303 305 305 304 306 307 308 307 310 312 313 312 312 313 312 314 316 319 318 318 318 319 320 320 321 323 325 328
302 302 302 302 301 301 301 302 303 302 301 302 302 302 302 301 302 304 302 303 304 304 304 304 309 306 306 308 308 310 309 312 312 312 312 313 317 318 318 317 318 319 320 320 321 322 322
303 303 303 303 303 303 302 301 302 302 302 302 301 302 302 303 303 304 304 303 303 303 304 305 305 304 305 306 305 306 306 307 308 309 311 313 316 317 318 318 319 320 320 321 321 322 322
303 303 303 303 303 303 303 303 302 302 302 302 302 301 302 303 303 302 303 302 303 303 304 303 303 304 304 304 304 305 306 306 307 308 308 313 315 315 315 317 320 321 321 324 325 324 323
303 302 302 301 301 301 301 302 303 303 302 303 302 302 302 303 302 302 302 302 302 301 303 302 303 304 304 305 306 307 309 310 309 308 310 310 313 312 313 317 318 318 320 330 333 327 332
302 301 301 300 300 300 300 302 304 304 304 302 302 301 302 302 303 302 302 302 302 302 302 303 303 303 304 308 308 308 306 308 309 312 310 310 312 313 313 312 316 320 322 328 333 329 337
302 301 301 300 300 300 300 302 303 304 305 304 303 302 302 302 303 302 303 303 301 301 302 302 303 303 306 306 306 308 308 308 307 308 314 313 312 313 313 314 315 317 324 335 337 330 337
302 301 301 300 300 300 301 303 305 305 305 305 305 303 302 302 302 302 303 302 303 302 303 302 303 304 306 307 307 307 309 309 311 308 308 313 315 315 312 313 313 315 321 325 336 335 337
301 301 300 300 300 301 302 305 306 306 306 306 305 305 304 303 302 303 302 302 303 302 302 302 303 304 305 307 306 306 309 309 310 311 310 311 311 317 313 312 313 315 320 327 333 334 335

GFSGBSN_850_thetae_024.txt.gz
Theta_e
305 303 303 302 302 302 302 302 302 302 302 302 302 302 302 303 303 303 304 306 310 314 315 315 316 314 311 314 314 316 319 319 319 329 332 334 339 338 339 341 343 348 344 342 341 340 340
302 302 302 301 301 301 301 301 301 301 301 301 301 302 302 303 303 303 304 305 311 314 315 315 316 315 311 314 314 314 316 317 328 333 333 333 337 335 336 338 342 341 343 341 334 335 337
302 301 301 301 301 301 301 301 300 300 300 300 300 301 301 301 302 303 304 309 312 313 315 317 317 314 314 315 313 313 323 329 334 335 333 332 334 336 333 337 331 338 337 332 332 333 335
301 301 301 300 300 300 300 300 300 300 300 300 300 301 301 301 302 303 304 308 313 314 316 316 316 313 317 316 316 313 323 331 337 335 331 332 333 336 332 328 327 331 332 334 336 335 333
301 300 300 300 300 300 300 300 300 299 299 299 299 300 301 301 302 302 305 309 312 313 315 317 313 315 320 315 314 314 324 327 334 332 331 331 332 331 332 332 330 330 334 336 337 335 337
300 300 299 300 300 300 300 299 299 299 299 299 299 300 300 301 301 302 305 309 311 311 316 318 317 316 316 318 317 314 322 322 332 332 327 326 327 326 329 331 333 332 332 335 336 337 335
299 299 299 300 299 299 299 299 299 299 299 299 299 300 300 301 301 303 304 311 315 319 313 323 326 321 321 318 319 314 316 322 328 329 326 323 324 325 325 327 328 331 332 334 334 336 335
299 300 299 299 299 299 299 299 300 300 299 299 299 299 300 300 302 303 306 310 306 305 309 311 312 316 322 320 323 317 316 323 323 328 326 325 326 325 325 325 326 328 329 331 333 333 332
300 299 299 299 299 299 299 300 300 300 300 300 300 299 300 300 302 305 307 307 306 306 311 314 314 315 315 317 321 321 316 321 324 325 325 326 326 325 324 326 326 326 328 330 332 333 332
299 299 299 299 299 300 300 300 300 300 300 300 300 300 299 300 306 305 308 306 307 307 316 318 316 316 316 318 320 321 315 320 322 325 325 325 326 325 325 325 325 326 326 327 329 331 335
299 299 299 299 300 300 300 300 300 300 301 301 301 299 300 302 303 307 306 306 306 309 317 321 317 315 316 320 324 320 320 317 321 323 325 325 325 325 326 326 325 325 324 325 326 328 331
299 299 300 300 300 300 301 301 301 301 301 301 301 300 300 305 306 306 306 306 309 315 316 321 316 317 318 319 321 322 321 318 319 323 325 325 324 326 326 326 326 325 324 324 325 327 331
300 300 300 300 301 302 301 301 302 301 301 301 301 300 302 303 305 305 304 308 313 315 318 320 319 319 319 320 321 321 323 323 326 325 325 325 325 325 325 326 326 326 326 327 327 327 330
300 300 300 300 301 301 301 301 301 301 301 301 301 301 303 304 304 304 306 311 311 315 317 316 317 318 320 321 320 321 323 325 325 326 327 326 326 325 326 327 327 327 326 326 328 327 328
300 300 300 301 300 300 300 301 301 301 301 302 301 304 305 304 303 306 308 309 309 315 313 314 316 319 321 320 320 321 322 325 325 326 328 328 328 325 326 326 327 327 329 326 327 328 329
300 301 301 301 300 301 301 301 302 301 301 301 302 304 304 304 304 307 310 308 310 310 311 313 316 318 322 321 321 322 322 322 326 326 327 328 329 326 325 325 326 327 327 326 326 328 329
301 301 301 301 301 301 301 302 302 302 301 301 305 305 304 304 305 306 307 307 307 307 308 311 314 315 317 319 320 322 323 319 321 325 324 327 328 329 327 326 326 327 328 327 327 327 328
301 301 301 301 300 300 302 303 302 302 302 304 304 306 304 304 306 306 307 306 305 307 307 310 311 311 315 316 319 321 323 321 316 321 325 326 328 330 328 327 327 327 327 328 328 330 328
302 302 302 301 301 300 301 302 302 302 302 304 305 305 304 304 306 306 306 306 306 307 308 309 311 311 312 315 318 318 320 316 315 321 325 326 326 330 329 329 328 328 327 328 328 329 331
303 303 303 303 302 302 301 301 302 303 302 304 305 306 305 305 305 306 306 306 306 306 306 306 309 310 312 312 315 317 318 316 314 316 316 319 327 329 331 330 328 329 328 328 328 330 329
303 304 304 304 304 304 303 301 302 303 302 305 305 305 304 305 305 305 305 306 305 305 305 306 307 308 309 313 313 314 315 315 315 315 317 320 326 326 329 325 325 328 328 328 329 329 330
304 303 303 303 302 302 303 303 303 302 302 305 304 304 304 303 304 305 305 306 305 305 305 306 306 306 306 310 309 312 312 314 315 315 317 317 324 323 326 324 323 325 326 326 328 329 329
303 303 302 301 301 300 300 301 303 304 302 305 305 304 304 304 305 306 305 304 304 304 305 305 305 306 306 307 307 308 308 309 312 313 315 316 320 322 326 324 324 326 325 325 326 327 327
304 303 302 301 301 300 300 300 300 303 303 303 304 304 304 306 305 304 304 303 303 303 304 304 304 305 306 306 306 307 308 308 310 311 312 315 317 319 324 324 326 326 326 326 326 326 326
303 303 302 301 301 300 300 300 300 302 304 303 303 303 304 306 304 305 304 303 303 303 303 304 305 305 305 306 309 309 310 310 310 310 311 313 316 317 320 322 324 324 323 324 326 327 327
302 302 302 301 301 300 300 300 301 302 304 303 305 302 303 303 306 304 304 304 305 305 304 304 304 305 305 308 309 310 309 310 311 310 310 313 314 316 317 319 323 323 323 326 326 330 329
301 301 301 301 300 300 301 302 303 304 306 304 304 305 302 303 303 304 305 305 304 304 305 304 304 305 306 308 309 308 309 309 309 311 313 311 314 316 316 317 319 320 324 330 330 340 337
301 300 300 300 300 301 302 303 304 306 307 306 306 305 304 302 304 305 304 304 304 304 306 304 305 306 307 309 308 307 309 310 311 310 311 312 313 313 314 315 316 316 318 324 331 333 333
301 301 301 302 302 304 304 304 306 307 307 307 307 306 305 303 303 304 305 305 305 304 304 304 304 306 306 309 310 310 310 310 311 312 311 311 312 314 315 315 315 315 317 318 319 322 329

GFSGBSN_850_thetae_027.txt.gz
Theta_e
302 301 301 301 301 301 301 300 300 300 301 301 301 301 301 302 302 303 303 304 305 308 312 313 315 315 314 318 317 319 318 321 320 323 325 332 337 341 343 341 342 344 345 345 346 344 342
301 301 301 300 300 300 300 300 300 300 300 300 301 301 302 302 302 303 303 304 305 308 313 314 316 314 314 321 319 318 321 319 324 328 326 331 334 338 340 340 341 342 343 344 343 342 340
301 300 300 300 301 300 300 300 300 300 300 300 301 301 302 302 302 303 303 304 305 309 314 315 316 314 319 322 319 316 320 324 329 329 327 330 331 337 338 339 337 340 343 344 344 338 339
300 300 300 300 300 300 299 300 300 300 300 301 301 301 302 302 303 303 304 304 306 310 313 315 316 313 322 323 322 317 322 326 330 331 330 330 331 334 336 335 337 339 341 345 341 339 338
300 300 300 300 300 300 300 300 300 300 301 301 301 301 301 302 302 303 304 305 307 310 312 316 316 320 325 322 320 321 319 327 331 333 333 332 331 334 335 337 336 334 338 340 341 339 339
300 300 299 300 300 300 300 300 300 300 301 301 301 301 302 301 302 303 304 307 312 315 321 320 322 321 322 323 322 319 319 326 333 334 333 332 333 335 336 338 338 335 335 337 339 340 339
300 299 300 300 300 300 301 301 301 300 301 301 301 301 301 301 302 302 307 313 316 322 323 325 326 323 326 323 321 319 319 326 331 334 335 333 335 338 333 337 336 335 335 336 338 339 339
300 299 300 300 300 301 301 301 301 301 301 301 301 301 301 301 303 307 310 311 310 309 311 312 313 315 322 323 324 319 322 325 328 336 332 331 333 332 331 329 332 334 335 336 336 336 338
300 300 300 301 301 301 301 301 301 301 301 301 301 301 301 301 307 309 311 309 309 309 312 313 314 315 316 323 325 325 319 323 329 334 332 329 328 328 327 326 328 330 332 334 335 336 336
300 300 301 301 301 301 301 301 301 301 301 301 301 301 300 301 307 308 310 308 308 309 315 318 319 319 317 319 325 325 319 322 328 333 334 329 328 327 327 326 327 327 328 331 332 334 337
301 301 301 301 301 301 301 301 301 301 301 301 301 302 300 305 308 310 307 307 308 311 318 322 320 319 319 320 324 324 322 321 327 327 331 331 328 328 328 327 327 328 328 328 330 332 335
301 301 301 301 301 301 301 301 301 301 301 302 302 302 301 306 307 307 306 306 310 316 318 322 320 320 322 320 323 326 324 320 324 327 328 328 327 328 328 328 327 328 327 328 328 329 333
300 301 301 301 301 301 301 301 301 301 301 302 301 303 303 306 306 305 306 308 312 313 319 323 321 322 322 324 323 327 326 321 325 326 327 327 328 328 328 328 328 327 328 328 327 329 330
300 301 301 301 301 301 301 301 301 302 302 302 301 306 307 307 305 305 307 310 311 314 318 317 317 319 321 324 325 326 327 328 323 324 326 328 329 328 328 329 329 328 328 328 329 328 328
301 301 301 301 301 301 301 302 302 302 302 301 304 307 307 305 305 306 308 310 310 313 313 313 316 321 321 323 325 326 327 327 326 324 326 330 330 329 329 328 329 329 330 329 329 330 330
301 301 301 301 301 301 301 301 302 303 303 302 306 308 308 305 306 307 311 310 310 310 310 311 314 319 323 324 324 325 326 327 328 326 328 330 332 331 329 329 329 330 329 328 329 332 332
302 302 302 302 302 302 301 301 302 304 303 304 308 307 307 305 307 308 308 308 308 307 308 310 311 313 316 318 321 325 326 325 325 327 328 330 332 332 331 329 329 329 331 329 329 329 331
303 303 304 304 304 304 304 303 301 303 303 305 308 310 307 306 308 307 307 307 307 308 308 309 311 312 313 315 318 322 326 325 319 323 328 329 331 333 331 329 329 330 330 331 330 333 330
303 304 304 305 304 304 304 304 303 303 303 304 308 308 307 306 308 308 307 307 307 309 308 309 309 311 313 314 317 319 322 320 318 323 327 329 331 334 335 331 330 329 329 330 331 331 333
304 304 304 303 302 302 302 302 303 304 304 304 308 310 307 306 306 307 307 307 307 306 307 307 310 309 311 313 314 317 319 319 317 319 318 322 330 332 336 334 331 330 330 329 331 333 332
304 304 303 302 301 301 300 300 301 302 304 306 308 309 307 308 308 307 307 307 308 307 306 306 310 309 309 312 314 315 317 318 319 318 322 324 330 331 332 333 332 330 329 330 330 331 332
304 304 303 302 302 301 300 300 300 301 303 307 307 306 306 306 306 307 308 307 306 307 307 307 307 308 307 310 311 312 314 315 318 318 320 323 327 330 332 331 330 330 332 330 330 330 331
303 303 303 303 302 301 301 300 300 301 302 304 306 306 307 307 307 307 307 307 306 305 306 307 306 306 307 308 308 309 310 311 313 314 317 320 324 329 332 331 331 331 331 331 331 331 331
302 302 302 302 302 301 301 300 300 301 303 304 303 303 305 309 307 307 306 306 306 306 306 305 305 307 307 307 307 308 309 310 311 313 315 318 322 326 329 331 333 331 330 330 330 331 331
301 302 301 301 301 301 300 300 301 302 304 304 304 303 304 309 307 308 307 306 305 305 306 306 306 306 306 307 309 312 312 312 312 312 314 315 318 323 327 330 330 329 329 330 329 330 329
301 301 301 300 300 300 301 302 303 304 306 306 304 302 303 304 308 307 307 306 307 307 308 307 306 306 306 309 310 312 313 314 314 313 313 314 316 319 324 327 332 329 327 326 328 331 330
300 301 302 302 303 304 304 304 304 305 306 307 307 304 303 303 304 306 308 308 307 307 307 306 306 307 307 309 311 311 310 313 313 315 314 314 316 317 320 323 325 327 329 327 330 343 339
305 306 307 307 306 306 306 305 305 305 307 308 307 307 304 303 304 306 307 307 307 306 307 307 308 308 308 310 311 311 309 313 314 313 315 315 316 318 318 320 323 322 323 329 330 329 330
307 308 308 308 308 308 307 307 306 306 308 308 308 307 307 305 305 307 307 307 307 307 306 306 307 307 308 310 312 313 311 311 312 313 313 314 316 316 317 319 320 319 319 320 320 322 325

GFSGBSN_850_thetae_030.txt.gz
Theta_e
301 301 301 301 301 301 301 301 301 301 301 301 302 302 303 303 303 303 304 304 305 305 306 309 313 313 313 318 318 322 320 320 319 318 323 326 334 340 345 343 343 344 348 346 342 345 341
301 301 301 301 300 300 301 301 301 301 302 302 302 303 303 303 303 304 304 304 305 305 307 310 315 314 312 321 324 323 323 319 321 320 324 325 332 338 342 342 342 342 343 345 345 346 342
301 301 300 300 300 300 301 301 301 301 301 302 302 302 302 303 303 304 304 305 305 306 307 311 314 317 317 321 325 321 323 325 323 323 323 325 329 334 340 343 341 340 342 343 344 344 342
300 300 300 300 300 301 301 301 301 301 302 302 302 302 302 303 303 304 304 304 305 308 312 310 314 315 320 326 325 322 318 323 325 327 325 325 329 332 336 339 341 340 340 344 344 344 341
300 300 300 301 301 301 301 301 301 302 302 302 302 302 302 302 303 303 304 308 311 313 315 314 319 319 325 326 325 324 320 321 326 330 329 327 329 330 333 339 341 339 341 342 344 343 341
300 300 301 301 301 301 301 301 301 302 302 302 302 302 302 302 302 306 309 312 314 316 324 320 323 324 323 326 326 325 324 322 326 330 331 331 332 332 333 337 343 340 340 339 343 343 340
300 300 301 301 301 301 301 301 301 302 302 302 302 302 302 302 303 309 312 312 312 321 314 320 326 323 325 327 325 323 324 321 327 331 335 334 335 335 333 335 337 339 338 336 338 339 341
301 301 301 301 301 301 301 301 301 301 302 302 302 302 302 302 305 309 312 312 310 309 311 311 313 314 320 325 326 324 323 323 328 334 335 336 337 334 333 334 335 337 338 336 335 337 338
301 301 301 301 301 301 302 302 302 302 302 302 302 302 302 303 307 310 312 311 309 310 311 311 312 314 315 318 322 326 323 323 328 333 337 337 335 334 334 335 333 336 337 336 336 336 338
301 301 301 301 301 301 302 302 302 302 302 302 302 302 302 302 308 311 311 308 308 309 312 314 317 317 315 316 320 326 323 323 329 331 337 336 334 333 334 334 334 333 335 334 335 336 337
301 301 301 301 301 301 302 302 302 302 302 302 302 302 302 307 307 311 308 307 308 310 315 322 321 321 319 317 322 322 326 323 330 329 333 337 333 332 330 332 330 329 329 331 332 334 335
301 301 301 302 302 302 302 302 302 302 303 302 302 302 305 308 310 309 307 307 309 313 314 321 322 322 322 319 319 324 326 323 327 328 330 334 333 331 329 328 328 328 328 328 329 331 336
301 301 301 301 302 302 302 302 302 303 303 303 303 304 307 308 308 307 307 308 310 312 314 317 318 318 320 323 320 321 327 328 326 328 332 332 334 333 329 329 328 327 327 329 329 330 331
301 302 302 302 302 303 303 304 304 303 304 303 303 306 309 309 307 307 307 310 310 311 313 313 314 315 319 322 324 322 325 329 324 326 329 330 331 332 329 329 329 328 328 329 332 331 328
302 303 303 304 304 305 305 305 305 305 306 305 305 310 311 309 307 308 309 311 311 312 311 310 312 315 319 321 321 325 325 328 326 325 330 330 331 330 330 329 330 329 329 329 329 329 329
303 303 304 305 305 305 303 303 303 304 305 306 307 310 312 309 307 309 311 310 310 310 309 309 311 311 313 314 317 320 326 327 328 325 326 329 331 330 330 330 329 330 330 329 330 332 333
303 304 305 305 304 302 302 302 302 303 304 307 310 311 310 309 308 309 310 309 309 308 309 310 309 309 311 315 315 319 323 327 325 328 327 326 330 330 331 330 330 330 331 329 329 330 331
303 304 305 305 303 302 301 301 301 301 304 306 310 313 310 308 310 309 309 308 308 309 309 309 309 309 312 313 315 317 323 324 321 322 327 327 326 331 333 331 330 329 331 332 332 335 332
303 304 305 304 303 302 302 301 301 300 302 305 310 312 310 308 310 309 308 308 307 309 309 308 308 310 310 310 313 316 317 318 319 321 324 326 330 332 333 333 332 331 330 331 331 331 336
303 304 304 304 303 302 302 301 301 300 301 305 310 312 310 308 308 309 308 307 308 308 309 308 308 309 310 310 310 314 315 317 317 319 321 322 328 333 335 335 334 333 330 331 331 333 332
302 302 303 304 304 303 302 301 301 300 300 307 310 310 309 310 309 309 308 309 309 309 308 307 308 309 309 309 310 311 313 313 316 319 321 326 331 331 331 333 333 331 330 331 332 334 334
301 302 302 303 303 302 302 301 301 300 301 307 307 309 308 308 309 309 309 309 309 308 306 306 308 309 308 307 309 311 311 312 315 315 317 322 328 331 333 333 333 333 331 330 330 330 332
301 301 301 302 302 301 301 301 300 300 303 306 306 304 305 307 309 310 310 309 307 308 307 306 308 307 307 308 308 308 308 309 311 313 316 320 325 329 333 333 333 335 333 332 331 331 331
301 301 301 301 301 300 300 300 301 302 304 305 305 304 303 307 308 309 309 309 309 308 307 306 307 308 308 307 307 307 308 310 311 313 314 317 321 326 330 332 336 333 333 332 332 331 332
299 300 301 302 303 303 303 303 304 304 306 305 306 305 302 307 308 309 309 309 309 308 308 308 308 308 307 307 309 310 311 312 312 313 313 316 318 323 330 332 333 333 333 332 332 333 333
305 306 306 306 306 306 306 306 306 305 306 306 306 307 303 303 307 307 309 308 310 310 309 308 308 307 307 308 309 312 313 317 312 312 314 315 317 320 326 330 333 332 331 331 331 332 340
307 307 308 308 308 308 308 307 307 306 307 307 307 308 306 303 304 306 307 310 309 309 310 308 308 308 308 310 311 311 313 314 316 314 314 315 317 319 322 326 330 329 329 329 333 340 336
308 308 309 309 309 308 309 308 307 307 307 307 308 308 307 304 304 306 307 308 308 308 310 308 309 310 311 313 314 315 315 315 315 315 317 316 317 318 320 324 327 323 326 332 333 327 328
310 310 310 309 309 310 309 308 308 307 308 309 308 309 308 307 307 307 308 307 308 308 309 308 308 308 308 310 312 312 312 312 314 315 316 317 318 318 319 321 326 320 321 321 322 323 323

GFSGBSN_850_thetae_033.txt.gz
Theta_e
301 301 301 301 301 301 302 302 302 302 302 302 303 303 303 303 304 304 304 305 305 305 305 306 308 313 311 313 319 326 322 320 320 318 318 319 323 331 334 341 343 344 347 343 343 344 343
300 300 301 301 301 302 302 302 302 302 302 303 303 303 303 303 304 304 304 305 305 305 305 309 308 313 313 317 323 325 321 321 319 319 318 319 324 330 336 339 343 342 345 343 345 343 343
300 301 301 301 301 301 301 302 302 302 302 303 303 303 303 303 304 304 305 305 307 309 309 311 312 311 316 315 323 325 323 322 320 319 318 320 325 327 335 340 342 342 343 347 345 344 345
300 301 301 301 301 302 302 302 302 302 302 303 303 303 303 303 304 305 307 311 312 313 314 314 315 314 318 314 323 324 324 325 323 321 319 320 324 325 327 336 340 342 341 343 345 344 345
301 301 302 302 302 302 302 302 302 302 302 302 303 303 303 303 303 307 311 312 312 311 316 321 318 319 321 322 323 324 322 325 325 324 324 322 324 325 326 332 335 338 342 339 339 340 343
302 302 302 302 302 302 302 302 302 302 302 302 303 303 303 303 304 308 312 313 310 321 318 320 322 321 319 320 326 326 320 320 324 325 327 325 326 325 327 329 335 339 339 337 338 339 341
302 302 302 302 302 302 302 302 303 303 303 303 303 303 303 303 304 310 312 312 309 312 311 309 310 317 314 323 326 326 325 323 321 326 329 329 328 328 328 329 331 337 339 338 337 338 340
302 302 302 302 302 302 302 303 303 304 304 303 303 303 302 304 305 311 313 309 308 308 308 309 310 311 312 319 316 324 326 325 321 326 328 330 331 330 330 329 330 333 337 338 336 335 337
302 302 302 302 302 302 303 303 304 304 305 304 303 303 302 303 307 312 312 308 307 308 308 309 311 310 312 312 314 317 324 325 321 324 328 332 333 333 334 331 330 331 334 335 336 334 333
302 302 302 302 303 303 303 304 304 304 306 307 304 303 303 304 308 309 309 307 307 308 308 312 314 315 315 313 315 319 322 325 324 323 329 332 332 334 333 333 331 331 332 335 336 335 334
302 302 302 303 304 304 305 306 306 306 307 308 307 304 303 307 308 310 308 307 307 309 311 315 315 316 313 314 317 317 324 322 324 324 328 332 334 334 334 333 332 333 331 333 334 334 330
302 302 303 304 305 306 306 305 304 305 307 308 309 306 304 307 308 308 307 307 308 309 312 313 312 312 312 313 317 317 319 322 324 324 326 330 335 334 334 332 333 332 332 328 331 331 330
303 303 304 305 306 305 303 303 303 304 305 308 309 307 307 308 307 308 308 308 308 309 312 313 311 310 310 314 317 318 318 322 323 322 324 329 330 334 332 332 330 330 327 325 325 328 328
303 303 304 305 306 303 302 302 303 303 303 307 309 309 309 310 309 309 308 309 310 311 311 311 310 310 311 312 313 314 318 320 325 322 326 329 329 330 333 329 327 327 326 321 324 325 325
303 304 305 305 304 302 302 303 303 303 303 305 310 311 311 312 310 309 308 310 309 310 310 309 308 309 310 311 311 313 316 320 323 323 324 327 328 329 331 331 328 325 325 323 323 326 324
303 304 305 305 304 303 303 303 302 302 303 304 309 313 311 310 309 309 309 310 309 309 309 309 308 309 309 311 312 313 314 320 320 319 322 323 324 329 331 331 328 326 324 323 323 325 326
303 304 305 305 305 304 303 303 302 301 302 303 310 312 311 309 309 309 309 309 308 308 308 308 309 308 308 311 312 311 314 316 318 317 318 320 322 322 328 331 331 325 326 324 323 323 324
302 303 304 304 304 304 304 303 302 302 300 302 309 312 312 310 309 310 308 308 308 307 309 309 309 307 308 309 310 310 314 315 314 315 316 320 321 323 324 328 329 327 326 325 325 324 324
302 302 302 303 303 303 303 303 302 301 300 302 309 311 312 310 309 309 309 308 308 309 309 308 308 307 308 310 312 312 313 313 312 313 313 318 321 325 323 323 325 327 326 326 324 325 326
301 301 301 302 302 302 302 302 301 301 300 304 310 311 310 309 309 309 309 308 309 308 309 308 307 307 309 310 309 311 311 311 311 312 314 316 320 323 326 325 326 328 328 326 326 327 327
301 301 301 301 301 301 301 301 301 300 300 306 308 310 309 309 309 308 310 309 309 309 309 308 307 308 307 308 307 310 310 310 309 310 312 312 319 324 328 328 329 330 328 328 327 326 328
301 301 301 301 301 300 300 300 300 301 301 306 308 306 305 305 307 308 310 310 310 310 308 307 307 307 307 307 308 308 309 309 310 310 310 310 317 323 331 330 329 331 329 329 328 328 328
300 299 300 301 303 303 304 303 303 303 305 305 307 306 304 306 307 308 309 310 310 309 309 308 307 306 308 308 308 308 307 307 308 309 309 311 315 320 330 331 333 334 332 329 329 328 328
300 303 306 306 306 306 306 305 305 305 306 305 306 306 303 306 306 307 307 308 310 310 310 309 308 308 308 308 308 308 308 308 308 309 310 311 313 319 327 330 335 331 331 333 329 330 328
305 307 307 307 307 307 306 306 305 306 306 306 306 307 304 304 305 306 307 308 309 309 310 309 308 307 308 308 308 307 309 310 310 310 311 311 313 318 327 330 332 332 330 329 331 335 335
308 308 308 308 308 309 308 307 307 307 307 307 307 307 305 302 305 306 306 307 308 310 309 309 309 308 308 308 309 309 312 312 316 312 312 312 313 318 322 331 336 324 325 328 330 338 332
308 309 309 310 310 309 309 309 308 308 308 307 307 308 307 303 304 306 308 308 308 308 309 309 309 309 308 309 311 312 313 314 315 317 314 314 315 318 320 325 329 323 325 329 337 335 328
309 310 310 310 310 309 309 308 308 308 308 307 308 308 308 306 306 306 306 307 307 307 310 309 309 309 310 311 312 312 314 313 313 315 313 316 318 318 320 325 329 320 322 329 328 322 323
311 311 311 309 308 307 308 309 310 309 308 308 309 309 309 308 307 308 308 308 308 307 308 309 308 308 308 310 310 310 310 313 312 317 313 317 315 317 318 322 318 319 319 319 319 320 319

GFSGBSN_850_thetae_036.txt.gz
Theta_e
301 302 302 302 303 303 303 303 303 303 303 303 304 304 304 304 304 305 305 305 306 308 309 308 306 309 313 311 314 324 321 320 319 316 317 317 321 323 329 335 340 345 346 348 348 346 343
301 302 302 302 303 303 303 303 303 303 303 304 304 304 304 304 304 305 307 310 311 312 312 312 311 312 312 313 318 321 322 322 320 316 317 317 321 326 328 331 338 342 343 344 345 343 342
302 302 302 302 302 303 303 303 303 303 303 303 304 304 304 304 305 305 310 312 312 310 311 311 313 314 314 311 316 324 323 322 320 319 317 317 323 324 326 331 333 335 341 342 344 343 343
302 302 302 302 302 303 303 303 304 304 304 304 304 304 304 304 305 306 311 312 311 313 316 317 320 317 314 312 315 317 323 323 325 320 319 319 319 322 323 327 326 337 338 344 344 344 343
302 302 302 302 303 303 303 304 304 305 306 306 305 305 305 304 305 307 312 311 309 313 314 309 320 322 318 316 319 323 322 323 326 321 319 318 318 320 323 322 323 330 336 340 342 344 344
302 302 302 302 303 303 304 305 306 307 308 308 307 306 307 305 304 309 312 309 307 310 315 310 320 319 317 317 322 323 324 323 325 321 320 319 319 318 321 320 326 331 336 337 339 338 343
302 302 302 303 303 303 304 305 306 307 308 308 308 307 306 306 305 311 311 308 307 307 306 306 307 311 310 309 309 320 322 324 326 322 321 321 320 321 321 322 325 330 333 337 336 336 336
302 302 302 303 303 304 305 306 306 306 308 308 308 308 307 306 305 311 311 307 307 306 306 309 310 309 309 311 309 317 319 323 322 323 322 325 324 322 324 323 325 328 330 335 337 337 333
302 302 303 304 304 305 305 305 304 305 307 307 308 309 308 307 306 308 307 307 307 307 305 308 311 312 312 311 310 312 314 321 321 320 323 327 328 327 327 327 327 327 328 330 335 335 332
302 303 304 304 305 305 303 303 303 304 305 307 308 309 309 307 307 306 306 307 308 307 304 309 312 312 310 312 312 314 314 316 323 320 321 324 328 328 329 329 328 327 328 329 332 333 335
303 303 303 304 306 303 302 303 303 304 304 304 307 308 309 306 306 307 307 308 309 308 308 313 311 311 309 312 312 314 315 315 320 322 319 324 326 329 329 330 330 329 327 328 330 331 331
303 303 304 305 305 303 303 303 304 304 304 304 306 309 309 307 308 307 308 308 309 306 310 311 310 309 308 310 311 312 312 314 319 320 321 321 328 328 330 330 331 330 329 329 329 328 331
304 304 305 305 305 304 304 304 304 304 304 304 308 310 310 309 310 309 308 308 304 306 310 310 307 308 307 310 310 311 312 314 316 320 322 323 323 326 331 331 331 331 328 331 331 330 331
303 304 305 305 305 305 304 305 305 304 304 304 307 311 311 310 310 309 309 304 308 309 309 307 307 307 308 309 310 311 311 311 318 315 318 322 323 324 327 331 333 331 328 330 333 327 329
302 303 304 305 305 305 304 304 304 304 304 303 306 312 311 310 310 310 309 305 307 306 307 307 307 307 307 310 310 310 310 312 315 314 316 319 322 324 326 329 332 327 331 321 319 319 320
302 302 303 303 304 304 304 304 303 303 303 303 304 312 311 311 310 309 304 307 307 306 307 307 306 307 306 309 310 310 311 312 313 313 312 314 320 322 324 328 329 329 323 324 316 322 323
302 302 302 302 302 302 302 303 303 302 302 302 304 311 312 312 311 308 303 304 306 308 308 307 308 308 306 308 309 310 310 310 313 312 312 312 316 321 322 327 328 326 326 322 321 317 321
300 301 301 301 302 302 302 302 302 301 301 301 305 306 312 312 307 304 303 306 308 308 308 307 308 307 306 309 309 309 310 311 310 311 312 313 316 321 321 321 324 328 323 321 322 320 318
301 301 301 301 301 301 301 301 301 301 300 301 307 310 311 309 305 304 305 309 308 308 308 308 307 306 306 309 310 310 310 310 310 311 312 313 317 318 321 318 320 321 327 322 317 317 320
301 301 301 301 301 300 300 300 300 300 301 302 308 305 309 308 307 306 306 308 308 309 308 307 306 305 306 307 308 310 310 309 308 308 310 312 309 314 320 321 321 322 323 323 323 323 321
300 300 299 300 302 304 304 304 304 303 303 304 308 305 306 305 306 305 305 307 310 310 308 307 305 307 305 305 306 309 308 308 307 309 310 309 309 310 314 317 321 323 326 327 323 323 324
300 299 301 305 306 306 306 305 305 305 305 304 307 306 305 305 305 305 305 308 310 310 309 307 307 307 304 304 306 307 307 307 308 308 308 308 308 310 314 324 326 327 328 328 324 325 323
299 302 307 307 306 306 306 306 305 306 305 305 305 306 305 305 305 305 307 307 307 308 309 309 309 307 306 306 307 307 308 308 307 308 308 308 307 309 317 323 329 331 327 328 325 324 325
302 307 307 307 307 307 307 307 306 306 306 305 306 305 304 306 306 307 307 306 308 308 309 309 308 307 308 307 308 308 307 307 307 307 308 309 308 308 317 322 332 325 323 326 333 330 328
308 307 308 308 308 309 309 309 308 307 307 307 306 306 305 304 305 306 307 308 306 307 309 309 308 308 307 308 305 306 307 308 309 308 308 309 308 309 319 324 328 325 322 323 326 329 324
308 308 309 309 309 310 309 309 308 308 307 307 307 307 307 303 305 305 306 306 307 309 309 308 309 307 308 304 305 308 312 314 317 316 309 311 310 309 314 326 331 323 321 326 327 329 323
309 309 310 310 309 308 307 307 307 307 307 307 307 307 308 304 305 306 306 306 305 306 307 308 307 308 308 309 310 313 314 314 316 318 314 313 313 315 319 327 324 320 319 323 329 328 321
310 310 310 309 306 307 309 310 311 309 308 308 308 308 308 307 307 307 307 306 307 307 308 308 309 307 306 309 310 310 312 312 313 313 315 317 318 317 321 324 327 319 319 319 318 317 317
311 309 306 307 310 311 312 312 310 309 308 308 309 309 309 308 308 308 309 309 309 308 307 308 307 306 308 305 307 308 310 311 311 315 312 315 314 316 316 319 316 317 317 316 316 317 317

GFSGBSN_850_thetae_039.txt.gz
Theta_e
302 302 302 302 303 303 303 303 304 304 305 305 305 305 305 305 305 305 307 311 311 312 310 311 310 312 310 310 311 317 321 320 318 313 314 323 325 326 328 331 337 346 348 347 350 350 348
302 302 302 302 303 303 303 304 306 307 307 307 306 306 306 305 305 306 309 311 310 308 314 310 312 312 312 310 312 321 319 323 317 314 315 322 327 324 326 329 337 340 343 345 344 345 345
302 302 302 302 303 303 304 305 306 306 307 308 308 308 307 307 305 306 310 311 310 308 313 311 309 316 315 312 313 322 320 321 318 316 316 316 318 326 324 328 330 331 338 334 339 342 342
302 302 303 303 303 304 304 305 306 307 308 308 309 309 308 307 306 306 310 310 308 308 314 315 309 317 315 313 311 315 316 323 320 314 317 317 317 324 323 325 324 332 331 335 337 341 342
302 303 303 303 303 304 305 305 306 306 307 308 308 308 309 308 307 306 310 310 307 308 315 308 314 319 317 318 313 317 316 319 322 319 317 317 317 318 322 322 321 322 332 338 339 339 343
302 303 303 304 304 305 305 305 305 306 307 308 308 308 308 309 308 307 310 308 308 308 308 309 313 314 312 310 311 316 317 319 324 325 319 318 318 315 316 318 328 325 332 334 335 337 343
302 303 303 304 304 305 305 304 305 305 306 306 307 307 308 308 308 307 309 306 307 307 306 306 308 307 310 310 312 312 314 319 324 323 316 317 315 317 316 320 323 327 332 336 335 335 339
302 303 303 304 305 305 303 303 304 304 304 304 305 306 307 307 309 307 307 307 308 307 304 309 310 309 309 310 310 312 314 317 322 319 319 317 318 317 318 319 321 322 325 330 332 333 333
302 303 303 304 305 303 303 303 303 303 304 304 304 306 307 309 308 306 307 308 308 308 304 307 310 309 309 311 311 312 313 314 315 322 320 322 322 320 321 320 321 322 323 326 331 331 333
303 303 304 305 305 304 304 304 304 304 304 304 306 307 310 309 307 307 308 308 308 308 302 307 310 309 309 311 311 311 312 314 315 320 322 321 323 324 321 323 322 322 323 326 328 331 332
304 304 304 305 305 305 305 305 305 304 304 304 305 308 310 308 309 308 308 308 309 308 306 311 308 309 309 309 310 311 311 314 314 314 316 322 323 324 324 324 324 325 324 326 327 327 329
304 304 304 305 305 305 305 304 304 304 304 304 304 308 310 309 309 309 308 309 308 305 307 310 308 307 307 308 310 310 310 313 314 316 316 317 320 323 324 326 326 326 325 325 326 324 329
303 303 304 304 305 304 304 303 303 303 303 304 304 310 311 310 309 310 309 309 304 305 308 307 306 306 306 308 309 309 309 315 314 317 317 319 319 320 324 326 326 327 324 326 328 327 332
302 302 302 302 303 303 303 303 303 303 303 303 304 311 310 311 311 310 309 304 308 307 307 306 306 306 306 308 309 309 308 311 313 313 314 316 322 321 321 326 327 328 327 327 330 331 332
301 301 302 302 302 302 302 302 302 302 302 302 303 309 311 310 310 310 309 304 306 305 306 306 305 306 306 309 308 308 308 310 314 313 314 315 318 315 322 323 328 328 330 325 322 317 323
301 300 300 301 301 301 301 301 302 302 301 301 302 305 311 312 312 310 303 305 305 307 306 306 306 307 306 307 308 308 309 309 311 311 311 313 315 315 319 322 325 329 325 328 319 326 326
301 301 301 300 301 301 301 301 301 300 300 301 302 306 311 310 309 307 302 302 305 308 307 307 307 307 306 306 308 309 308 309 310 309 310 312 313 317 319 320 322 325 327 328 327 319 327
300 301 301 301 301 300 300 300 300 301 301 301 302 301 310 309 306 302 302 303 307 307 308 307 307 306 306 308 308 307 310 310 310 311 311 311 315 319 321 318 317 324 324 319 331 326 316
300 300 300 299 300 303 305 306 305 305 303 302 304 307 309 309 305 303 304 307 308 307 307 308 307 305 305 307 307 309 309 309 310 309 310 310 317 314 319 318 319 320 326 321 321 316 320
300 300 299 300 305 306 306 306 306 306 305 303 306 303 308 307 307 304 304 307 308 309 308 307 306 305 305 306 305 307 308 309 309 308 310 311 313 311 316 317 314 317 319 323 320 319 322
300 299 300 306 307 307 306 306 306 306 306 304 307 303 306 301 303 303 304 305 308 310 309 308 305 306 305 303 304 304 307 308 308 309 309 309 311 308 310 310 311 313 315 318 319 321 322
300 301 305 307 307 307 307 307 307 306 306 305 306 306 305 304 305 304 305 306 308 308 308 309 309 309 308 302 303 304 305 306 308 308 308 308 311 308 310 312 312 315 320 324 324 321 320
302 306 307 307 308 308 308 308 307 307 305 305 305 305 305 306 306 306 307 308 308 307 309 309 308 308 307 306 306 306 306 306 307 309 308 308 309 308 311 316 322 325 323 326 326 325 325
308 308 308 308 308 309 309 309 308 307 306 306 306 306 305 307 307 307 307 307 308 308 308 308 308 307 308 307 308 307 306 306 307 307 307 309 308 306 309 316 331 321 320 322 327 325 325
308 308 308 309 310 309 309 308 308 308 307 306 306 307 306 305 305 306 307 308 306 306 307 308 308 308 308 307 303 304 308 310 307 307 307 307 308 308 312 320 325 323 321 321 322 325 322
308 309 310 310 309 307 306 306 307 307 307 306 307 307 307 305 306 305 306 306 307 307 307 307 308 307 308 307 305 309 311 314 312 312 308 309 308 313 309 327 330 322 320 318 322 325 319
309 310 309 306 306 309 310 311 310 308 308 308 307 308 308 305 306 306 307 306 305 305 304 306 308 307 307 307 309 311 312 310 317 315 313 314 314 314 314 327 324 319 318 318 322 321 318
310 306 307 311 311 311 311 311 309 308 308 308 308 309 308 307 308 308 307 307 307 306 307 307 304 307 305 308 309 309 310 311 313 311 313 314 316 319 323 325 327 317 318 318 315 316 316
307 310 312 311 311 312 312 311 309 308 308 308 309 309 309 308 308 308 309 308 308 309 307 307 307 306 307 307 307 307 311 311 310 312 311 314 311 315 316 318 315 317 317 313 312 312 313

GFSGBSN_850_thetae_042.txt.gz
Theta_e
302 302 303 303 304 305 306 306 307 308 308 308 308 309 308 307 306 306 306 310 310 309 307 312 310 310 311 310 309 312 317 321 320 314 318 323 334 330 335 341 339 349 349 348 350 348 348
302 303 303 304 305 305 305 306 306 306 307 308 308 308 309 308 308 307 306 309 309 307 308 311 313 309 312 310 310 317 319 319 320 316 319 321 333 331 330 331 338 340 342 345 344 345 344
303 303 303 304 304 305 305 305 305 306 306 307 308 307 308 308 308 308 307 309 309 307 308 312 308 312 314 313 313 315 314 323 319 314 315 319 322 328 323 326 331 335 336 334 333 339 342
303 303 303 304 305 305 305 304 305 305 306 306 307 307 307 308 308 308 308 309 308 307 308 307 311 314 315 315 314 315 315 316 321 313 315 321 323 323 322 323 322 327 331 334 335 335 339
303 303 304 304 304 304 304 303 304 304 304 305 305 306 307 307 307 309 308 308 307 307 307 310 311 314 313 312 311 313 315 318 321 314 315 317 320 318 322 321 321 320 334 334 338 337 341
302 303 303 303 304 304 303 303 303 303 303 304 304 305 306 307 308 308 307 307 307 307 308 311 310 312 311 309 311 312 313 318 321 318 316 317 317 313 313 318 325 326 327 333 338 336 340
303 303 303 304 305 304 303 303 304 304 304 304 305 306 307 309 309 307 306 307 308 308 308 306 308 308 309 309 311 312 314 320 324 321 317 316 314 315 316 319 323 325 330 333 334 334 341
303 303 304 305 305 305 305 305 305 304 304 304 304 306 308 311 309 306 307 307 307 308 306 308 309 309 308 309 310 310 313 317 320 319 315 314 315 315 314 315 319 321 322 326 329 333 335
304 304 304 305 305 305 305 305 304 304 304 304 304 305 308 309 307 307 308 308 308 308 304 307 309 308 308 310 310 309 312 314 313 319 317 316 316 316 316 317 316 318 321 322 329 330 332
303 304 304 305 305 305 305 304 303 303 303 304 304 304 309 308 307 308 308 309 309 308 301 307 308 308 308 310 308 309 309 313 313 317 319 318 319 319 316 317 317 316 319 323 324 328 331
302 302 303 303 304 304 303 303 303 303 303 303 304 304 310 308 308 309 309 309 309 307 306 310 307 308 308 308 308 308 310 313 314 314 314 319 321 321 320 317 318 318 319 321 323 325 327
301 302 302 302 302 303 303 303 302 302 303 303 303 305 310 310 309 309 309 309 307 303 307 309 307 306 306 307 309 309 310 312 314 315 315 314 316 317 321 321 319 322 323 321 323 322 328
301 301 301 301 302 302 302 302 302 302 302 303 303 304 310 310 310 310 309 308 303 304 306 306 306 305 306 307 308 307 311 312 312 312 315 316 317 316 317 320 321 323 322 323 325 326 330
301 301 300 300 301 301 301 301 302 301 301 302 303 303 310 310 310 309 309 303 307 306 306 305 305 305 306 307 307 308 307 312 312 311 313 314 318 318 317 318 322 323 323 323 327 327 328
301 301 301 301 301 301 301 301 301 301 303 303 303 303 310 311 311 310 309 303 305 304 305 306 304 305 305 307 307 307 307 311 312 311 313 313 316 313 316 317 321 323 325 322 323 318 323
304 302 301 301 301 300 300 301 305 308 309 307 304 303 310 309 311 310 304 305 304 306 306 305 305 306 306 305 307 307 307 308 311 311 309 312 314 313 315 318 319 323 323 326 321 331 324
309 300 300 300 300 301 305 306 307 308 309 309 303 304 309 307 308 307 303 301 304 307 307 306 305 305 305 306 307 308 307 309 309 310 309 310 313 314 314 318 320 321 327 326 325 321 329
306 300 300 299 301 306 307 306 306 307 309 308 303 297 306 309 306 301 302 303 306 306 307 306 305 304 305 306 307 306 308 309 310 310 311 311 313 315 315 316 317 316 321 324 330 326 318
309 300 299 300 306 307 307 307 307 307 307 306 304 305 306 307 304 302 303 305 307 307 306 307 307 305 304 305 306 307 308 309 310 310 310 309 311 315 315 315 313 317 320 321 318 326 328
302 300 300 304 307 307 307 307 307 307 307 306 305 302 305 305 304 303 304 305 307 308 309 309 306 305 304 305 305 305 307 310 310 308 309 310 311 312 314 315 312 312 313 319 319 326 329
302 301 304 307 307 307 307 307 308 307 307 305 305 302 304 302 302 304 305 304 307 309 308 308 307 308 308 305 303 304 305 306 308 308 309 307 312 311 310 311 311 311 312 313 315 318 326
303 306 307 307 307 307 308 308 307 307 305 305 306 306 305 304 305 305 305 307 307 308 308 309 309 309 308 309 307 305 304 303 305 307 308 308 310 312 310 309 310 311 313 314 315 318 318
308 308 308 308 308 308 309 308 307 306 306 305 305 305 304 306 306 306 307 307 307 307 307 307 309 309 310 308 307 305 304 304 304 307 308 308 310 310 309 311 313 315 317 323 325 325 324
308 308 308 309 309 309 308 307 307 307 306 306 306 306 306 307 306 307 307 307 308 308 308 306 307 307 307 308 307 307 305 304 304 305 306 308 309 309 310 310 325 322 320 324 323 321 323
309 309 309 307 306 306 306 307 307 307 307 306 307 307 306 305 306 307 308 307 307 306 307 307 307 308 308 307 306 301 303 305 304 306 307 307 308 310 310 313 324 323 320 320 322 322 318
310 308 306 308 311 311 311 311 309 308 307 307 307 307 307 306 307 307 307 307 307 306 307 307 306 307 307 306 307 309 308 311 310 308 308 308 307 310 312 317 333 321 318 318 319 324 318
308 308 311 311 311 311 311 310 308 307 308 307 308 308 307 306 307 307 307 307 306 305 305 304 306 306 306 307 308 309 310 307 312 313 311 311 310 309 314 318 324 317 318 316 325 321 315
309 311 311 311 311 311 311 310 308 308 308 308 308 309 308 308 308 308 308 307 307 306 306 307 305 306 306 308 309 308 310 310 312 309 312 313 314 319 319 327 329 317 315 318 314 313 313
311 311 311 311 312 311 311 311 309 308 308 308 309 308 308 308 307 308 308 308 308 308 308 305 306 307 306 307 307 307 310 309 310 313 310 313 311 312 313 317 311 315 312 312 312 312 312

GFSGBSN_850_thetae_045.txt.gz
Theta_e
303 303 303 304 305 305 305 305 305 305 306 306 306 307 307 307 308 308 308 308 309 309 308 309 312 310 309 310 309 315 319 319 315 316 328 326 332 333 332 338 343 349 350 350 349 349 348
303 303 304 304 305 305 304 304 305 305 305 305 306 306 307 307 307 308 308 309 309 308 308 309 309 312 311 312 312 313 317 318 317 323 327 326 326 330 332 340 338 339 345 348 345 347 346
303 303 304 304 304 304 304 304 304 304 304 304 304 305 306 307 307 307 309 309 308 308 308 308 311 314 315 314 311 313 314 320 316 322 325 328 326 326 326 327 333 336 341 337 339 339 344
303 303 303 303 304 304 303 303 303 303 303 303 304 305 306 307 307 308 309 309 308 308 308 311 313 315 316 310 311 313 315 316 318 322 322 325 324 328 323 324 324 327 331 332 338 340 340
303 303 303 304 305 304 303 304 304 304 304 304 303 304 306 308 309 309 309 308 307 308 310 312 311 312 310 311 312 313 315 316 321 325 317 318 321 321 322 326 327 328 326 329 334 339 344
303 303 304 304 305 305 305 305 305 304 304 304 304 304 306 310 310 308 308 308 308 309 309 311 310 311 310 309 311 312 315 317 321 319 317 317 320 320 321 323 323 327 327 335 334 342 342
304 304 304 304 305 305 305 305 304 303 303 304 304 304 305 310 307 306 307 308 308 309 308 307 308 308 308 310 311 310 317 321 320 316 316 318 318 321 320 321 322 327 331 330 336 339 343
303 304 304 304 305 305 305 304 303 303 303 303 303 303 305 310 307 307 308 308 308 308 309 308 308 308 308 310 311 309 316 319 323 323 317 317 318 318 318 317 321 322 327 330 333 333 341
302 302 303 303 303 303 303 303 303 303 303 303 303 303 306 309 308 307 308 308 309 308 306 307 308 308 308 310 310 309 311 313 319 323 322 321 320 318 317 317 318 321 322 327 329 329 334
302 301 302 302 302 302 302 302 302 302 302 303 303 303 308 309 308 308 308 309 309 308 308 310 309 308 308 309 309 308 310 313 315 320 323 323 323 319 318 319 318 319 319 322 327 329 337
304 302 301 301 301 301 301 301 302 302 302 302 303 303 309 309 309 308 309 309 308 306 310 310 308 307 307 309 309 309 309 313 315 317 318 324 324 324 323 321 319 319 319 319 320 327 330
313 304 301 301 301 301 301 302 302 301 302 304 304 302 308 309 309 309 309 308 307 309 309 309 307 307 308 309 309 308 312 312 314 316 318 318 317 320 324 324 319 320 320 321 321 321 325
321 307 302 302 301 301 301 301 301 305 309 309 309 303 308 310 310 309 309 308 309 309 308 308 307 307 308 308 308 309 313 314 315 311 316 314 316 318 319 322 322 322 323 326 325 325 322
320 308 308 301 301 300 300 303 308 309 309 309 309 304 307 309 310 310 309 309 310 308 308 307 307 307 307 308 308 308 311 313 313 314 316 315 311 319 316 321 323 324 324 325 327 326 322
319 313 301 300 300 299 304 308 308 308 308 309 307 303 310 308 310 311 309 309 309 307 307 307 306 307 307 308 307 308 310 314 313 313 313 315 316 315 315 316 319 323 326 324 324 327 327
317 309 301 300 299 303 308 308 308 308 308 308 306 306 308 307 308 310 311 309 308 307 307 307 307 307 307 307 307 308 308 311 312 311 311 313 307 312 315 315 319 321 323 327 326 327 327
316 310 301 299 301 307 308 308 308 308 308 307 305 305 306 308 308 307 310 308 306 307 308 308 307 307 307 307 308 308 307 310 311 311 310 311 310 307 310 315 321 323 323 326 327 328 328
314 304 300 301 306 307 307 308 309 308 308 308 305 304 305 308 310 305 309 307 306 307 307 308 307 307 307 307 308 308 308 307 310 311 311 311 312 311 308 309 312 314 319 324 330 332 330
307 302 301 306 308 308 308 308 308 308 308 307 304 304 305 308 310 309 306 307 307 308 309 309 308 307 307 307 307 308 308 309 310 310 311 312 311 309 306 310 313 315 317 319 324 328 333
304 303 307 308 308 308 307 308 308 308 308 306 305 308 306 305 304 305 304 307 308 307 309 309 309 307 306 306 307 307 308 311 310 309 310 310 311 309 307 309 314 315 317 317 321 328 331
306 308 308 308 308 308 308 308 308 307 307 306 305 305 304 308 307 305 305 305 308 309 309 309 310 308 309 309 307 307 307 307 310 309 310 310 310 309 310 309 310 311 313 314 316 322 330
309 308 308 309 309 308 308 308 307 306 305 306 306 306 304 305 304 305 305 307 307 307 307 308 309 309 309 311 309 309 307 308 308 309 310 309 310 309 309 307 309 312 313 314 315 317 322
309 309 309 307 306 306 306 306 307 306 306 306 305 305 305 306 306 306 308 307 308 308 307 307 308 304 307 308 307 308 308 307 307 308 309 310 309 309 309 308 312 316 314 315 317 320 322
310 309 307 307 309 310 310 309 308 307 306 307 306 306 306 307 306 307 307 307 308 308 308 307 308 307 306 307 307 308 308 308 307 308 308 309 309 309 309 309 317 317 322 317 325 325 326
309 307 310 311 311 311 311 310 308 307 307 307 307 307 306 307 307 307 307 307 308 307 306 306 307 307 307 307 309 308 307 308 308 309 309 308 309 310 311 315 316 325 323 323 328 324 321
308 310 311 310 310 311 310 309 308 308 308 307 307 307 307 306 308 307 307 307 307 306 306 306 306 306 307 308 310 310 310 310 310 309 308 309 309 310 310 315 323 323 319 319 322 330 318
310 311 311 311 311 311 311 309 308 308 308 308 308 308 307 306 307 307 308 308 307 306 305 306 306 307 306 308 310 310 311 307 313 310 309 311 310 310 310 312 312 317 318 318 331 325 315
311 311 311 312 312 312 311 310 309 309 308 308 308 309 308 308 307 307 308 307 307 307 307 306 307 307 307 309 311 310 311 311 312 309 311 310 311 311 311 313 315 312 317 322 317 314 315
311 311 312 312 312 313 312 311 309 309 309 309 308 308 307 308 308 308 308 308 308 308 308 307 307 307 307 307 308 308 310 310 312 313 309 313 309 312 311 312 307 312 313 313 313 314 314

GFSGBSN_850_thetae_048.txt.gz
Theta_e
303 304 304 304 304 304 304 304 304 304 304 304 304 305 306 306 307 307 307 309 309 309 308 308 309 312 309 316 313 315 318 318 319 326 333 331 332 332 333 334 336 343 347 350 348 348 348
303 304 304 304 304 304 303 303 303 304 304 304 304 304 306 306 307 307 307 309 309 309 308 308 312 312 316 317 315 315 317 320 323 330 332 328 330 328 329 330 333 334 338 348 348 349 348
303 303 303 304 305 304 304 304 304 304 304 304 304 304 305 307 308 308 308 309 309 308 308 311 314 315 316 313 313 314 317 325 326 327 329 325 326 327 325 329 331 333 340 339 343 345 348
303 303 304 304 305 305 305 305 305 304 304 304 304 304 304 307 310 310 309 308 308 308 310 313 314 317 315 312 313 313 316 324 326 328 326 326 324 325 324 325 324 329 329 337 341 342 344
304 304 304 305 305 305 305 305 305 303 303 303 304 304 304 306 310 310 308 308 308 309 311 312 315 317 314 312 312 313 314 322 323 324 323 324 324 326 327 325 325 326 328 332 339 342 346
303 304 304 304 305 305 305 304 304 303 303 303 303 304 304 308 310 308 308 308 308 310 310 312 311 316 312 312 311 314 318 323 324 325 319 319 322 324 325 325 326 326 327 331 334 343 347
303 302 303 303 303 303 303 303 303 303 303 303 303 304 304 309 307 307 308 310 314 312 311 311 311 312 311 312 312 315 318 323 323 326 324 319 323 324 323 324 324 327 329 330 335 339 346
305 303 302 302 302 302 302 302 302 302 302 303 303 303 304 310 307 307 310 311 310 309 313 309 309 310 310 311 314 313 319 324 321 325 323 321 321 322 324 323 324 324 329 333 334 336 343
316 308 304 302 301 301 301 301 302 302 302 302 303 303 304 310 308 308 309 309 309 309 312 310 310 311 310 312 312 311 315 318 325 323 322 323 323 321 321 322 322 324 324 326 332 334 335
322 319 310 303 302 302 301 302 301 301 302 306 307 305 304 309 309 308 310 309 309 308 315 313 312 310 310 312 313 310 312 316 320 326 325 323 323 322 321 322 322 323 323 323 324 331 338
322 320 313 306 304 301 301 301 301 306 309 310 309 309 303 309 309 311 309 308 308 307 313 313 312 309 310 312 311 311 312 314 319 321 324 326 324 325 324 323 323 323 323 322 322 324 332
322 320 313 309 301 301 300 302 308 309 308 308 309 309 303 310 310 310 309 308 307 314 313 312 310 311 312 311 311 310 312 313 315 316 321 323 322 323 325 325 324 323 323 323 323 323 323
320 319 311 303 301 300 303 309 309 308 308 308 308 308 303 309 312 310 309 309 313 313 312 312 311 311 311 312 311 311 314 315 316 314 317 319 321 323 323 326 326 325 325 327 327 325 324
320 318 308 302 300 301 308 309 309 308 308 308 306 304 307 309 310 310 310 313 313 312 312 310 310 310 311 311 312 311 313 315 314 316 316 316 317 319 320 323 327 326 326 330 332 328 325
319 317 307 301 300 307 308 309 309 308 308 307 306 307 309 308 310 310 312 313 313 312 311 311 311 311 312 311 311 311 312 314 314 314 314 316 315 318 318 320 323 326 328 327 330 330 330
318 314 302 300 305 308 308 309 309 308 307 308 306 309 308 307 308 310 313 311 312 311 310 311 312 312 313 312 311 312 311 313 312 312 311 315 312 313 315 316 319 324 326 328 328 331 332
316 305 301 303 308 309 309 309 309 308 307 309 308 311 307 308 309 312 315 315 312 310 310 311 312 312 312 312 311 312 312 312 312 312 311 312 311 313 311 312 317 322 324 326 328 329 331
305 302 304 307 308 309 309 309 309 308 308 310 309 311 308 310 314 313 315 312 308 311 310 311 310 311 311 311 311 312 312 311 311 311 311 312 313 314 312 312 313 314 322 325 328 330 330
305 308 308 308 308 308 309 309 308 307 308 308 311 309 309 312 316 315 312 311 310 311 312 312 311 311 311 311 311 310 310 309 310 310 311 312 312 313 311 311 312 313 315 320 324 327 331
309 309 308 308 308 308 307 307 306 307 308 308 311 315 312 310 308 309 309 310 311 309 311 311 312 311 311 311 310 310 309 310 310 309 310 309 310 311 311 312 311 314 316 318 322 326 328
309 309 308 308 306 306 306 306 307 307 308 309 310 311 308 310 309 309 309 309 309 310 310 309 311 311 312 312 312 310 309 309 309 309 311 311 314 311 311 310 310 310 310 314 319 322 325
309 309 307 307 309 310 310 309 309 309 308 309 311 310 307 307 306 309 309 310 310 309 309 309 310 310 310 312 312 311 310 310 310 311 311 311 313 311 311 310 310 310 309 310 313 316 320
309 308 309 310 311 311 311 310 309 308 308 309 306 306 307 306 308 309 309 309 309 308 308 308 309 309 308 309 309 309 310 310 311 311 312 312 313 312 311 309 309 309 310 311 312 315 318
308 310 310 310 310 310 311 310 308 307 308 308 307 306 308 310 309 309 309 309 308 309 309 308 308 309 309 308 309 309 309 310 310 310 309 312 312 313 311 309 311 310 311 312 313 314 318
310 311 311 311 311 311 311 309 308 308 308 308 307 307 307 310 308 309 309 309 308 308 308 308 308 308 308 308 310 312 311 310 311 311 310 310 311 311 312 311 310 311 313 317 315 316 318
311 311 311 311 312 312 311 309 308 308 308 308 308 307 307 309 310 309 308 309 309 309 310 309 308 308 308 309 311 312 314 312 311 311 310 310 312 313 312 311 312 314 310 308 319 323 326
311 311 312 312 313 313 312 311 309 308 308 308 308 308 308 309 310 310 309 309 308 308 308 309 309 309 308 310 312 313 313 311 312 313 311 313 314 313 311 312 311 310 309 308 322 328 323
311 312 313 312 313 313 311 311 310 309 308 309 309 308 308 309 310 310 309 310 308 309 309 308 311 310 308 311 312 313 312 312 311 311 311 311 311 312 311 311 312 310 308 316 321 317 316
311 313 314 313 313 313 311 310 310 309 309 309 310 308 308 308 311 310 310 309 309 309 308 309 309 310 308 308 309 309 311 312 312 315 307 312 310 313 311 313 310 305 306 313 314 316 315

GFSGBSN_850_thetae_051.txt.gz
Theta_e
304 304 303 304 304 304 304 304 305 305 304 304 304 304 304 305 307 308 308 308 309 309 309 309 310 312 310 321 319 318 317 319 319 316 336 335 334 335 335 335 339 344 344 349 350 350 350
303 303 304 304 305 305 305 305 305 305 304 304 304 305 305 305 307 309 309 309 309 309 309 309 312 311 321 322 317 317 324 321 326 321 333 333 332 333 332 333 336 337 340 347 350 349 349
304 305 305 305 305 305 305 305 305 305 304 304 304 304 305 305 307 310 310 309 309 309 309 312 314 318 321 318 316 317 323 325 323 325 333 332 331 331 329 331 330 333 337 339 349 349 350
304 304 304 304 305 305 305 305 304 304 304 304 304 304 305 305 307 310 309 309 309 309 311 314 315 324 319 315 316 316 320 326 327 330 333 329 329 328 329 328 327 332 335 344 346 348 347
303 303 303 303 303 303 303 303 303 303 303 303 304 304 305 305 308 309 309 309 308 310 311 314 318 324 318 314 315 316 317 326 328 329 328 329 327 327 328 328 329 327 333 336 339 346 347
310 306 304 303 303 302 302 302 302 302 302 303 303 304 305 305 309 308 309 309 308 311 312 314 319 319 315 316 315 317 318 324 326 328 326 327 326 329 329 330 328 327 329 333 336 344 346
322 318 313 307 304 302 302 302 302 302 302 303 303 304 305 305 309 309 312 315 320 319 315 315 316 316 315 315 315 319 324 325 327 327 325 324 328 327 330 330 329 328 328 331 335 339 346
323 322 321 317 311 307 303 302 302 302 302 303 305 306 305 306 309 309 313 314 313 313 316 313 313 314 313 314 316 318 322 325 324 330 327 325 325 327 327 327 327 327 328 332 333 338 347
322 322 321 318 310 306 302 301 301 304 308 309 309 309 307 308 308 312 312 312 312 313 315 314 314 314 314 314 316 315 318 323 325 327 329 328 326 325 326 327 327 327 327 330 335 336 339
322 321 320 317 311 302 301 300 306 309 308 308 308 309 309 308 310 312 314 312 313 312 318 316 314 313 313 314 316 313 315 319 324 326 324 326 326 325 325 325 327 328 327 326 329 337 341
322 321 320 315 305 302 300 307 309 309 308 307 308 308 309 307 311 314 313 313 312 313 317 316 315 312 313 315 315 314 313 316 321 322 327 327 325 325 325 325 325 326 327 326 325 327 332
320 321 319 310 303 301 305 309 309 308 307 307 307 307 308 312 311 313 312 313 311 315 316 315 314 314 315 314 315 314 314 314 317 320 323 325 326 326 325 325 325 326 326 326 326 326 327
320 320 317 307 301 304 308 309 309 309 307 307 306 305 305 307 315 312 312 313 316 315 317 316 315 315 315 316 316 315 317 317 317 316 317 320 322 326 325 327 327 326 327 329 330 328 326
319 318 312 302 303 308 309 309 310 309 307 308 309 304 307 310 310 311 313 316 316 316 316 315 314 314 314 315 316 315 316 317 317 318 319 319 320 321 323 325 328 328 328 330 333 332 329
318 314 304 302 307 309 309 310 310 308 307 309 308 311 312 310 310 311 314 317 317 317 315 314 314 314 315 315 314 315 316 317 318 317 318 318 319 321 322 323 325 328 330 328 329 331 333
309 304 304 307 309 309 309 309 308 307 308 310 310 312 311 310 310 312 316 316 316 315 313 314 315 316 317 317 315 316 317 317 317 315 315 318 320 320 319 320 322 325 328 330 329 331 334
306 307 309 309 309 309 308 307 307 308 309 311 313 314 312 313 312 314 318 319 317 314 313 315 316 317 317 316 316 316 317 316 315 315 313 315 317 317 317 317 319 319 322 327 329 329 330
309 309 309 309 308 307 306 306 307 309 311 313 315 317 313 314 317 317 320 317 312 315 314 314 314 315 315 316 316 316 316 316 314 314 314 314 315 316 317 317 316 317 320 321 327 332 331
310 309 309 307 307 307 308 308 308 309 310 312 316 315 314 315 319 319 316 315 314 315 315 315 315 315 315 314 315 315 315 314 312 313 313 314 315 315 317 317 316 315 317 321 324 325 331
310 309 307 308 309 310 311 310 310 310 311 313 315 319 316 313 313 315 316 315 315 312 313 313 314 313 314 314 314 314 314 313 311 312 311 311 314 316 317 318 315 317 315 317 321 325 327
309 308 309 310 310 310 311 311 311 311 311 314 314 315 313 316 314 314 314 314 314 313 312 312 313 313 313 315 314 314 314 313 312 311 312 312 313 314 314 314 314 314 315 316 317 320 322
309 310 310 311 311 310 311 311 311 311 312 313 314 313 312 312 312 313 312 312 311 311 310 312 312 312 312 313 313 314 313 315 314 312 312 312 314 314 316 314 313 313 313 314 314 314 319
310 311 311 311 311 311 311 311 310 310 312 311 310 310 312 309 312 312 311 311 311 311 311 310 310 311 311 312 311 311 312 311 313 315 315 314 314 315 316 315 313 313 313 313 313 314 313
310 311 311 312 312 312 311 309 309 309 310 310 310 311 313 315 313 312 311 310 311 311 311 310 310 310 311 309 309 310 310 311 311 312 312 314 316 317 317 314 315 313 313 312 312 313 314
311 311 312 312 313 312 311 309 309 308 309 311 310 312 312 314 311 311 310 311 310 311 311 311 310 309 309 310 313 314 314 312 313 313 313 313 316 318 317 315 313 312 312 312 316 315 317
311 311 313 312 313 312 311 310 309 308 309 312 312 308 310 314 314 311 312 311 311 312 313 311 311 311 311 312 312 314 315 316 314 314 313 313 314 316 315 315 315 313 313 313 312 317 315
311 312 313 312 314 312 311 310 309 308 309 311 310 310 311 314 313 312 312 312 310 311 310 312 311 312 310 311 313 316 315 314 314 314 314 314 317 316 317 315 314 312 312 311 313 315 316
311 313 314 313 313 312 311 311 310 309 309 311 312 310 312 315 314 313 312 311 312 311 313 312 313 312 310 312 314 314 314 314 311 312 315 314 315 316 314 315 316 312 312 313 313 310 310
311 313 314 314 313 313 311 311 311 310 309 312 312 309 309 310 314 314 313 312 312 312 312 311 313 311 309 310 310 309 312 312 312 314 310 315 314 314 314 314 313 311 309 309 307 308 309

GFSGBSN_850_thetae_054.txt.gz
Theta_e
303 304 304 305 305 305 305 305 305 305 305 304 305 305 305 306 306 307 308 309 309 309 309 309 309 311 311 321 324 320 318 320 314 316 328 339 338 338 339 339 339 341 343 344 349 350 353
305 305 305 305 305 305 305 305 305 305 304 304 304 305 305 306 306 307 309 310 310 309 309 309 311 312 313 328 319 318 321 328 323 319 328 339 337 336 336 336 335 338 341 342 347 350 351
303 303 303 303 303 303 303 303 303 303 303 304 304 304 305 305 306 307 309 310 310 309 309 312 313 316 327 325 317 318 321 327 326 322 326 336 335 334 334 334 332 333 337 338 340 350 350
310 307 305 304 304 303 303 303 303 303 303 303 303 304 304 305 306 308 309 310 310 310 311 314 316 322 330 317 317 317 321 326 326 324 325 333 333 332 332 332 330 330 333 337 339 349 350
323 321 318 313 309 307 306 305 304 303 303 303 303 304 304 305 306 309 309 310 309 310 312 314 318 324 328 316 317 317 318 326 326 326 330 334 331 331 329 333 331 330 330 335 338 344 349
322 323 322 321 319 312 310 306 303 302 302 303 303 304 305 305 306 309 311 312 310 310 312 314 317 322 320 317 317 318 319 326 327 329 331 331 330 330 330 330 332 330 329 331 336 338 347
322 322 322 321 321 315 309 303 302 302 303 306 307 308 308 306 307 310 314 316 321 322 318 321 321 320 317 317 316 320 322 323 326 330 330 330 331 331 330 329 331 330 329 328 332 335 347
323 322 321 320 319 316 304 302 301 307 309 308 308 308 309 308 307 310 314 316 315 315 317 318 315 315 315 316 318 321 324 326 327 331 327 328 330 330 327 330 330 331 331 329 330 333 341
323 321 321 320 317 307 303 301 308 309 308 307 307 307 308 308 308 313 314 314 314 315 316 317 315 315 316 315 317 318 319 324 327 327 329 327 327 327 328 328 329 329 329 329 330 333 337
322 320 321 320 313 305 302 307 309 309 308 307 307 307 308 308 312 315 315 314 315 315 318 319 316 315 314 315 317 316 316 320 324 326 326 329 328 328 326 327 328 328 328 328 328 331 336
322 320 320 316 307 302 306 309 309 309 308 307 307 306 307 308 308 316 315 314 314 315 320 317 317 314 315 316 317 316 315 316 320 324 326 327 327 328 328 327 327 327 328 329 328 328 332
320 320 318 309 302 305 308 309 310 309 308 307 308 308 307 315 312 314 313 314 314 316 317 317 317 315 315 316 316 316 316 315 318 320 322 324 326 326 326 326 326 327 327 328 329 327 328
319 317 311 304 305 308 309 310 310 309 307 308 310 306 306 309 316 315 313 315 317 317 319 317 317 316 317 318 317 316 317 317 316 317 318 322 324 326 327 326 326 326 326 328 329 329 327
313 307 305 307 309 310 310 309 307 307 307 309 310 308 312 310 312 312 313 317 318 319 318 317 316 315 316 317 317 317 316 317 319 318 319 320 318 321 326 327 327 327 327 328 330 330 329
307 308 309 310 310 309 307 306 306 306 309 310 311 314 315 313 312 311 314 319 319 318 317 316 316 315 315 316 316 317 317 317 318 319 318 319 320 322 321 325 326 327 330 327 328 329 330
309 310 310 309 308 307 307 307 307 309 310 311 312 316 314 313 312 313 317 318 318 317 316 316 315 316 318 318 317 317 317 318 318 318 318 318 320 321 322 323 324 324 326 329 329 332 334
310 310 309 307 308 309 310 310 310 311 312 312 315 318 315 316 315 316 319 321 320 317 315 317 318 318 319 319 318 318 318 318 317 317 316 316 316 318 321 321 321 322 322 325 329 331 332
310 309 308 309 310 310 311 311 311 311 312 315 319 319 316 316 319 320 321 319 316 318 316 317 317 317 317 318 318 318 319 318 316 316 316 317 315 317 318 320 320 319 320 320 322 331 331
309 308 309 310 310 310 311 311 311 311 312 314 319 318 317 318 321 321 319 318 316 316 317 316 317 317 317 317 317 317 317 316 315 315 316 316 316 316 317 318 318 318 317 318 319 321 327
309 309 310 311 311 311 311 312 312 312 313 315 319 321 318 316 316 317 318 317 317 314 315 314 315 315 315 316 316 317 317 316 315 313 313 313 315 317 318 318 318 318 318 317 317 322 323
309 310 311 311 311 312 312 312 312 312 313 316 317 317 315 318 316 316 317 316 315 315 313 313 315 315 315 315 316 315 315 316 315 314 312 313 314 315 315 315 316 316 316 317 317 318 322
309 311 311 312 312 313 312 312 312 313 315 314 315 317 314 314 315 316 314 314 313 313 313 314 314 312 312 313 314 314 314 314 315 316 315 314 314 314 315 315 316 317 316 316 317 317 317
309 311 312 313 313 313 312 311 310 312 314 314 314 314 315 313 314 315 314 313 313 313 313 312 312 312 312 313 311 311 311 312 314 314 316 316 315 315 316 314 315 317 317 316 316 316 317
309 311 312 313 313 312 310 310 309 312 314 313 313 315 317 315 314 314 313 312 313 312 313 312 312 311 311 311 311 311 311 311 311 313 313 314 317 318 318 316 319 317 317 317 315 316 316
310 311 313 313 313 311 310 309 309 311 313 314 313 314 314 316 314 314 313 313 313 313 313 312 312 312 312 312 314 314 314 314 314 313 313 313 315 317 318 317 315 314 315 315 317 316 315
310 311 313 313 313 311 310 309 310 310 312 314 311 313 315 317 316 313 314 313 313 314 314 313 313 312 312 312 313 315 317 315 315 314 314 314 315 319 318 317 316 314 314 313 314 315 315
311 312 313 313 313 311 311 310 309 310 311 314 314 313 316 318 315 314 314 315 313 313 314 313 313 313 312 312 314 316 315 313 315 314 314 316 317 319 318 318 314 313 313 313 314 314 315
311 312 313 314 313 312 311 311 310 310 310 314 315 311 316 318 315 314 314 315 314 314 315 313 315 314 313 313 312 313 312 313 313 312 314 314 319 317 318 318 317 314 314 315 315 314 313
311 311 313 314 313 313 311 311 311 311 310 313 316 314 311 315 316 316 315 313 314 313 314 314 314 313 312 312 312 311 313 312 312 315 311 315 311 312 312 316 312 310 311 311 311 311 310

GFSGBSN_850_thetae_057.txt.gz
Theta_e
304 304 304 304 304 304 304 304 304 304 304 304 304 304 305 305 306 306 307 309 309 309 309 309 309 309 312 320 318 320 318 319 315 317 316 332 336 337 338 338 339 341 340 341 346 350 354
310 308 306 306 306 306 305 306 306 306 306 305 304 304 304 305 305 306 307 309 309 309 309 309 310 312 311 325 320 319 319 325 318 318 316 331 338 338 338 338 336 337 338 338 341 352 355
323 323 321 318 315 312 311 311 312 310 307 305 304 304 304 305 305 306 308 309 309 309 310 310 313 313 322 327 319 318 318 325 325 319 317 336 339 340 336 333 335 333 331 332 336 346 352
322 322 322 322 321 321 317 317 313 307 305 304 304 304 304 305 305 307 308 309 309 309 311 313 316 319 326 319 318 318 319 324 328 325 319 331 337 337 335 333 333 329 327 329 333 341 349
322 322 322 322 321 321 319 316 307 304 303 303 305 306 306 306 306 307 308 310 309 310 311 314 317 327 327 319 317 318 318 323 326 328 322 324 329 334 333 329 329 330 326 327 330 333 349
323 323 322 321 320 319 317 307 303 302 306 308 308 308 308 309 308 307 309 313 314 310 315 313 318 321 322 320 317 318 319 320 326 324 324 324 331 329 327 325 329 330 326 325 327 332 348
323 322 321 321 321 319 310 305 303 308 308 308 307 306 307 309 309 307 312 315 319 319 313 322 323 320 320 317 316 319 321 322 327 328 328 331 330 330 327 327 327 328 329 328 326 329 343
323 322 320 321 320 317 308 303 308 308 308 307 306 306 306 307 309 307 312 315 314 314 315 316 319 319 316 316 317 320 324 320 326 327 328 328 330 330 329 328 328 327 328 328 329 327 330
322 321 320 320 317 307 303 308 309 309 309 307 307 306 306 307 309 312 314 315 314 315 315 316 315 317 315 315 316 320 323 325 326 326 329 326 327 329 329 329 327 327 327 328 328 327 335
321 320 319 316 307 304 308 309 309 309 309 307 307 308 306 307 312 316 316 315 315 315 313 318 316 315 315 315 315 317 317 317 322 325 325 325 327 327 327 327 326 323 326 327 327 325 326
320 318 314 307 305 308 309 309 309 309 308 307 308 310 306 308 309 314 314 314 314 314 317 317 316 315 315 315 317 316 316 315 316 319 321 324 324 327 328 326 324 325 326 326 326 325 324
313 309 306 307 309 309 309 308 306 306 306 306 309 310 306 314 316 316 315 313 315 314 318 317 316 315 315 315 316 316 316 315 316 316 317 318 321 324 326 327 326 325 324 323 324 323 324
307 308 309 309 309 308 307 307 307 306 307 309 309 309 306 312 315 313 312 314 315 315 318 316 315 315 314 315 316 316 316 315 314 315 316 319 320 321 323 324 323 324 323 321 323 324 325
309 310 309 309 307 307 309 309 310 310 310 310 310 312 313 309 313 313 313 314 318 318 316 317 316 315 316 317 316 316 316 314 316 315 314 315 316 317 322 324 326 322 321 321 325 326 325
310 309 308 308 309 310 310 311 311 312 312 312 312 314 315 313 312 311 313 316 318 317 316 316 316 315 315 315 316 316 317 315 316 316 317 316 318 319 320 323 325 325 324 322 322 323 324
309 309 308 309 310 310 310 311 312 312 312 312 314 315 316 316 314 313 314 316 318 316 316 317 317 316 317 317 316 315 316 316 317 316 315 315 314 316 318 321 324 323 324 322 322 325 326
309 309 310 310 310 310 311 312 312 312 313 314 317 319 317 317 316 316 318 320 319 317 317 316 317 317 317 317 317 318 318 316 316 316 315 315 314 314 315 318 320 321 320 322 321 324 326
309 310 310 311 311 311 312 312 312 312 314 316 318 321 317 317 319 321 320 318 316 317 317 317 317 317 317 317 316 317 317 317 316 316 315 314 313 312 313 315 316 316 319 318 318 321 324
309 310 311 312 312 313 313 312 312 313 315 316 318 320 317 318 319 319 318 316 315 315 315 315 316 315 315 316 316 317 317 316 315 315 315 312 313 314 313 313 316 316 316 314 313 312 315
309 310 311 313 313 313 313 312 312 313 315 316 318 320 318 316 316 316 317 316 316 313 313 314 315 315 314 313 314 316 316 316 316 315 314 313 312 313 314 314 314 315 315 315 314 311 313
309 311 311 313 313 312 311 311 312 314 314 316 318 316 315 316 315 315 315 313 313 313 313 313 315 313 312 312 313 314 314 315 315 316 315 312 312 312 312 313 313 314 314 315 314 314 314
309 311 312 313 313 311 310 310 311 314 315 314 315 316 314 314 315 315 314 314 313 313 314 313 313 312 312 312 312 312 311 311 313 313 313 313 313 312 312 313 313 314 315 316 316 315 315
309 311 313 314 312 310 309 309 312 314 315 315 316 316 316 314 314 313 313 314 314 313 313 312 313 313 313 312 312 311 311 311 310 310 313 314 314 315 314 314 314 315 314 315 315 316 314
309 311 313 313 312 310 309 309 312 314 315 315 315 316 316 315 313 314 313 313 313 312 313 312 312 313 312 312 312 312 312 312 311 311 310 312 314 316 314 314 316 315 314 315 316 316 315
309 311 313 313 312 311 310 310 310 313 311 312 314 315 316 317 315 315 314 314 314 313 313 313 313 313 312 312 312 313 315 315 315 313 313 312 312 314 312 314 313 313 313 313 314 314 315
309 311 313 314 313 311 310 310 310 310 313 313 313 316 317 318 315 315 315 314 314 313 314 314 313 313 312 311 314 315 316 314 313 313 312 312 313 316 315 314 314 311 312 312 313 312 313
309 311 313 314 314 311 311 311 310 311 314 314 312 313 317 319 315 315 314 315 314 314 315 314 314 313 312 311 312 311 314 311 311 312 312 311 313 315 316 318 316 312 312 314 315 314 313
310 311 313 315 314 314 311 311 311 311 311 315 316 314 315 318 316 315 314 315 315 314 315 314 315 314 312 311 310 310 310 310 310 309 310 311 312 315 314 317 315 310 311 314 311 309 309
310 310 312 314 316 314 313 311 312 312 312 314 318 317 315 315 317 317 317 316 314 314 314 314 314 313 312 312 311 310 310 310 311 311 310 310 311 310 309 311 309 309 308 307 307 307 307

GFSGBSN_850_thetae_060.txt.gz
Theta_e
323 323 323 321 319 317 315 314 314 315 313 311 308 306 305 305 305 305 306 307 308 309 309 308 309 309 311 315 314 321 319 320 321 319 318 320 325 332 332 336 339 338 340 342 343 352 348
322 322 322 323 322 322 322 320 319 318 313 310 307 306 305 304 305 305 306 307 308 309 309 309 309 311 311 323 319 319 318 321 319 316 318 317 333 334 336 334 336 338 337 336 353 351 349
322 321 322 321 321 321 321 320 319 312 308 306 305 305 305 305 305 305 306 307 308 309 309 309 312 312 318 318 318 318 318 319 326 315 317 320 334 333 338 334 336 336 333 328 343 354 353
323 322 322 321 321 320 319 319 311 308 304 305 307 307 307 307 306 306 307 308 309 309 309 311 315 318 318 322 320 320 318 319 325 327 318 325 331 333 333 337 332 329 326 326 332 353 352
322 322 322 320 321 320 318 312 307 305 307 308 308 307 306 307 308 308 308 308 311 310 310 312 315 326 324 323 317 317 317 319 322 327 324 318 323 324 329 329 325 325 329 328 326 336 352
322 321 321 320 320 320 316 307 304 308 308 308 307 306 305 306 307 309 308 311 314 313 310 315 316 320 319 318 317 317 317 319 327 327 325 323 322 322 325 324 327 329 329 324 325 326 348
321 321 320 320 319 312 305 305 308 308 308 308 306 306 306 306 306 309 309 314 316 318 313 316 319 316 318 317 316 319 319 319 324 325 322 324 325 328 328 325 325 326 326 326 327 327 330
320 320 319 317 309 304 306 308 308 308 308 307 307 307 308 305 307 308 309 314 314 314 313 315 315 316 318 319 316 318 321 321 325 325 325 326 328 327 328 326 326 327 326 325 325 326 328
319 317 313 307 305 308 309 309 308 307 307 307 306 308 310 306 310 312 314 315 314 314 313 315 314 315 318 315 315 318 323 321 324 324 326 326 327 327 329 328 328 326 325 326 325 326 347
309 307 307 308 309 309 308 307 306 306 305 305 306 309 309 307 313 315 314 314 314 314 308 312 314 316 316 315 314 317 318 317 319 323 324 326 327 326 327 328 326 325 323 325 327 323 328
308 309 309 309 308 307 308 309 310 309 307 306 308 309 309 307 311 314 314 313 314 314 316 316 313 315 315 314 316 315 316 315 315 316 318 321 322 325 326 325 325 325 324 323 324 323 322
309 309 308 308 308 309 310 310 311 311 310 310 309 310 307 312 315 313 312 313 314 310 316 315 314 314 313 314 315 316 316 316 315 314 315 315 318 319 321 324 325 324 322 320 318 319 321
309 309 308 309 309 310 310 311 311 311 312 312 311 311 308 311 313 312 312 313 311 312 314 314 313 313 312 312 313 314 315 314 312 312 312 314 316 317 320 321 321 322 317 319 321 320 321
309 309 309 310 310 310 311 311 312 312 312 312 312 312 312 312 312 311 312 310 315 316 314 314 313 312 312 313 314 315 314 312 313 312 310 312 314 315 316 321 323 321 317 318 322 322 322
309 309 310 310 310 311 312 312 312 312 313 313 313 315 313 313 312 312 312 311 314 314 315 315 313 312 313 314 313 314 314 312 314 313 312 313 315 315 317 315 321 323 322 317 318 319 320
309 309 310 311 312 312 313 312 312 312 313 315 316 316 316 317 315 313 309 316 314 315 315 314 314 314 314 314 314 313 313 314 315 314 312 313 313 313 315 315 317 322 320 322 316 321 323
309 309 311 312 313 313 313 312 312 314 315 316 319 318 317 316 316 315 314 317 316 315 315 314 314 314 314 314 314 313 314 314 314 314 312 310 309 311 312 311 312 312 314 317 316 319 322
309 309 311 313 313 313 312 312 311 316 316 318 320 314 317 318 316 314 310 312 314 313 314 312 313 313 313 313 314 314 315 314 314 314 313 310 308 311 312 312 313 312 311 309 315 318 317
309 310 311 313 312 311 310 311 311 315 317 318 319 319 315 317 311 310 312 313 312 312 312 312 312 311 310 311 313 314 315 315 314 313 313 310 308 311 311 310 310 312 312 311 308 307 311
309 310 312 313 311 310 310 311 314 313 315 317 317 311 315 315 314 311 311 311 312 312 312 312 310 310 309 309 308 311 312 313 313 316 316 311 307 309 311 312 311 312 312 312 309 308 309
309 310 312 313 311 309 309 310 312 314 313 316 315 312 313 311 311 310 311 311 312 312 312 312 311 311 309 309 309 310 309 309 311 313 312 308 309 310 310 311 312 312 312 313 312 312 312
309 311 312 313 311 310 309 310 311 313 315 315 315 315 314 312 312 311 309 310 312 312 311 311 312 311 309 310 311 311 308 308 309 308 309 308 312 311 311 312 312 313 313 314 313 313 314
309 311 313 313 311 310 310 310 311 312 313 315 316 317 315 311 310 309 310 311 312 311 311 312 312 311 310 311 312 311 311 310 309 308 307 310 310 310 313 311 312 312 312 313 313 313 313
309 311 312 313 311 310 310 310 310 311 312 316 315 315 314 310 310 311 313 313 313 311 312 312 312 311 312 312 312 311 312 311 310 309 307 308 309 309 311 312 312 310 310 311 312 313 313
310 311 312 314 312 311 310 310 311 311 313 315 316 317 316 309 313 313 313 313 312 312 312 313 313 312 312 311 307 308 309 309 311 309 307 307 307 308 312 309 310 312 311 312 313 312 314
310 310 312 314 313 311 311 311 311 312 311 315 315 316 317 316 311 314 313 313 309 309 310 313 313 312 311 308 307 310 311 310 310 310 307 307 308 309 312 313 312 311 309 310 312 310 309
310 310 311 314 313 313 311 311 311 311 313 312 312 314 318 319 314 314 313 312 313 312 309 313 313 312 311 304 310 309 311 309 305 309 309 307 308 309 313 314 314 308 309 310 313 311 308
310 309 311 313 315 314 313 311 312 312 312 316 316 316 314 316 316 316 314 315 314 314 309 313 310 310 307 305 308 308 308 308 307 307 309 309 307 310 308 312 313 307 308 309 308 306 306
310 310 310 311 313 314 315 313 311 311 311 312 316 316 316 316 316 317 317 317 316 313 314 313 311 312 310 306 307 303 308 308 308 308 309 308 306 305 309 306 307 307 306 306 306 305 304

GFSGBSN_850_thetae_063.txt.gz
Theta_e
322 321 321 321 321 321 321 321 320 319 314 311 309 309 309 308 306 305 305 305 307 308 308 308 308 308 309 313 312 321 319 316 318 319 318 323 327 330 331 334 337 339 340 340 340 342 346
323 322 322 322 321 321 320 319 320 315 311 308 306 307 307 307 306 306 306 306 306 308 309 308 309 309 311 315 320 319 318 320 319 318 319 320 327 333 332 332 335 337 338 337 339 346 348
321 322 322 321 320 321 320 319 315 310 308 308 308 308 307 307 307 307 306 307 307 308 309 309 311 312 312 315 318 319 318 319 322 319 318 317 331 330 334 336 337 335 336 332 350 348 350
321 321 320 320 320 321 320 315 308 306 308 308 307 307 306 305 306 307 307 308 307 309 309 310 314 315 315 321 321 319 319 318 323 324 314 317 326 329 329 334 331 327 324 326 348 349 352
320 320 320 320 320 318 312 307 307 308 307 307 307 306 306 306 305 307 308 308 309 311 310 310 313 322 323 323 321 318 318 319 320 326 319 317 316 324 326 329 325 323 330 329 336 351 352
319 320 319 318 312 306 306 308 308 308 308 307 306 306 308 307 306 306 309 310 315 313 310 313 315 321 317 322 317 317 317 317 318 325 323 321 320 318 321 324 331 329 329 326 325 349 350
318 317 313 307 306 308 308 308 308 307 306 305 306 307 309 309 306 307 309 313 315 316 314 314 315 316 318 318 317 317 317 317 325 326 322 321 319 322 324 324 326 326 326 326 325 325 325
308 307 307 308 308 308 308 308 308 308 307 305 305 306 309 309 306 309 313 314 314 313 312 314 314 315 317 317 317 317 318 319 324 322 321 323 324 324 327 326 325 325 326 325 324 324 323
308 308 308 308 308 308 309 309 310 310 310 308 305 306 309 307 311 313 314 313 313 314 312 314 314 314 316 317 316 316 319 320 322 324 324 324 326 326 328 329 328 326 325 325 325 324 348
309 308 308 308 308 309 309 310 310 311 311 311 310 308 309 307 313 313 313 312 313 313 308 311 313 315 316 317 313 315 318 320 318 323 323 325 325 327 326 328 326 326 324 326 325 323 322
309 308 308 309 309 309 310 311 311 312 311 312 312 310 310 307 312 313 312 313 314 313 314 314 313 314 315 314 315 315 316 316 316 316 320 324 322 326 326 324 324 325 324 323 323 321 320
309 309 309 310 310 310 311 312 312 312 312 312 312 310 308 313 312 312 313 313 314 309 315 314 313 313 312 313 314 315 315 315 314 314 313 314 316 318 321 323 323 324 323 319 315 315 319
309 309 310 311 312 312 313 313 312 312 312 312 311 311 308 314 312 311 312 314 309 311 313 314 313 312 311 312 313 314 314 313 311 312 312 313 315 316 318 319 319 319 316 319 320 318 320
309 309 310 312 313 313 313 312 312 312 313 313 313 312 312 311 312 313 313 309 313 315 314 313 312 310 312 312 312 313 311 310 311 311 308 310 313 315 316 317 320 317 316 317 321 320 320
309 309 310 313 313 313 312 311 312 314 314 313 314 315 315 314 312 313 313 311 313 312 314 313 313 312 313 313 312 311 312 312 312 310 311 312 314 313 315 314 315 320 320 315 315 315 319
309 309 311 313 312 312 311 311 314 315 315 316 316 316 316 316 316 315 313 315 313 312 313 312 313 313 313 313 313 312 311 312 313 312 310 312 314 312 313 313 313 315 317 320 314 319 322
309 310 312 313 311 310 310 311 314 316 317 319 318 317 316 316 316 315 312 313 313 312 314 312 312 312 313 312 312 312 313 314 313 313 310 309 309 312 311 311 311 310 310 309 313 314 318
309 310 312 313 311 310 310 312 312 316 318 318 317 311 315 316 312 309 308 310 313 311 312 311 311 311 312 310 311 313 315 313 314 311 312 309 306 311 311 309 311 311 310 307 311 316 313
309 310 313 312 311 309 310 312 313 312 317 318 317 315 314 316 311 308 310 311 311 310 309 310 309 309 308 309 311 311 313 312 315 314 316 311 307 309 310 308 308 310 310 309 305 303 308
309 310 313 312 311 309 310 311 312 313 316 316 315 310 314 313 311 309 310 310 311 312 311 311 310 308 307 307 306 310 310 310 311 314 316 310 304 307 309 311 309 311 311 310 307 309 309
309 311 313 312 311 310 310 310 311 313 315 315 314 311 311 308 309 309 309 311 312 311 311 311 311 309 308 309 309 309 308 308 309 310 311 306 308 310 309 309 311 311 312 312 312 312 312
309 311 313 312 311 310 310 310 311 312 314 314 315 313 312 310 310 308 307 310 311 311 310 311 311 310 308 309 310 310 309 308 308 307 306 306 311 310 311 311 311 312 312 312 312 311 312
309 311 312 313 311 310 310 311 312 313 315 316 315 315 312 309 308 308 309 311 311 310 311 312 311 309 310 311 311 311 311 310 309 308 306 307 308 308 311 310 310 310 311 312 312 313 312
309 311 312 313 311 310 311 311 311 314 316 314 315 315 313 309 309 309 312 312 312 311 311 311 312 311 312 311 311 310 309 309 308 305 305 307 307 306 309 309 308 308 309 311 311 315 313
310 310 312 314 313 311 311 312 311 312 315 316 317 316 314 308 311 312 312 311 311 311 312 312 312 311 312 311 306 307 306 307 308 306 305 304 305 307 308 305 308 311 310 309 310 312 309
310 310 311 314 313 311 311 311 312 312 311 314 316 317 317 313 310 314 312 311 308 308 309 313 312 312 310 305 303 309 307 307 309 308 305 305 304 306 309 309 312 310 308 308 309 312 307
310 309 311 312 315 314 311 311 311 312 313 312 312 316 318 316 314 313 312 311 312 310 307 310 312 311 309 301 301 300 307 308 302 306 307 303 303 304 312 315 312 308 307 308 312 309 305
310 310 309 311 312 314 314 312 312 312 312 314 316 314 315 314 315 315 314 314 314 313 308 311 309 308 304 303 300 306 307 307 305 307 308 306 304 299 307 308 307 307 307 307 306 305 305
309 310 310 310 311 313 314 314 313 311 311 311 314 315 315 315 315 316 316 317 317 314 313 312 309 310 308 302 302 304 307 307 305 299 309 308 302 301 303 303 305 306 305 305 305 304 304

GFSGBSN_850_thetae_066.txt.gz
Theta_e
322 322 322 321 321 321 320 319 318 315 311 309 308 308 308 307 307 307 307 306 306 306 308 308 308 308 308 311 311 319 312 313 319 319 321 319 333 332 333 334 336 339 340 341 341 340 347
320 320 321 320 320 320 321 320 316 311 308 308 308 308 307 306 306 306 307 307 307 307 308 309 309 309 309 311 317 319 319 316 318 318 320 320 331 334 333 331 336 337 338 338 336 337 345
319 319 319 320 320 320 319 317 312 308 308 307 307 306 306 305 305 306 306 307 307 307 308 309 309 311 311 312 321 319 319 318 318 318 317 321 328 332 332 335 335 335 335 331 332 348 347
319 319 319 319 315 309 306 306 307 307 307 307 306 306 305 307 307 306 306 308 308 308 309 309 311 313 314 314 319 319 319 320 319 318 318 319 328 329 330 332 329 326 324 327 342 348 350
317 315 313 309 306 307 307 307 307 307 306 306 305 306 307 308 308 306 306 308 309 310 311 309 312 314 320 320 320 320 318 319 322 319 317 317 320 325 326 326 326 323 329 328 328 348 350
308 307 307 307 308 308 308 308 309 310 310 309 306 305 306 308 309 306 307 310 315 312 310 310 313 319 315 321 321 319 319 319 322 322 319 318 317 317 319 323 334 329 328 326 327 350 350
308 308 308 308 308 308 309 309 310 310 311 311 309 305 306 309 307 306 309 312 313 315 313 313 313 314 315 317 317 316 317 319 324 323 320 319 318 319 321 323 327 326 326 326 325 328 330
308 308 308 308 309 309 309 309 310 311 311 311 311 308 307 309 307 309 313 313 312 313 312 314 314 314 315 315 316 316 316 320 324 322 320 319 318 320 322 325 326 325 326 326 324 324 322
308 309 309 309 309 309 309 310 311 312 312 312 312 311 308 308 311 312 313 312 312 313 311 313 314 314 315 317 316 315 316 321 321 321 320 321 324 323 327 327 326 325 325 325 326 325 334
309 309 309 310 310 311 311 312 312 312 312 312 312 312 309 308 313 313 312 312 313 313 307 310 313 315 315 316 313 315 318 321 320 321 321 323 324 326 326 328 326 329 323 325 326 322 321
309 309 310 311 312 313 312 313 312 312 311 312 312 310 310 307 312 312 312 312 313 313 313 313 312 314 316 313 314 314 318 318 317 318 321 323 323 326 326 325 324 327 323 324 323 321 319
309 309 310 312 313 312 312 312 311 311 313 312 311 310 309 312 312 312 314 312 313 309 314 312 312 311 311 312 313 314 315 315 314 312 314 318 315 321 324 324 323 322 321 314 313 314 318
309 309 310 313 312 312 311 311 312 313 313 312 312 311 312 312 311 311 312 314 309 312 312 313 310 310 310 311 312 312 310 308 309 310 312 313 315 316 317 318 318 318 317 318 318 318 319
309 309 311 313 311 310 310 311 314 314 313 314 314 313 313 313 312 312 313 310 313 314 314 312 310 312 312 310 311 311 311 310 311 308 306 310 313 313 314 315 314 316 316 317 321 318 319
309 309 312 312 311 310 310 311 315 315 314 314 315 316 315 316 315 315 314 310 312 313 313 312 312 312 312 312 311 310 310 311 311 309 311 311 313 311 313 312 314 317 317 315 314 314 317
309 310 312 312 310 310 310 311 314 316 316 318 317 316 316 316 316 316 311 312 313 312 312 312 313 312 313 312 312 311 310 312 312 310 309 310 313 311 312 312 311 314 312 317 313 319 322
309 310 312 311 310 310 310 311 311 316 317 316 317 316 315 317 316 314 308 311 312 311 312 312 313 312 311 311 311 311 312 313 312 311 309 309 309 312 309 309 309 310 310 308 311 313 317
309 310 313 311 310 310 310 311 311 312 318 316 315 310 315 317 311 306 307 309 311 310 310 309 310 310 310 309 309 312 312 310 312 312 312 308 307 310 310 308 309 309 310 306 315 317 309
309 310 313 311 310 310 310 310 310 312 316 317 315 313 313 315 309 306 309 309 311 309 309 309 309 307 306 307 310 310 311 311 310 315 315 310 305 307 311 308 308 309 309 307 303 303 309
309 310 313 311 310 310 311 311 311 314 315 316 314 309 312 312 309 308 309 309 310 311 310 310 308 307 306 307 306 309 309 309 309 313 315 309 304 307 308 310 308 311 311 310 306 309 309
309 310 312 311 310 310 311 311 312 314 313 314 313 309 309 307 308 307 307 309 311 310 310 310 309 307 308 308 308 309 308 307 308 309 309 305 310 309 308 310 311 311 312 311 311 309 311
309 310 312 312 311 311 312 312 314 314 313 313 315 312 311 309 309 308 306 309 310 310 309 310 310 309 308 309 309 310 309 308 307 307 305 304 310 309 310 310 311 311 311 311 311 311 311
309 310 312 313 311 311 312 312 315 315 314 314 313 312 312 308 307 307 308 310 311 310 311 311 310 308 310 311 310 310 310 308 307 307 305 306 305 305 308 309 309 310 310 310 311 311 312
309 310 312 313 312 311 312 313 312 314 314 313 313 313 313 309 308 309 311 311 310 310 311 311 311 310 311 310 309 308 308 307 307 305 303 305 305 304 307 306 305 306 308 309 312 313 310
309 309 311 313 313 311 312 312 313 312 313 315 315 313 313 308 309 311 311 310 310 311 311 312 311 311 310 310 305 306 304 307 306 304 303 303 304 305 305 302 307 310 308 307 309 311 308
309 309 310 312 314 313 311 312 312 313 312 312 315 316 315 311 309 313 311 311 307 308 308 312 311 311 309 302 302 307 303 306 308 306 304 303 302 305 303 309 310 309 307 307 308 312 305
309 310 309 311 312 313 313 311 312 312 312 314 313 314 316 314 314 313 311 310 311 309 306 309 311 310 307 299 299 299 300 307 301 304 306 301 302 304 308 310 310 306 306 307 310 308 305
309 309 310 309 311 312 313 314 313 312 311 311 314 315 314 315 315 314 314 314 312 311 307 310 307 307 302 300 299 305 306 307 304 302 305 301 298 298 307 308 305 306 305 306 305 305 305
308 309 310 310 310 311 314 314 314 313 312 311 314 315 315 316 314 315 315 316 316 315 313 311 308 308 307 301 300 302 306 306 303 298 305 305 300 299 300 301 304 305 305 305 305 304 304

GFSGBSN_850_thetae_069.txt.gz
Theta_e
319 319 319 320 320 320 320 320 316 311 309 309 308 308 307 306 306 306 306 307 307 307 307 308 308 308 308 309 310 317 315 311 318 317 321 325 328 333 335 341 341 346 344 343 342 341 344
318 318 318 319 318 315 311 309 307 307 307 307 307 306 306 305 305 306 306 306 307 307 307 308 308 309 308 312 314 316 311 316 319 320 320 323 328 333 334 339 340 340 339 338 336 336 340
318 317 315 311 307 306 306 307 307 307 306 306 306 305 305 306 307 307 306 306 307 307 307 308 309 310 310 311 320 316 312 318 319 320 319 322 330 332 333 336 335 336 337 332 343 344 347
308 307 307 307 307 308 308 308 309 309 309 309 308 305 305 307 308 308 306 306 308 308 308 309 309 312 313 313 320 318 316 318 319 318 320 321 330 330 332 332 331 333 329 337 346 348 349
308 307 307 308 308 308 309 309 310 310 311 311 311 308 305 306 309 308 305 308 310 310 310 309 311 314 319 317 321 317 318 319 317 318 317 319 325 328 328 335 337 330 339 334 333 350 351
308 308 308 308 308 309 309 309 310 311 311 311 311 311 307 306 309 306 307 312 312 311 309 310 313 317 316 321 321 319 318 321 319 318 317 317 319 327 329 336 340 337 334 330 335 348 351
308 309 309 309 309 309 309 310 311 312 312 312 311 311 310 307 308 308 310 314 312 315 312 314 313 314 315 316 318 321 319 322 321 319 320 318 324 328 333 334 330 331 331 331 329 335 336
309 309 309 310 311 312 312 312 312 312 311 311 312 312 311 309 308 312 312 312 311 312 313 313 314 314 314 315 315 319 320 322 323 322 320 319 322 324 328 331 330 331 332 332 329 328 329
309 308 309 310 312 312 312 312 312 311 311 312 312 312 310 309 311 312 311 311 312 312 313 312 313 314 315 315 316 317 320 322 324 325 321 319 320 322 328 330 331 331 333 331 330 329 336
309 308 310 312 312 312 312 311 311 311 313 312 311 310 309 309 313 313 311 312 313 313 313 313 313 314 315 316 314 315 318 322 324 327 324 324 323 325 331 333 332 335 328 330 329 330 329
309 309 310 313 311 310 310 310 312 313 312 312 311 309 307 311 312 312 311 312 313 312 315 314 313 314 315 314 314 315 317 319 323 324 325 326 327 327 332 332 330 334 328 329 329 329 326
309 309 311 312 310 310 310 312 314 314 313 312 311 311 312 312 312 311 312 313 312 314 316 315 312 314 314 313 314 314 314 315 314 320 322 323 319 328 331 328 327 328 324 322 322 325 328
309 309 312 311 310 310 311 313 314 314 314 314 313 313 312 311 312 312 312 313 315 316 315 315 313 312 313 312 314 314 315 315 315 320 324 317 318 318 321 325 325 326 327 328 329 328 330
309 310 312 311 310 310 311 311 314 315 313 314 315 316 315 315 315 314 313 316 318 316 316 315 313 315 314 314 314 315 315 316 314 312 315 323 322 316 316 319 322 325 327 328 329 329 329
309 310 312 311 310 310 311 311 311 316 316 318 317 315 315 316 315 314 314 317 316 314 314 314 315 316 316 315 315 315 315 316 314 313 316 317 317 314 314 315 318 321 324 323 323 321 327
309 310 312 312 310 310 311 310 311 316 317 317 317 316 314 316 315 315 315 314 314 312 312 314 316 315 317 316 316 316 315 316 315 313 311 314 317 313 314 314 316 320 317 323 324 327 328
309 310 312 312 310 311 311 311 310 315 317 316 317 316 314 317 315 314 315 314 313 312 312 314 314 315 314 316 315 316 314 316 314 315 312 312 316 316 316 315 315 319 320 319 322 323 327
309 310 312 311 310 311 312 311 312 315 316 316 315 317 314 316 314 309 313 311 311 311 311 312 312 311 312 313 315 316 316 314 312 315 314 311 314 316 315 312 312 314 314 315 326 326 322
309 310 312 311 310 311 312 312 313 314 315 317 314 313 313 315 315 313 311 311 311 312 311 312 311 310 310 311 316 314 314 311 311 317 315 313 313 316 316 315 313 315 314 313 312 316 322
309 310 311 312 310 312 312 313 312 313 313 316 313 315 312 311 309 312 312 312 312 310 311 311 311 310 312 313 312 313 313 311 310 314 314 312 312 315 316 316 314 316 314 314 315 319 318
309 310 311 312 311 312 312 314 314 312 313 314 312 311 309 313 312 311 311 312 312 312 311 311 312 311 311 313 313 313 312 312 311 310 312 314 316 314 314 313 314 314 314 314 315 315 318
309 309 311 312 311 312 312 313 313 313 312 313 313 312 310 309 309 312 311 312 312 312 312 312 312 312 312 313 312 313 312 312 311 312 311 311 316 314 315 313 313 314 313 313 313 313 314
309 309 311 312 312 311 313 312 313 313 312 312 312 311 312 309 311 312 313 312 312 311 312 312 311 312 313 312 311 310 309 309 309 311 312 313 314 314 315 313 312 312 313 313 314 316 315
309 309 310 312 313 311 312 312 313 313 314 312 313 313 313 314 313 313 312 312 312 312 313 312 312 312 310 308 308 308 309 309 310 308 307 312 314 314 314 312 313 313 311 311 315 315 315
309 309 309 311 312 313 311 311 312 313 313 315 315 312 313 315 312 312 312 311 311 312 313 313 311 310 309 309 312 313 312 312 311 309 310 309 313 315 316 313 312 312 311 311 313 313 310
310 309 309 310 311 312 313 311 311 312 312 313 314 315 313 313 313 313 312 311 313 313 313 312 310 309 309 309 313 314 316 312 313 310 308 310 311 315 315 315 315 313 309 308 310 314 308
312 309 310 309 310 311 312 313 311 311 311 312 314 314 316 313 313 313 313 313 310 310 313 311 311 310 307 309 313 313 312 309 313 311 311 312 314 316 316 316 315 311 308 309 315 314 307
313 308 309 310 309 310 312 313 313 312 311 311 312 314 315 314 314 313 314 313 311 311 314 311 312 310 308 311 310 310 311 309 308 308 310 312 314 315 313 314 315 309 308 312 309 307 306
314 308 309 310 309 310 311 314 314 314 312 312 314 315 315 315 314 314 314 314 314 315 313 311 310 310 308 310 307 308 310 308 309 314 308 312 311 313 312 314 308 308 308 307 306 306 306

GFSGBSN_850_thetae_072.txt.gz
Theta_e
318 319 319 317 312 308 307 307 307 307 307 306 306 306 306 306 305 305 306 306 307 309 308 307 308 308 308 316 315 320 313 313 316 328 326 327 329 330 336 339 345 349 348 346 343 340 341
312 309 308 306 306 307 307 308 308 308 308 308 307 306 305 305 306 307 307 306 307 308 308 307 308 308 312 317 318 315 317 319 324 324 323 325 326 328 330 335 340 343 344 343 340 337 339
307 307 307 308 308 308 308 309 309 310 310 311 311 310 306 306 308 309 308 306 307 308 308 308 309 309 315 315 323 320 326 324 322 322 322 324 327 328 330 334 336 339 342 341 341 340 345
308 308 308 308 308 308 308 309 310 311 311 311 311 311 310 306 308 309 307 306 308 308 308 308 309 311 319 313 323 323 325 325 320 321 321 324 327 328 329 333 335 338 340 344 344 343 346
309 309 309 309 309 309 309 309 311 312 312 312 312 311 311 307 307 309 306 308 311 309 308 309 312 319 320 316 324 321 321 323 320 320 321 321 326 328 330 332 334 336 341 342 346 345 348
309 309 309 310 311 312 312 312 312 312 312 311 312 312 311 309 308 307 307 314 311 310 310 310 316 319 319 321 324 322 321 321 320 320 319 320 325 328 330 330 333 336 340 342 340 349 348
309 309 310 311 312 312 312 312 312 311 311 311 312 312 312 309 308 309 310 314 316 321 316 318 317 318 320 320 323 322 323 322 321 321 323 321 326 326 328 331 334 334 339 340 336 345 344
309 309 310 312 312 311 311 311 311 311 312 313 312 312 312 309 310 312 312 315 314 313 317 316 317 316 317 319 320 321 322 325 322 322 322 322 324 326 329 332 335 335 338 339 334 333 337
309 309 311 312 311 310 310 310 311 313 312 311 310 310 309 308 312 311 312 313 312 312 317 316 316 317 317 317 319 323 322 323 324 322 322 323 324 326 331 335 336 335 335 338 337 333 334
309 309 312 311 310 310 310 313 314 313 312 312 309 308 309 311 313 312 313 312 313 313 319 316 316 316 316 319 318 321 322 322 324 326 323 322 324 324 329 334 334 335 334 334 335 335 337
309 309 312 311 310 310 311 314 314 313 313 312 312 311 309 312 312 314 312 312 312 313 320 316 316 315 318 318 317 320 321 321 325 326 327 325 323 325 330 333 333 335 333 334 334 336 334
309 310 313 311 310 310 311 311 314 314 314 314 314 312 312 312 312 312 312 313 312 319 319 317 316 318 318 316 317 318 319 318 322 325 326 327 323 326 330 333 333 333 332 332 332 334 335
309 310 313 311 310 311 311 311 312 315 314 314 315 315 314 314 315 314 314 314 319 320 318 317 316 318 318 317 318 320 320 320 324 326 327 325 327 328 330 334 333 333 332 332 332 332 334
309 310 313 311 310 311 311 311 311 315 316 317 315 315 316 316 315 315 314 319 321 318 318 317 317 317 317 317 318 320 321 321 319 321 327 325 326 326 327 332 333 333 332 331 332 332 332
309 310 312 311 310 311 312 311 310 316 316 316 315 316 316 315 315 314 318 320 320 318 317 318 317 317 317 317 318 320 321 320 319 319 323 326 323 319 320 321 324 331 333 330 329 330 332
309 310 312 312 311 312 312 311 312 316 316 316 317 318 316 316 316 317 320 318 318 316 316 318 319 318 318 318 318 319 320 319 319 317 317 322 323 320 318 319 321 325 328 329 328 331 332
309 310 312 311 311 312 312 313 314 316 317 316 317 319 316 316 317 319 320 318 317 315 315 317 318 318 318 319 319 319 319 318 317 318 317 319 322 320 320 322 324 324 325 326 328 329 331
309 310 311 312 311 313 312 313 312 314 316 316 318 321 316 316 318 317 318 316 313 316 315 315 315 317 318 318 319 319 318 317 315 318 317 317 320 321 322 317 318 321 324 326 328 331 330
309 310 310 312 311 313 313 313 313 312 314 317 318 316 315 317 320 318 315 315 314 316 316 316 316 316 316 318 319 318 317 313 315 319 319 316 319 321 320 319 318 321 321 322 324 326 330
309 309 310 312 311 313 312 313 313 312 314 315 316 318 315 315 315 317 316 315 315 313 314 314 315 316 318 318 318 318 317 315 314 317 315 316 318 319 320 321 321 321 319 320 323 327 329
309 309 311 312 312 313 313 313 313 311 312 315 315 314 313 315 315 314 315 314 314 315 313 313 314 315 317 319 319 319 317 317 316 315 317 320 322 320 318 317 318 318 318 318 321 324 326
309 309 310 312 312 312 313 313 313 312 311 315 316 315 313 314 314 315 313 315 315 315 315 314 315 314 315 317 317 318 317 318 318 316 317 317 321 321 320 317 318 318 317 317 317 319 322
310 309 309 311 312 312 312 313 313 313 313 314 312 312 315 313 315 316 315 314 314 315 314 313 314 315 315 314 314 314 314 314 314 316 317 318 319 320 320 317 316 317 318 317 317 318 320
314 309 309 310 312 312 312 312 313 313 314 315 312 315 316 315 315 315 314 313 315 315 315 314 314 315 313 312 312 312 313 313 313 313 313 317 319 318 318 317 316 318 316 316 318 319 319
319 309 309 309 311 311 312 312 312 312 313 314 314 316 316 316 314 314 314 314 314 314 315 314 313 312 312 313 316 316 316 316 315 314 314 315 316 317 318 317 316 315 315 315 318 318 316
322 311 309 309 309 311 311 313 312 312 312 314 314 314 316 316 315 313 314 314 315 315 315 314 313 311 312 315 317 319 320 319 317 315 314 314 316 318 317 320 318 319 314 313 314 318 314
322 312 308 310 310 310 311 312 313 312 312 312 314 314 318 317 315 315 316 316 314 314 315 314 314 313 312 315 318 319 319 315 319 317 317 318 318 320 319 320 318 315 312 313 316 319 313
321 313 308 309 310 309 310 313 313 314 312 312 313 314 317 317 316 315 315 316 315 315 316 315 315 313 312 315 316 317 318 315 315 315 315 317 319 320 319 320 322 313 313 317 315 311 311
322 315 308 309 309 309 310 313 314 314 314 313 317 315 315 318 318 315 316 316 316 317 315 314 314 313 312 314 314 315 317 315 316 319 313 318 316 320 318 319 314 313 313 312 310 311 310

GFSGBSN_850_thetae_075.txt.gz
Theta_e
307 307 307 307 307 308 308 309 309 309 310 310 309 308 306 305 305 306 307 306 307 308 310 308 308 308 308 320 319 324 319 312 316 326 329 328 331 337 341 343 350 353 349 348 345 344 345
308 308 308 308 308 308 309 309 309 310 311 311 312 312 311 306 306 308 309 307 306 307 309 308 308 309 313 320 322 320 317 313 320 329 329 327 330 333 333 337 346 349 349 346 344 342 342
309 309 309 309 309 309 309 309 309 311 312 312 312 312 312 310 306 308 309 307 306 307 308 308 308 309 319 320 324 323 320 318 322 328 327 327 327 328 331 336 339 344 349 346 343 341 343
309 309 309 310 311 311 311 312 312 312 312 312 312 312 312 312 307 308 309 306 308 308 308 308 308 312 324 318 323 325 326 323 323 326 324 325 326 328 329 334 336 343 346 349 344 343 345
309 309 310 311 312 312 312 312 312 312 312 311 311 312 312 312 309 308 307 308 312 309 308 308 312 324 322 316 323 326 326 323 323 324 324 325 326 329 330 333 338 340 345 345 346 342 346
309 309 311 312 312 311 312 311 311 311 311 312 312 312 312 312 308 308 307 313 312 311 310 311 321 321 323 321 323 323 325 323 322 323 324 323 325 331 331 333 337 337 340 342 346 344 347
309 309 312 312 311 310 310 310 311 312 313 312 311 312 312 312 309 309 311 317 322 324 318 323 320 322 320 322 323 322 322 323 322 323 325 323 326 330 331 331 331 334 337 341 341 344 346
309 310 312 311 310 310 311 312 313 313 312 312 310 310 311 309 311 312 313 319 317 316 320 319 318 319 321 324 324 323 323 323 323 325 324 325 327 329 329 330 330 334 335 340 340 343 344
309 310 312 311 310 310 312 313 314 313 313 311 309 309 309 309 312 312 317 316 315 315 319 319 319 318 320 322 323 323 323 325 325 325 325 326 326 327 328 330 333 336 338 340 340 337 340
309 310 312 311 310 310 311 313 314 314 313 312 312 308 309 312 313 316 316 315 315 315 322 319 319 318 320 319 322 323 323 325 326 325 324 325 326 326 328 332 335 335 334 337 337 338 340
309 310 312 311 310 311 311 311 313 314 314 314 312 312 312 312 316 317 316 315 315 316 324 319 319 318 319 320 321 324 322 323 326 326 326 325 324 325 329 333 334 334 332 334 338 337 338
309 310 312 311 310 311 311 311 311 315 314 315 315 313 312 315 314 315 315 316 315 320 322 319 318 319 321 321 320 323 322 323 324 327 328 327 324 325 326 330 333 335 335 334 335 336 337
309 310 313 311 311 311 312 312 310 313 316 315 315 314 314 314 318 316 316 317 321 323 320 319 319 320 321 321 321 323 324 324 324 327 329 328 328 326 326 330 334 336 336 337 337 336 336
309 310 312 312 311 312 312 312 311 314 317 317 316 316 319 317 317 317 317 321 323 321 321 319 319 321 320 320 320 322 323 323 323 326 329 328 328 327 327 332 335 336 335 334 334 334 333
309 310 312 312 311 313 312 313 313 316 316 316 316 320 320 318 317 317 320 323 323 321 320 320 319 320 320 320 321 322 323 323 323 324 326 329 328 328 328 331 334 334 335 333 333 332 333
309 310 312 312 312 313 312 312 313 316 317 317 318 321 319 318 318 319 323 320 321 319 319 320 320 320 320 320 320 322 324 322 322 322 322 326 327 325 325 325 328 329 332 335 334 335 334
309 310 311 312 312 313 313 313 311 313 317 317 319 322 319 318 319 321 322 321 320 318 319 321 321 320 321 321 320 321 322 321 320 322 321 322 327 325 324 325 327 328 330 332 333 332 334
309 309 310 312 312 313 313 312 311 312 316 319 320 323 318 317 321 320 321 320 316 320 318 319 320 319 320 321 321 322 322 321 319 321 320 321 324 326 325 325 324 326 328 330 332 333 332
310 309 310 312 312 313 313 312 312 312 315 319 320 317 317 318 323 320 318 317 317 319 320 319 319 319 320 318 321 319 320 317 319 321 322 321 322 325 325 324 324 325 326 327 329 330 332
311 309 310 311 312 313 313 313 313 311 313 318 318 321 317 318 318 319 318 317 316 315 317 318 320 320 320 319 320 320 319 318 318 320 314 319 321 324 324 324 324 325 325 325 327 329 331
313 309 309 311 312 312 313 314 313 311 312 319 317 317 317 320 317 318 318 317 316 316 315 316 318 320 321 322 321 320 320 319 318 316 320 322 320 322 321 320 323 324 324 323 325 327 329
315 309 309 311 311 312 313 313 313 312 316 317 319 319 315 317 317 317 314 317 317 317 318 317 317 316 318 322 322 322 321 321 321 320 321 321 323 321 320 320 320 321 321 320 322 325 327
319 310 309 309 311 312 312 313 313 313 318 317 317 317 317 315 318 318 317 316 316 317 316 316 317 318 318 317 317 318 318 319 320 321 322 322 321 323 322 320 319 319 320 320 321 322 325
321 315 309 309 310 310 312 312 313 314 314 319 317 319 319 317 318 317 316 316 317 318 318 316 317 319 315 314 314 315 315 316 316 317 318 322 323 323 323 323 323 320 320 319 320 321 325
323 321 310 309 309 310 310 312 312 312 314 319 319 320 319 318 316 316 316 316 316 317 317 317 315 315 315 317 319 319 318 318 318 316 316 317 321 323 322 323 321 320 318 318 321 321 321
323 323 312 309 310 309 310 311 313 312 312 320 318 319 319 319 319 316 316 317 318 318 318 316 315 314 316 318 320 323 323 323 321 318 316 317 320 321 321 322 322 321 318 317 318 323 318
323 321 313 308 310 310 310 312 312 313 313 315 319 314 321 320 316 317 319 319 316 316 318 317 316 315 315 319 321 323 323 319 323 320 320 319 319 322 323 323 322 320 316 316 318 322 317
322 322 316 308 309 309 309 312 314 314 314 315 319 314 321 319 318 316 317 318 317 318 319 317 317 316 316 318 319 322 322 321 319 321 320 321 323 324 322 323 328 317 316 318 320 317 315
322 323 316 308 310 309 309 312 314 314 315 314 320 317 315 320 321 317 317 318 318 319 317 315 317 315 316 318 316 319 320 319 320 322 317 321 319 325 322 324 320 317 317 317 317 316 314

GFSGBSN_850_thetae_078.txt.gz
Theta_e
308 308 308 309 309 309 309 309 309 310 311 311 312 312 312 311 306 306 307 308 307 307 308 310 309 308 308 322 320 325 320 316 312 318 336 332 330 337 343 345 350 353 352 350 347 354 353
309 309 309 310 310 309 309 309 310 311 312 312 312 312 312 312 310 307 309 310 308 306 308 309 309 308 308 323 323 324 318 316 317 326 335 330 329 335 340 342 350 350 349 348 346 345 347
309 309 310 311 312 313 313 313 313 312 312 312 312 312 312 312 312 307 309 310 306 307 308 309 308 308 320 321 324 325 321 317 320 326 331 330 329 333 335 336 342 345 353 348 345 343 347
309 309 311 313 312 312 312 312 312 312 311 311 311 311 312 312 312 310 309 308 308 309 309 309 308 309 322 320 322 324 321 319 321 326 330 328 328 329 330 332 337 343 346 351 346 342 346
309 310 312 312 311 310 311 311 311 311 312 312 313 313 313 312 312 309 309 308 312 309 309 308 310 314 324 322 322 324 325 322 323 327 327 326 326 328 330 332 338 340 347 346 345 342 348
309 310 312 311 310 310 310 311 312 313 312 311 311 311 312 313 312 309 308 313 312 310 309 310 325 323 322 324 322 326 326 324 324 326 326 326 327 329 331 332 337 340 342 345 348 344 346
309 311 312 311 310 310 312 313 313 313 312 311 309 309 311 312 309 308 310 319 321 325 321 322 323 324 323 324 323 325 327 323 324 325 327 326 327 328 331 331 332 336 337 340 347 344 345
309 311 312 311 310 311 311 313 314 313 313 312 310 308 310 309 310 312 313 323 318 318 320 321 321 321 322 324 324 323 324 324 324 326 326 327 326 328 330 331 331 332 334 337 343 345 352
309 311 312 310 310 311 311 311 313 314 313 313 312 308 310 310 313 313 317 319 317 317 319 322 321 320 323 325 325 324 323 324 324 325 325 326 326 326 329 330 330 330 331 337 344 343 346
309 311 312 311 310 311 311 312 311 314 314 315 313 311 311 312 315 318 318 317 316 317 321 322 320 320 321 324 326 324 324 323 325 325 325 325 327 326 328 329 330 331 333 336 342 342 342
309 310 312 311 311 312 313 312 311 311 315 315 315 312 313 313 316 319 318 316 317 317 325 321 320 320 320 322 323 324 324 324 328 325 325 326 326 326 326 329 330 333 334 335 339 340 338
309 310 313 312 311 313 313 312 311 311 315 314 315 313 312 317 317 317 315 317 317 320 325 320 320 320 322 322 322 324 324 325 325 327 326 325 325 326 326 328 332 334 335 333 335 339 338
309 310 312 312 311 313 312 312 313 313 316 317 317 314 316 317 319 318 317 318 322 323 324 320 319 320 321 323 322 325 325 324 326 327 328 328 328 325 326 328 331 334 336 335 336 339 338
309 310 311 312 312 313 312 312 313 316 316 315 315 318 319 319 320 319 319 322 326 326 322 321 320 320 322 323 322 323 324 324 325 326 328 330 329 329 328 326 330 333 335 336 337 335 335
309 309 310 312 312 313 313 313 311 315 317 316 317 320 320 322 320 319 322 326 325 323 321 321 320 321 321 322 322 322 324 325 325 325 327 330 330 328 328 327 329 334 336 336 334 334 334
310 309 310 312 312 313 313 312 311 311 317 317 317 322 323 318 320 322 323 323 322 320 320 322 322 321 321 321 321 323 323 324 325 324 324 327 330 329 327 327 330 331 333 335 335 336 339
314 309 310 311 312 313 313 312 312 312 313 316 317 323 322 317 319 322 326 322 321 319 319 322 323 323 322 322 322 324 325 324 323 323 323 325 329 329 328 328 331 333 335 332 333 335 337
319 309 310 311 312 313 313 313 312 311 313 319 323 325 320 317 322 321 322 320 318 320 318 319 320 322 323 323 323 323 324 322 320 321 322 323 324 330 327 326 327 329 331 331 335 338 335
321 309 309 311 312 313 313 313 312 311 314 317 323 319 318 320 324 323 319 319 319 321 320 320 321 319 321 321 324 323 322 319 320 322 324 324 323 327 327 326 326 325 327 328 330 332 338
323 312 309 310 311 312 313 314 313 311 312 317 322 321 319 318 319 320 319 318 318 316 319 320 321 320 319 320 319 322 320 319 319 320 316 321 321 326 328 326 325 326 326 327 328 329 331
323 316 309 310 311 311 313 313 313 313 314 318 319 318 319 320 318 319 319 318 318 318 316 317 320 321 322 324 319 320 321 319 319 318 319 321 321 323 324 323 322 325 325 326 326 328 333
323 319 310 309 310 310 312 313 313 313 317 319 320 321 317 318 319 320 315 318 318 318 320 318 318 317 319 325 324 325 323 321 319 320 320 321 322 325 324 323 322 323 325 325 325 325 328
323 321 313 309 309 310 310 313 313 312 320 320 319 319 320 317 320 319 317 317 317 318 317 317 318 319 319 320 319 321 321 322 322 323 322 321 322 325 325 322 322 322 322 322 322 323 333
324 323 320 309 309 310 310 311 313 313 319 321 319 322 322 318 319 318 317 317 319 319 319 318 319 320 318 315 316 316 317 317 318 320 321 322 326 324 325 323 324 322 322 321 321 323 329
323 323 322 310 309 309 310 309 312 313 314 320 320 322 322 321 317 317 317 317 317 318 318 317 316 316 316 318 320 319 318 318 318 317 318 318 321 323 325 324 324 323 321 321 321 323 326
322 323 322 311 309 310 309 310 310 313 313 322 322 319 323 322 320 317 317 318 321 320 320 317 315 316 317 320 321 323 328 325 323 320 317 318 319 324 323 324 324 323 319 318 320 324 323
320 322 322 314 309 310 309 310 312 311 313 317 322 314 325 323 319 318 321 321 317 318 320 319 317 317 317 321 321 327 327 322 326 323 322 319 320 322 323 324 325 322 318 318 321 322 321
319 322 323 316 308 310 309 310 313 313 313 319 323 315 323 324 321 318 318 319 318 319 321 319 318 318 318 319 321 327 323 323 321 322 324 322 325 326 321 325 328 319 318 319 322 319 318
318 322 323 316 308 310 309 310 313 313 314 315 323 321 316 322 323 319 317 318 319 320 320 317 319 318 318 319 319 321 322 320 321 324 318 323 321 328 323 327 322 319 320 321 320 318 317

GFSGBSN_850_thetae_081.txt.gz
Theta_e
309 309 310 311 311 311 311 311 311 312 312 312 312 312 312 312 312 310 307 309 309 308 307 308 312 309 308 318 314 322 322 319 315 316 324 337 338 333 335 342 350 350 347 351 352 352 353
309 309 311 312 312 312 312 312 312 312 312 312 312 311 311 312 312 313 308 309 310 307 306 308 311 309 308 317 327 325 322 317 313 316 334 336 335 331 335 339 350 345 345 346 352 351 351
309 310 312 312 311 311 311 311 311 311 311 311 312 312 312 312 312 312 310 309 309 306 308 308 309 308 310 313 327 325 323 318 313 317 334 334 332 329 333 336 340 350 344 347 349 352 352
309 311 312 311 310 310 310 311 311 312 312 312 311 311 312 313 312 312 309 309 308 310 309 309 308 308 312 320 321 324 321 318 318 319 332 331 330 329 329 331 332 347 347 351 346 346 354
309 312 312 311 310 311 312 313 313 312 312 311 310 309 310 312 313 312 309 308 312 309 309 309 308 312 323 322 320 324 323 320 319 323 329 330 328 328 328 327 327 334 341 346 348 346 352
309 312 312 311 310 311 311 313 313 313 313 312 311 308 310 311 312 310 308 312 312 310 308 308 321 321 320 324 321 323 324 320 320 323 327 328 326 325 324 326 328 336 338 339 345 343 352
309 312 312 310 310 311 311 311 313 314 314 314 312 308 310 310 309 309 308 317 321 322 316 318 321 324 324 325 322 323 326 324 323 325 325 326 324 324 325 327 329 332 336 339 345 345 348
309 311 312 310 311 312 312 312 312 313 315 315 312 310 310 309 311 312 311 318 321 317 318 320 322 322 322 324 323 326 327 324 324 324 325 324 324 325 326 328 329 329 329 334 344 350 350
309 310 312 311 311 312 313 313 312 311 314 315 315 311 310 312 313 313 315 318 316 316 317 318 320 322 322 324 324 325 326 324 323 323 324 324 325 327 325 327 329 328 327 330 344 344 349
309 310 312 312 311 312 313 312 312 311 313 315 315 311 313 314 317 318 318 318 316 317 316 321 322 321 321 325 325 324 324 325 323 323 323 323 324 325 324 325 327 326 327 330 344 343 349
309 310 311 312 311 312 313 312 312 312 314 315 314 313 311 312 313 317 316 316 317 317 322 323 321 320 320 322 325 325 323 324 324 323 322 323 322 323 324 325 326 327 328 332 340 340 341
309 309 310 312 311 313 313 312 312 313 316 317 316 314 314 316 319 320 319 318 317 317 325 323 320 320 319 321 322 324 325 324 324 325 323 323 325 323 324 325 325 328 329 332 336 338 341
313 309 310 312 311 313 313 312 312 313 316 315 314 316 316 317 318 320 319 318 320 327 325 323 320 319 319 321 321 322 324 323 323 325 324 325 324 322 324 324 325 327 330 332 332 338 342
320 309 310 311 312 313 313 312 312 311 316 313 315 317 318 320 319 320 320 324 329 324 324 323 323 319 318 320 321 324 324 323 323 323 323 325 326 326 323 324 325 327 329 331 335 335 335
323 310 309 310 312 313 313 312 312 311 312 316 313 317 322 321 321 320 323 325 326 322 322 322 320 319 319 321 321 321 323 323 322 322 323 328 328 327 326 325 324 327 328 329 331 329 330
323 315 309 310 312 313 313 313 312 311 312 313 316 317 322 322 322 321 322 324 323 321 319 322 323 322 322 322 322 320 324 323 324 323 323 327 326 326 328 326 324 323 331 330 330 336 335
323 318 309 310 310 312 313 313 312 311 312 313 316 321 322 321 321 321 323 324 321 319 318 321 321 322 322 323 324 326 324 322 320 321 320 322 323 328 328 324 323 331 331 332 329 331 332
323 320 310 309 310 312 313 313 313 311 311 316 320 324 324 317 322 323 323 319 318 320 320 319 320 321 322 323 324 325 324 323 319 320 320 322 320 328 328 326 327 326 331 331 329 331 335
323 323 315 309 310 311 313 313 313 312 313 315 320 323 318 321 323 323 319 318 318 318 319 321 320 319 319 321 324 324 323 319 319 321 321 320 321 323 328 326 324 324 325 324 324 325 333
322 323 318 309 309 310 311 313 313 312 314 316 320 322 320 318 318 319 320 318 318 315 317 318 321 320 319 320 319 321 322 319 319 319 317 320 319 321 327 327 324 321 322 323 324 324 337
323 323 320 311 309 310 310 312 313 312 315 318 322 317 317 317 318 317 319 319 318 318 317 317 320 321 322 322 323 320 322 320 319 319 319 318 320 321 324 325 323 321 322 324 323 326 336
321 323 321 314 309 309 310 311 313 312 318 319 319 319 320 318 319 321 316 318 318 317 318 319 319 319 323 323 323 324 323 322 321 321 319 318 321 323 323 323 322 321 322 324 324 333 336
322 324 323 321 311 309 310 309 313 313 318 321 320 321 323 322 320 317 316 316 316 319 316 317 318 320 321 320 320 321 320 320 323 322 321 320 322 323 323 324 324 322 322 320 330 332 332
321 322 323 323 313 309 309 309 311 313 318 321 321 321 324 325 318 317 317 318 319 319 319 317 318 321 317 316 315 316 318 317 318 318 319 319 323 322 323 323 325 322 321 321 321 329 330
320 321 323 323 313 309 309 310 309 313 313 320 322 319 325 326 318 317 317 317 318 318 318 316 316 316 317 318 318 318 316 318 317 317 317 316 319 321 323 323 323 323 322 320 321 328 329
320 320 323 322 314 309 310 310 311 311 313 321 323 315 323 326 320 318 318 318 320 320 319 316 315 316 317 319 322 324 326 325 325 320 318 316 317 319 324 327 324 322 319 319 321 326 329
321 319 321 322 316 309 310 309 312 311 313 315 321 319 320 326 319 318 322 322 319 320 321 319 317 317 316 320 323 326 326 323 324 325 325 318 318 320 322 324 325 321 318 318 321 325 324
321 318 319 323 317 309 310 309 313 313 312 317 322 323 317 324 324 319 318 319 319 321 322 319 319 320 318 319 325 327 325 325 322 321 321 323 323 323 321 322 324 320 319 323 322 318 318
317 317 321 322 314 309 310 309 312 313 314 314 324 323 320 318 324 321 318 318 319 320 320 318 318 319 318 320 321 323 324 320 321 323 319 319 322 321 322 323 321 319 321 320 319 318 317

GFSGBSN_850_thetae_084.txt.gz
Theta_e
309 311 312 312 311 311 311 311 311 311 311 311 311 311 311 311 312 312 312 308 309 309 307 307 309 313 309 310 311 322 320 317 313 316 316 329 335 337 336 338 350 351 349 352 351 350 351
309 312 312 311 310 310 310 310 310 311 311 312 312 312 312 312 312 312 312 309 309 309 306 307 308 311 309 311 322 323 323 319 314 316 318 335 337 336 332 333 349 349 346 353 352 351 354
310 312 311 310 310 311 312 312 313 312 311 311 310 310 310 311 312 312 312 310 309 307 308 308 309 310 309 313 325 325 324 322 314 316 328 336 335 336 331 329 334 345 346 348 349 352 353
310 312 311 310 310 311 312 313 313 313 312 312 311 309 308 310 312 312 312 309 308 310 309 309 309 309 313 319 322 319 323 318 315 315 332 333 334 334 330 328 339 349 345 348 350 351 351
310 312 312 310 310 311 311 311 313 314 313 313 312 310 308 310 312 312 310 308 311 309 308 308 308 308 314 321 319 321 323 319 313 317 329 331 328 328 327 325 324 340 350 350 352 352 352
309 312 312 310 311 311 312 312 312 312 314 314 313 310 309 310 309 309 309 311 314 315 308 308 319 320 319 323 321 322 323 320 319 320 322 324 325 322 320 322 326 327 335 341 351 353 354
309 311 312 311 311 312 312 313 313 312 312 315 315 311 309 309 310 310 309 317 321 320 315 314 319 323 321 323 321 323 323 320 320 320 322 326 321 321 322 322 325 327 329 336 347 350 349
309 310 312 312 311 312 313 313 312 311 311 315 315 311 310 312 313 312 313 317 316 318 315 317 317 319 321 321 322 322 323 321 320 321 322 321 322 321 323 325 326 327 328 329 350 348 346
308 309 310 312 311 312 313 312 312 312 311 314 314 313 313 315 315 317 317 318 316 317 316 316 317 318 321 321 322 323 323 325 321 321 322 321 323 324 325 325 325 324 326 328 345 349 346
310 309 310 312 312 312 313 312 312 312 314 315 315 314 310 311 316 317 316 317 317 317 310 314 317 320 321 322 322 324 326 324 321 321 322 322 323 325 325 325 323 322 324 328 345 342 345
320 309 309 311 312 312 313 312 312 311 315 316 316 314 313 316 316 318 318 318 317 317 318 323 321 320 320 323 324 323 325 325 321 321 319 320 322 322 322 324 321 323 324 327 338 339 349
323 311 309 310 312 312 313 312 312 311 313 316 314 314 315 317 318 319 320 319 318 314 321 325 320 318 318 320 321 323 323 324 323 322 322 320 323 320 320 322 322 324 328 335 334 336 340
324 317 309 310 311 312 313 313 312 312 311 315 314 315 316 318 319 320 320 321 319 326 323 325 321 320 316 318 319 320 322 322 321 323 322 322 323 321 321 321 320 323 324 328 329 337 339
324 322 310 310 310 312 313 313 313 312 311 312 314 315 318 319 319 319 321 319 322 323 323 322 322 319 316 317 318 320 321 321 320 320 320 321 323 323 323 320 321 322 324 328 333 334 335
322 323 313 309 310 311 313 313 313 312 311 312 314 315 319 321 320 320 321 319 320 321 321 321 319 318 318 317 319 321 320 320 321 319 320 322 325 325 325 323 321 323 325 323 328 327 328
322 323 316 309 310 310 312 313 313 312 311 312 316 319 322 320 322 322 316 321 321 320 321 320 319 319 321 321 322 320 322 320 320 319 318 321 324 322 325 324 322 320 324 328 324 333 333
322 322 320 311 309 310 311 313 313 312 311 314 319 321 322 321 322 321 316 319 320 320 320 319 318 320 319 322 322 323 321 319 318 318 318 317 318 320 324 324 322 324 326 327 324 325 330
322 322 322 314 309 310 310 312 313 312 312 316 318 319 323 319 318 317 318 319 318 316 318 316 317 318 321 321 321 323 322 319 319 320 319 320 314 318 327 323 323 326 327 325 329 331 335
322 322 323 316 309 309 310 310 313 313 312 315 317 320 320 319 316 316 316 316 315 313 315 316 318 317 318 321 322 322 321 318 319 318 316 317 315 319 322 322 320 319 319 319 320 322 334
322 322 323 318 310 309 310 309 312 313 312 316 318 319 319 317 315 313 315 314 314 315 315 316 318 318 317 317 318 319 320 318 318 317 319 318 313 318 321 325 322 320 319 319 318 320 334
322 321 323 320 313 309 309 309 311 312 314 319 320 318 317 311 312 313 313 314 316 316 316 316 316 319 318 318 320 322 321 319 318 318 317 315 318 320 321 320 320 320 320 321 320 322 333
323 321 323 322 321 311 309 310 310 314 318 322 320 321 322 319 317 312 311 312 314 314 315 316 319 320 319 319 320 321 320 318 321 319 317 312 320 320 320 324 322 320 320 325 331 335 336
324 321 321 323 323 312 309 310 309 313 319 321 320 321 323 321 313 311 312 315 317 316 317 317 318 317 316 317 319 320 320 319 316 319 316 318 316 316 321 322 322 320 319 320 330 335 334
323 320 321 323 323 312 309 309 308 312 317 321 319 321 323 321 311 312 315 317 317 317 316 315 316 316 316 316 316 316 318 315 315 315 314 313 316 315 318 319 323 320 319 319 327 330 328
321 320 320 323 322 312 309 309 309 312 314 322 322 317 324 322 319 314 314 315 317 317 315 315 315 315 317 317 313 312 312 314 317 314 313 311 312 314 318 318 319 322 319 319 319 327 328
322 320 319 322 322 314 309 309 309 310 313 321 321 316 321 325 316 317 316 317 315 314 314 315 315 316 318 314 315 320 317 322 322 321 313 311 309 313 317 322 321 319 318 318 321 324 325
322 321 319 319 322 315 309 309 310 311 312 315 321 320 317 325 322 320 319 318 318 317 313 316 316 317 315 313 318 314 317 321 318 324 321 316 311 313 318 320 322 319 318 318 321 320 324
322 320 318 319 322 314 309 309 310 311 312 315 322 322 319 319 322 319 318 319 321 320 314 317 315 318 313 314 317 313 312 315 313 319 319 318 314 311 314 316 318 320 319 319 317 318 322
317 316 317 320 322 313 309 309 311 312 313 315 323 321 320 315 322 320 318 318 319 320 318 317 319 318 316 314 315 314 314 315 314 314 315 313 316 315 316 316 318 320 320 318 317 318 319

GFSGBSN_850_thetae_090.txt.gz
Theta_e
312 311 310 310 311 311 312 312 312 312 312 312 311 310 308 308 310 312 312 311 312 308 309 309 306 307 311 314 315 323 320 313 317 319 319 323 325 335 338 339 347 346 350 348 349 349 349
312 312 310 310 311 311 311 311 311 312 313 313 313 311 309 309 310 311 312 311 312 309 309 307 306 307 310 312 313 317 318 313 314 318 318 320 329 338 337 336 346 347 350 348 349 350 350
311 312 310 310 311 311 312 312 312 312 311 313 314 312 309 310 310 311 312 312 310 309 308 308 308 308 310 317 317 322 320 313 314 317 317 323 332 335 334 331 333 346 349 350 348 350 351
309 311 312 310 311 311 312 312 312 312 311 311 314 312 310 310 309 310 311 309 309 310 309 309 308 308 312 316 320 324 320 317 316 316 317 318 334 334 333 330 337 346 346 352 351 351 350
308 309 312 311 310 311 312 312 312 311 311 311 313 312 309 309 309 309 309 311 312 312 309 309 309 310 313 316 321 323 322 319 317 316 315 322 323 329 326 322 323 335 345 348 354 350 351
309 309 309 312 311 311 312 312 312 311 312 311 313 313 311 312 312 310 311 318 318 317 309 309 310 317 318 320 320 322 319 319 316 316 316 321 323 319 318 320 327 336 341 343 353 349 352
321 309 309 310 311 311 312 312 312 311 313 314 314 313 312 315 312 312 311 314 317 317 316 317 316 316 316 320 321 319 317 318 315 318 319 321 322 323 325 321 323 329 331 334 344 349 353
323 317 308 309 311 311 311 312 312 311 311 314 315 314 311 314 314 315 315 316 317 317 316 316 317 316 316 316 318 319 319 318 317 317 319 319 322 321 323 321 324 325 326 346 349 351 350
323 323 310 309 310 311 311 312 312 311 311 312 314 314 313 311 315 317 316 317 317 318 314 315 315 316 317 319 319 320 321 318 317 320 320 321 323 320 322 323 323 323 325 327 348 347 348
321 323 320 308 309 311 311 312 312 312 311 310 312 313 314 314 316 316 317 318 318 318 310 317 319 318 319 320 319 321 322 320 318 319 319 322 322 322 323 324 322 324 321 329 349 348 350
322 321 323 312 309 310 311 312 312 313 311 311 310 313 315 315 316 317 318 318 320 315 320 320 321 319 319 319 320 321 322 322 318 319 319 322 320 322 323 323 321 324 321 326 346 340 345
323 321 322 319 309 309 310 311 312 312 311 311 310 313 316 317 317 318 318 319 318 315 322 321 320 319 316 318 320 321 322 323 321 319 319 320 320 319 320 320 321 323 322 326 329 334 343
324 322 322 320 309 309 310 310 312 312 311 311 311 313 316 317 318 318 319 321 315 318 319 318 319 318 318 316 318 320 320 320 319 319 320 321 321 320 319 320 318 319 318 326 338 340 340
324 322 322 321 312 309 310 310 311 312 311 311 312 314 317 319 319 319 320 313 319 319 320 318 319 315 319 316 318 319 319 319 318 317 316 320 321 320 319 319 318 317 317 324 339 338 338
323 323 321 322 320 312 309 309 309 311 311 311 314 315 318 319 320 320 320 315 315 317 318 318 317 318 318 318 317 319 318 318 319 317 320 318 321 320 319 317 318 320 318 317 322 322 333
323 323 321 322 320 314 309 309 309 310 311 313 315 317 319 320 320 321 315 317 317 316 318 316 318 318 320 319 320 319 317 317 318 317 316 317 320 320 321 319 320 320 319 324 320 329 331
324 323 321 322 320 314 309 309 309 310 311 316 317 320 322 321 320 321 314 315 318 316 318 316 317 320 319 321 321 320 317 317 317 317 316 314 316 319 320 320 318 322 325 319 320 322 334
324 323 322 322 321 315 309 308 309 309 311 316 318 315 321 320 317 312 314 315 313 313 315 316 315 316 319 320 321 318 317 316 316 318 318 315 311 318 321 318 317 318 319 320 324 329 329
323 325 322 321 321 318 313 308 309 310 312 319 318 318 319 320 313 311 313 313 314 312 313 313 316 316 317 318 321 320 317 317 317 315 316 315 314 319 319 318 316 317 316 315 316 323 333
324 324 323 321 323 322 317 308 309 311 317 319 319 311 314 318 312 311 312 313 314 316 316 315 316 315 317 318 319 321 321 319 319 321 319 316 313 318 319 319 317 318 317 319 314 320 325
325 324 324 321 322 322 317 308 308 312 320 319 318 312 315 310 311 309 311 312 314 314 314 317 318 317 316 318 318 320 318 318 318 317 314 314 318 318 319 318 318 319 319 321 328 318 327
324 324 324 320 320 322 316 309 309 313 320 320 319 319 320 317 312 311 308 312 314 313 314 317 317 315 316 318 318 318 317 316 318 315 315 313 319 318 320 320 323 324 320 324 331 332 331
324 325 322 319 320 322 314 309 308 314 320 319 318 320 321 315 308 309 309 313 314 315 315 316 316 314 313 314 316 315 315 314 311 313 312 314 314 317 321 317 325 326 322 327 329 329 329
324 325 322 319 320 321 314 309 309 312 319 317 316 321 320 314 310 313 315 315 315 314 314 314 316 315 315 316 314 314 314 315 312 307 308 312 312 312 318 317 326 321 319 325 328 327 326
323 324 322 320 319 321 317 309 309 309 317 319 315 319 322 314 314 312 314 314 315 313 313 313 314 315 316 317 311 310 311 313 316 309 307 307 310 313 315 316 316 319 316 317 320 326 323
320 323 323 320 319 320 320 309 309 310 312 320 317 317 322 316 313 315 313 314 312 312 311 314 314 316 317 311 313 316 313 320 319 318 313 308 306 313 314 317 317 314 317 318 318 320 323
316 322 323 321 319 318 321 310 309 310 311 318 318 316 321 321 320 316 314 314 315 312 310 312 314 315 314 311 314 309 314 317 315 321 319 309 309 312 315 315 316 315 317 318 321 319 323
312 321 322 321 318 317 321 310 309 310 311 317 319 316 319 319 320 318 318 317 317 315 312 314 313 314 309 314 313 308 310 311 311 315 317 312 310 307 310 313 315 317 317 318 315 318 322
314 313 319 317 316 317 321 310 309 311 312 317 321 320 318 318 319 318 318 319 320 319 317 315 315 315 313 311 311 308 310 310 307 309 311 313 313 313 311 312 312 318 318 317 317 318 320

GFSGBSN_850_thetae_093.txt.gz
Theta_e
312 311 310 310 311 311 312 312 311 311 312 313 313 312 309 308 310 311 311 312 311 312 309 309 308 306 310 314 317 320 319 310 316 321 323 322 327 341 341 341 344 348 350 348 349 350 349
310 312 310 310 311 311 312 312 312 312 311 311 313 313 310 309 310 311 312 312 311 311 309 309 307 307 309 315 313 317 318 312 320 322 323 324 333 342 339 339 344 348 350 349 349 350 348
309 311 311 310 310 311 312 312 311 311 311 311 313 313 309 309 309 310 311 311 310 309 309 309 308 308 309 315 316 321 315 313 319 319 319 326 337 338 336 333 335 349 351 350 350 350 350
308 309 311 311 310 311 311 312 311 311 311 311 313 312 309 309 309 309 309 309 310 310 309 309 309 309 311 314 317 320 311 311 315 317 318 327 335 334 334 330 338 349 351 355 350 349 349
316 308 309 311 311 311 311 312 311 311 312 312 313 312 311 312 311 309 311 315 314 314 309 309 310 310 313 315 317 321 315 315 315 317 319 325 331 330 327 328 347 345 354 353 353 349 350
323 317 308 309 311 311 311 312 311 311 311 314 314 313 311 314 311 311 313 316 316 317 312 313 311 317 318 319 319 322 317 317 316 315 319 320 324 331 326 328 341 350 349 350 354 352 351
321 323 312 308 309 311 311 312 312 311 311 312 314 314 311 314 312 313 315 315 317 316 317 317 316 316 316 319 320 320 319 314 316 317 322 323 333 338 333 327 329 344 345 345 345 350 351
321 322 321 309 309 310 311 312 312 311 311 310 313 313 313 312 313 316 315 317 317 317 317 316 316 316 316 316 318 318 317 316 316 318 321 326 334 331 328 325 327 331 338 337 351 350 350
323 321 323 317 308 309 311 311 312 312 311 311 310 313 314 312 315 316 316 317 317 317 316 315 315 315 316 317 318 319 318 317 317 322 325 326 330 325 327 326 327 328 331 350 349 349 345
324 322 321 322 310 309 310 311 312 312 312 311 310 312 314 314 316 316 316 317 319 317 318 321 320 318 319 319 321 320 320 318 319 321 326 329 324 326 325 327 327 330 327 335 351 350 354
323 323 321 322 314 308 309 310 311 312 312 310 310 311 314 315 316 317 317 318 319 314 323 321 322 319 319 319 320 320 321 320 320 322 324 326 325 325 326 327 326 330 325 331 348 347 350
322 323 321 322 316 309 309 309 310 311 312 310 310 311 315 316 316 317 317 319 316 319 321 321 320 320 318 318 320 320 321 321 320 322 323 324 321 325 326 324 326 326 330 335 341 344 343
322 324 321 321 320 313 309 309 309 310 311 311 311 312 316 316 317 317 318 320 321 322 320 320 320 320 320 319 321 322 322 323 325 324 325 324 323 322 322 323 323 324 324 334 337 341 334
322 324 322 321 321 319 312 309 309 309 311 310 312 313 316 317 318 319 320 320 322 321 321 320 319 317 321 318 320 321 324 325 321 322 323 325 325 324 322 324 324 325 326 331 337 340 339
322 324 322 321 322 318 312 309 309 308 310 311 314 315 316 318 319 320 320 322 320 320 319 320 320 321 322 319 319 322 322 325 324 323 324 324 323 322 321 323 324 323 324 327 333 331 338
324 324 322 321 322 319 313 309 309 308 310 313 316 317 318 320 320 320 321 319 320 317 319 318 322 321 323 322 323 323 321 319 321 320 320 323 324 323 323 321 321 324 324 327 327 336 338
324 324 323 321 321 320 315 309 308 308 311 315 317 320 321 320 319 320 321 320 319 316 317 318 319 322 322 324 323 323 320 318 318 319 319 321 323 324 324 325 325 325 326 326 329 331 334
325 324 324 323 322 321 318 312 308 308 311 317 318 322 320 320 320 315 321 318 314 314 314 317 317 320 322 322 323 320 320 319 316 319 321 319 323 325 323 320 320 322 327 329 328 334 338
325 324 324 324 321 322 322 314 308 309 315 319 318 318 318 319 319 318 317 314 315 317 316 318 318 319 319 321 324 322 320 317 318 318 320 319 322 326 324 323 323 326 323 323 328 335 339
325 325 324 324 321 321 322 313 308 310 318 318 318 318 314 317 312 316 316 315 317 315 317 317 320 318 320 322 322 323 322 320 319 322 319 318 320 326 327 325 323 328 328 321 326 329 336
322 323 325 324 320 320 321 311 308 311 320 319 317 316 313 317 315 313 314 315 316 317 316 318 321 319 319 322 321 322 320 320 321 318 318 321 323 323 323 324 325 326 332 333 325 325 331
321 323 324 323 319 321 320 309 309 313 320 319 319 320 318 317 311 314 313 315 315 315 317 320 319 317 320 322 320 321 319 320 319 319 321 320 325 322 324 323 326 325 328 335 334 334 334
316 322 324 322 319 321 319 309 309 312 319 318 319 321 319 313 312 315 315 316 317 316 315 316 317 317 318 316 316 317 314 312 312 317 320 321 321 325 326 323 327 328 326 327 330 333 333
316 321 323 323 319 320 320 310 309 310 318 316 317 321 319 316 315 316 316 317 316 316 315 314 316 317 315 314 313 314 315 317 316 313 312 321 321 321 325 327 327 324 323 326 328 330 330
313 316 321 323 320 318 321 313 309 309 315 318 315 319 321 317 314 315 316 316 314 314 315 314 315 315 316 316 317 319 318 318 320 317 314 317 321 322 326 325 322 322 320 321 324 326 329
314 313 320 322 320 319 319 318 309 309 311 318 316 317 322 318 317 314 315 315 317 317 316 314 313 315 316 319 321 320 322 321 321 319 318 317 319 322 323 322 323 321 320 319 321 325 328
315 313 319 323 320 320 318 320 309 309 310 315 317 316 320 321 320 315 317 318 315 314 318 315 315 315 315 321 323 325 325 322 325 321 321 319 320 321 323 322 320 320 319 319 326 325 324
316 314 314 322 321 320 317 320 309 309 310 313 318 316 320 319 319 316 317 316 316 315 319 315 317 317 317 323 322 323 326 322 322 321 323 320 322 322 320 322 323 319 320 322 321 320 321
315 316 313 317 320 315 316 319 309 310 311 313 319 318 317 318 319 318 318 319 319 319 317 314 318 317 316 321 320 317 322 319 317 322 317 325 321 328 321 322 318 318 320 317 317 320 321

GFSGBSN_850_thetae_096.txt.gz
Theta_e
311 311 310 311 311 311 312 312 312 312 311 311 313 314 309 310 310 310 311 312 312 311 311 309 309 307 309 318 319 316 319 312 310 325 323 323 325 339 351 346 346 351 351 350 350 351 350
309 311 311 310 311 311 312 312 311 311 311 311 312 313 309 309 310 310 311 311 311 311 310 309 308 307 311 319 318 314 319 311 321 323 323 323 326 340 346 345 346 350 350 349 350 350 349
308 309 311 311 311 311 311 312 311 311 312 311 312 312 310 309 309 309 310 311 310 309 309 309 308 308 314 317 316 321 321 324 323 322 324 324 328 342 341 337 340 348 352 350 351 350 349
321 309 309 311 311 311 311 312 311 311 312 312 313 312 311 312 310 309 309 310 311 309 309 309 309 309 315 314 316 321 319 323 323 320 322 326 339 340 338 335 348 353 353 358 352 351 350
322 322 309 309 310 311 311 312 311 311 311 314 314 313 312 313 311 312 317 317 318 316 311 311 312 314 317 315 318 319 315 317 318 319 319 325 336 337 334 341 353 351 358 356 356 349 351
321 323 318 308 309 311 311 311 312 311 311 312 314 313 311 314 312 314 314 315 317 318 315 315 312 320 319 321 320 319 317 318 318 319 319 326 335 340 336 341 354 353 356 356 358 353 348
323 321 323 311 309 310 311 311 312 312 311 311 312 313 312 313 313 316 316 317 320 321 320 320 319 319 319 321 321 320 318 318 318 318 322 323 336 344 339 336 335 347 349 353 353 352 351
324 322 322 321 309 309 310 311 312 312 312 311 310 312 314 312 314 316 317 318 319 318 320 319 318 318 318 319 321 321 318 319 319 320 323 325 332 338 339 332 335 343 350 351 351 352 352
322 323 321 322 314 309 309 310 311 312 312 311 311 311 313 313 316 316 317 318 318 317 321 320 318 319 320 319 321 321 320 320 320 320 324 325 327 335 335 331 334 339 346 345 353 350 348
321 323 321 322 318 309 309 309 310 311 311 312 311 311 313 314 316 316 318 318 318 318 323 323 322 320 320 321 322 321 320 321 319 320 322 324 327 332 335 337 334 338 334 345 353 351 354
321 323 321 322 318 310 309 309 309 310 311 311 311 311 314 315 316 318 318 317 319 316 323 322 322 320 321 323 322 321 320 321 321 320 324 326 327 331 333 336 334 335 331 339 344 348 350
321 323 322 321 320 316 311 309 309 309 310 311 310 311 314 316 316 317 317 318 317 322 324 322 322 322 322 322 323 321 322 322 322 322 324 327 327 329 330 332 332 330 332 336 342 346 351
322 324 322 321 321 321 316 311 309 309 309 310 310 312 315 316 319 317 317 320 325 323 322 322 322 322 323 323 324 324 324 324 325 325 323 326 327 327 328 331 331 331 334 337 340 343 342
324 324 322 321 321 320 316 312 309 309 309 310 312 313 315 316 317 319 320 324 323 322 323 322 322 322 322 322 324 325 325 325 325 325 324 327 327 327 326 328 330 332 333 337 342 343 340
324 324 323 322 322 321 319 314 309 309 309 311 314 315 316 318 319 320 323 322 323 322 321 322 323 323 322 322 323 325 325 325 325 325 325 325 326 326 325 326 327 331 333 333 335 337 339
325 325 324 323 321 321 320 316 309 308 309 312 316 319 320 319 319 320 323 320 322 321 321 322 324 324 324 322 322 324 324 325 326 325 326 326 326 324 325 325 325 327 329 334 334 339 339
324 325 324 323 323 322 321 319 309 308 310 315 317 320 321 320 320 322 323 322 321 319 319 321 322 324 324 324 323 323 325 323 324 325 325 326 326 325 325 325 325 326 327 327 332 334 336
320 325 325 324 324 322 322 321 311 308 311 318 320 324 321 320 323 321 322 320 316 317 318 320 321 323 325 325 323 324 324 324 320 323 325 326 326 329 325 326 326 326 326 328 329 335 334
313 325 324 324 324 321 321 321 311 308 315 319 322 323 320 320 323 322 321 318 318 318 318 319 321 322 324 325 326 323 323 321 321 322 325 325 326 329 328 327 326 326 327 329 329 329 335
313 322 323 324 323 320 320 320 309 309 318 318 322 323 320 320 319 320 320 319 319 318 318 319 322 322 323 325 325 324 323 321 321 322 318 320 326 329 328 326 327 329 328 328 329 329 330
313 318 323 324 322 319 321 316 309 310 319 318 320 322 318 320 319 319 319 318 318 318 318 318 323 322 323 324 324 323 323 323 322 322 323 325 328 328 328 327 328 328 328 327 328 328 330
313 314 321 324 322 319 321 314 309 311 319 321 324 323 320 320 319 319 316 319 318 317 319 318 321 321 322 324 324 322 322 322 322 322 324 326 326 327 328 328 327 331 332 330 329 329 329
312 314 317 322 323 318 321 315 309 310 318 321 321 322 324 317 319 320 320 319 317 317 318 320 320 321 321 320 319 320 319 319 319 323 325 325 327 327 328 327 329 329 329 330 332 332 333
312 313 314 321 323 319 321 317 309 309 317 316 318 323 324 320 320 319 318 317 317 318 317 314 320 320 318 317 317 318 319 320 320 320 322 325 329 328 327 328 330 328 327 328 330 331 332
314 314 313 318 322 319 319 320 310 309 313 317 315 322 324 320 319 319 318 317 318 318 317 315 318 318 318 318 321 322 322 322 322 321 321 325 326 327 328 329 327 326 326 326 327 330 330
315 316 314 313 323 320 318 320 311 309 310 316 316 317 324 322 320 318 318 319 320 320 319 316 317 317 319 321 322 324 324 324 324 322 321 322 324 325 324 327 328 327 323 322 324 329 328
316 317 316 313 323 321 319 319 314 309 309 312 318 315 323 323 319 318 319 320 319 319 320 319 319 319 319 320 322 324 326 325 324 323 324 323 324 325 324 324 323 324 322 322 327 329 328
317 317 317 314 320 321 320 318 316 309 310 310 320 316 321 323 322 319 318 320 319 319 321 320 320 320 320 321 322 325 325 325 325 325 324 323 324 324 324 324 325 322 323 325 326 324 325
317 317 317 316 313 320 317 317 315 309 310 310 320 317 317 322 323 319 320 319 320 321 320 319 322 320 320 321 322 323 322 323 324 325 323 327 323 326 323 325 323 323 323 322 323 323 324

GFSGBSN_850_thetae_099.txt.gz
Theta_e
310 312 310 311 311 311 312 312 311 311 311 311 311 313 310 309 310 310 311 312 312 311 312 309 310 308 309 321 323 322 321 316 311 321 328 326 327 340 350 351 349 351 352 351 351 350 351
308 309 312 311 311 311 311 312 311 311 312 311 312 313 310 310 310 310 311 311 311 311 311 310 309 307 311 322 320 324 321 311 316 325 325 325 326 331 346 350 350 351 351 350 351 352 352
320 309 309 311 311 311 311 312 311 311 312 312 313 312 311 311 310 310 310 310 310 310 310 310 309 308 319 320 319 326 322 319 320 324 326 324 325 330 346 348 346 350 353 351 352 351 350
322 321 309 309 311 311 311 312 311 311 312 314 314 313 311 313 311 313 316 317 314 311 312 311 310 312 321 317 319 325 324 325 322 323 325 325 326 333 344 341 349 356 353 358 353 350 350
322 322 317 309 309 310 311 311 312 311 311 312 314 313 312 313 312 314 315 316 317 318 315 314 318 320 321 316 319 323 322 325 323 323 324 325 333 340 342 345 355 356 359 358 356 351 351
323 322 322 311 309 309 311 311 312 312 311 311 312 313 312 314 313 315 316 316 317 318 317 316 319 321 320 321 322 320 319 320 320 321 322 322 335 342 343 346 360 356 356 357 360 354 352
323 322 322 321 309 309 310 311 311 312 312 311 311 312 313 313 314 316 317 321 324 327 324 323 321 320 321 322 323 321 320 319 319 321 324 323 334 342 342 343 346 349 351 352 356 350 350
321 323 321 322 314 309 309 310 311 311 312 312 311 311 313 313 315 316 317 321 320 320 322 321 319 319 321 322 324 322 321 321 320 322 324 325 331 336 341 340 340 346 351 350 354 350 348
321 323 322 322 318 309 309 309 310 311 311 311 311 310 313 312 315 316 318 319 319 320 324 321 320 320 319 320 323 323 321 321 322 321 324 326 327 330 339 341 338 341 351 347 348 352 347
322 323 322 322 318 310 309 309 309 310 310 311 311 310 313 314 317 319 320 321 320 321 326 324 323 322 322 321 322 324 322 322 322 322 324 326 327 329 340 341 337 340 347 349 351 354 363
323 323 322 321 320 315 311 309 309 309 309 310 310 311 313 315 319 321 321 320 320 321 328 323 323 323 323 323 324 323 323 323 324 322 323 324 326 328 335 337 338 338 337 351 353 352 353
323 324 322 321 321 321 318 313 309 309 308 309 310 311 313 315 317 319 320 320 321 325 326 324 323 324 324 323 324 323 322 323 324 324 323 325 326 328 332 333 336 337 335 338 347 350 355
324 324 323 322 321 321 318 315 311 309 308 309 310 312 314 317 322 320 320 322 329 325 323 324 324 323 324 324 325 324 324 325 326 325 324 325 328 329 329 331 334 338 337 340 343 356 349
325 325 324 323 322 322 321 318 313 309 308 309 311 313 315 316 320 320 321 327 327 322 324 322 323 323 322 324 325 325 325 326 326 326 327 324 327 329 328 331 333 337 337 341 345 344 345
322 325 325 324 323 322 321 320 316 308 308 309 314 315 319 321 319 321 324 330 325 323 322 323 324 324 323 323 324 325 326 326 326 327 327 326 326 328 328 329 331 333 339 338 339 340 345
313 323 325 324 323 324 322 321 319 308 308 310 316 321 322 322 321 322 327 320 324 322 322 323 324 327 326 324 322 325 326 326 326 326 327 329 328 328 327 327 328 329 333 338 338 342 344
311 316 325 325 324 324 322 322 321 309 309 313 317 322 323 321 322 323 327 324 322 320 319 322 323 324 326 326 324 324 326 326 327 328 326 328 328 328 327 327 328 328 329 333 336 336 339
313 315 325 324 325 324 322 322 321 309 310 317 322 324 323 321 325 324 324 321 316 319 319 320 322 323 325 327 325 324 327 326 323 326 327 327 328 329 327 327 326 327 327 330 333 338 335
313 312 321 323 325 323 320 320 319 308 314 318 324 325 322 321 326 324 323 320 319 320 319 319 322 322 325 325 327 326 325 324 323 324 327 327 327 329 330 327 326 326 327 327 328 330 333
313 313 314 323 324 322 319 321 315 308 316 319 325 325 322 321 323 322 322 321 321 319 318 318 322 322 323 325 325 326 325 324 323 323 320 323 327 328 331 330 328 327 327 327 328 329 329
314 312 314 317 324 322 319 321 311 309 318 319 324 325 323 323 322 321 321 321 319 320 319 318 322 322 323 325 325 326 325 324 324 324 325 326 328 329 329 330 330 327 326 327 328 330 331
314 313 313 314 323 323 319 321 310 309 319 320 326 324 321 322 321 321 317 322 319 318 319 320 320 322 322 325 327 326 324 325 326 324 326 328 331 331 330 329 329 328 329 328 328 328 329
314 314 313 314 320 323 319 321 310 309 318 324 324 324 325 321 321 322 323 321 319 317 318 320 321 322 322 323 322 323 322 323 325 324 326 328 331 333 333 329 330 331 331 330 329 329 329
313 314 315 314 316 322 319 321 313 309 315 320 324 326 324 325 322 321 320 318 318 319 319 316 320 321 321 320 320 321 321 321 322 322 324 327 330 330 334 333 331 330 330 331 332 333 332
313 314 315 315 313 322 319 319 319 309 310 316 322 325 326 326 321 321 319 319 319 319 319 316 318 321 319 319 323 323 324 325 324 323 324 325 327 332 332 332 331 331 330 330 330 332 332
313 314 315 317 313 320 320 318 320 311 309 313 321 322 326 326 322 319 320 319 322 323 320 318 318 319 319 322 322 325 328 328 327 324 324 324 326 329 330 332 333 330 327 326 326 333 331
313 314 316 317 316 315 321 319 319 315 309 310 321 316 324 324 322 320 320 321 320 322 323 320 319 318 319 323 323 324 328 327 327 325 325 325 326 326 327 326 330 328 325 324 327 331 331
313 315 317 317 317 314 322 320 318 317 309 309 322 320 325 323 323 321 321 320 319 321 323 322 321 321 322 324 323 325 326 326 325 326 327 327 328 327 327 330 329 324 324 326 330 327 329
316 316 317 317 317 314 321 321 318 318 309 310 319 321 317 325 325 322 321 321 321 322 321 321 323 322 323 323 323 325 324 325 323 325 325 327 325 328 326 331 327 325 327 326 326 327 327

GFSGBSN_850_thetae_102.txt.gz
Theta_e
309 311 312 311 311 311 311 312 311 311 312 311 312 313 310 310 310 310 311 311 312 312 312 312 310 310 309 324 323 325 320 316 313 314 326 330 329 337 348 350 351 352 351 352 352 351 350
317 309 309 311 311 311 311 312 311 311 312 312 313 313 311 311 310 310 310 310 311 311 311 310 310 309 310 322 323 325 324 317 314 318 326 330 328 331 344 347 351 352 351 351 352 351 351
322 319 309 309 311 311 311 312 311 311 312 314 314 313 311 312 311 313 314 314 312 311 311 310 310 309 318 322 320 324 325 317 316 320 326 327 327 329 334 345 350 349 354 352 354 354 352
322 322 317 309 309 311 311 311 312 311 311 312 313 313 311 313 313 315 316 317 317 314 314 313 311 309 322 319 321 325 325 322 318 322 327 327 326 327 331 344 346 353 353 359 354 353 349
323 322 322 312 309 309 310 311 312 312 311 311 311 312 311 313 313 315 315 315 317 319 318 315 322 318 323 318 317 323 325 325 324 322 325 327 326 328 333 345 352 356 361 359 357 352 352
323 322 322 321 309 309 310 311 311 312 312 311 311 311 313 313 314 316 316 317 320 316 319 316 317 323 322 321 320 325 323 325 325 324 325 325 327 332 340 345 356 356 359 357 359 355 352
321 323 322 322 316 309 309 310 311 311 311 312 311 310 312 313 314 316 316 321 326 325 325 324 323 321 323 323 323 322 321 323 323 323 325 324 326 336 343 344 346 346 356 357 348 347 352
322 323 322 322 321 310 309 309 310 310 311 311 311 310 312 312 314 316 316 321 321 321 323 325 320 319 321 323 323 323 321 321 321 322 323 326 325 330 338 343 351 349 350 353 343 340 350
323 323 322 322 320 312 309 309 309 309 310 310 311 310 312 312 314 316 318 321 321 322 325 323 320 320 320 320 323 324 322 322 322 322 323 325 326 328 334 339 343 348 349 347 345 340 343
324 323 322 321 321 316 312 310 309 309 309 309 310 310 312 313 318 321 322 322 322 323 327 325 323 323 321 321 322 324 323 323 324 323 322 324 326 328 330 335 342 352 345 345 345 343 350
324 324 323 322 321 321 320 316 312 309 309 308 309 310 312 313 320 320 322 322 322 323 332 324 324 323 324 322 323 324 324 322 324 324 323 323 325 327 328 333 341 341 345 346 345 344 347
324 324 324 323 322 321 320 317 315 311 309 308 309 310 312 314 316 321 321 323 323 327 330 324 324 324 324 323 325 325 325 324 324 325 323 324 325 327 327 332 336 336 342 345 344 346 355
319 324 325 324 323 322 322 320 318 314 309 308 309 310 313 317 324 322 322 322 329 331 324 325 324 324 324 324 325 325 324 325 325 326 326 324 324 327 328 329 333 338 340 350 355 354 356
312 317 324 325 324 324 323 322 321 317 309 308 309 311 314 318 320 322 322 326 332 325 324 323 323 323 322 326 325 325 325 324 325 327 326 325 324 328 329 330 331 336 340 340 351 352 356
313 312 319 325 324 323 324 323 321 319 309 308 310 315 316 320 320 320 324 331 331 324 323 323 324 326 326 324 324 326 325 325 326 326 328 328 326 326 328 329 330 333 335 337 339 342 348
315 313 313 324 325 325 324 324 321 320 309 308 312 322 323 323 322 323 326 328 326 323 322 322 323 326 327 327 325 325 326 326 326 326 326 328 330 328 328 328 329 331 333 335 342 344 348
316 314 314 324 323 325 325 324 322 321 308 309 314 324 324 322 322 323 328 327 324 321 319 320 322 324 325 328 327 326 326 327 327 328 328 327 330 331 328 328 328 328 329 331 334 340 343
316 314 313 318 323 325 323 321 321 320 309 319 323 324 325 322 323 325 327 325 319 319 319 320 321 321 323 327 327 328 329 328 325 327 329 329 329 330 330 328 328 327 328 329 333 337 337
316 315 313 313 320 324 322 319 320 314 309 318 324 325 326 322 325 328 325 322 319 320 319 319 320 323 323 326 326 327 328 326 325 325 328 328 329 330 330 330 328 327 327 328 328 331 336
317 315 314 313 314 324 322 319 320 311 309 318 324 329 325 322 323 326 326 322 321 321 320 319 320 322 323 325 326 326 328 325 324 324 322 325 327 329 329 332 331 327 326 327 327 328 329
317 314 314 313 313 322 323 319 321 310 310 318 323 327 325 323 323 323 322 323 321 320 320 319 321 322 323 326 327 328 326 327 324 323 324 326 328 329 328 329 330 331 327 327 329 328 330
318 314 314 314 313 317 323 319 321 310 311 319 324 328 327 324 323 322 318 321 321 320 320 321 321 321 322 323 327 327 326 325 328 327 326 327 329 331 333 330 331 331 331 327 327 328 329
317 313 314 314 314 313 323 319 321 310 314 325 326 327 327 324 323 322 322 323 321 320 319 318 321 322 323 325 323 324 322 324 327 327 327 329 332 334 337 334 332 331 332 331 328 328 329
317 313 313 314 316 313 322 319 321 311 309 317 325 326 328 327 324 322 322 320 319 320 321 318 319 321 323 322 321 321 321 322 323 324 324 328 332 331 337 333 335 333 331 331 335 330 339
315 313 313 314 316 314 317 320 319 317 308 313 320 324 327 331 327 322 322 320 319 320 318 318 318 320 321 319 322 324 324 325 324 323 325 326 331 334 336 334 333 332 332 331 334 336 334
313 313 313 314 316 317 313 321 318 320 310 309 317 324 325 328 327 322 321 320 321 323 323 319 318 319 319 321 323 327 329 330 329 326 324 327 331 333 333 336 335 333 329 328 330 337 332
313 313 314 315 316 317 315 320 319 319 314 309 317 323 323 327 326 322 321 322 320 323 324 322 320 319 319 324 324 329 329 326 326 330 326 329 330 329 329 333 332 329 328 326 329 335 331
312 313 315 316 316 317 317 317 320 319 317 309 318 323 323 327 326 323 321 322 321 322 325 323 322 322 322 324 324 327 327 328 328 328 329 330 329 330 332 334 334 327 327 327 332 329 331
313 316 316 316 317 317 317 319 321 319 318 310 311 324 322 324 328 326 322 321 321 323 323 324 325 326 323 325 325 325 325 325 326 326 326 328 329 331 330 335 329 327 329 328 329 329 329

GFSGBSN_850_thetae_105.txt.gz
Theta_e
314 309 310 311 311 311 311 312 311 311 312 312 312 313 310 311 311 310 310 311 311 311 311 312 310 310 308 321 320 323 323 318 314 312 315 326 329 330 346 350 349 353 352 349 348 344 349
322 318 309 309 311 311 311 311 311 311 311 313 314 313 311 312 312 313 313 311 311 310 310 310 310 310 308 318 325 324 325 320 315 313 319 328 330 329 333 346 348 351 350 353 349 353 352
322 322 317 309 309 311 311 311 312 311 311 311 313 312 311 312 314 316 317 318 314 313 313 312 310 309 309 314 321 322 326 325 314 313 321 328 330 329 329 333 348 350 354 354 352 352 354
323 322 322 313 309 309 310 311 311 312 311 311 311 312 311 312 314 315 315 315 317 317 316 314 312 311 312 322 319 321 325 324 317 317 323 326 327 327 326 333 345 351 353 357 355 352 351
323 322 322 321 310 309 310 310 311 311 312 311 311 311 312 312 314 315 316 316 317 316 318 315 319 326 323 320 319 319 326 324 321 319 322 326 327 326 326 328 340 354 356 356 357 352 352
322 323 322 322 320 309 309 309 310 310 311 312 311 310 311 312 314 315 315 317 320 321 318 321 316 322 323 322 321 320 325 325 324 323 322 323 326 324 324 327 345 353 354 355 355 347 346
322 323 322 321 322 313 309 309 309 310 310 310 311 311 311 312 313 315 316 318 324 325 320 325 325 323 322 323 323 324 324 324 325 324 322 326 323 324 326 331 337 350 353 349 349 343 343
323 323 322 321 322 316 310 309 309 309 309 309 310 311 311 312 313 315 315 318 322 322 322 324 324 324 319 321 323 323 322 322 324 321 322 321 321 322 325 339 347 346 347 349 345 341 340
324 324 323 322 321 318 313 311 310 309 309 309 309 310 310 312 314 316 318 321 322 322 323 325 325 321 319 319 320 324 322 321 320 319 320 320 322 324 324 344 344 347 349 348 347 342 339
324 324 324 322 322 321 320 319 317 313 310 309 308 310 311 312 318 322 322 323 322 322 323 327 322 321 321 320 320 321 323 322 322 320 320 319 322 324 324 340 343 349 345 344 344 344 348
319 324 325 324 323 321 321 320 318 317 314 310 308 309 310 312 316 319 322 322 323 323 329 324 323 323 323 321 322 322 324 323 322 322 322 319 320 321 324 328 343 348 344 343 341 343 348
313 314 322 325 324 323 322 322 321 320 318 313 308 309 311 313 315 322 322 322 322 325 330 324 323 323 322 322 323 324 324 323 323 322 323 321 323 322 324 329 340 343 343 343 343 345 350
315 312 314 322 325 323 324 323 323 322 321 315 309 309 311 313 318 321 322 323 325 331 329 325 323 323 322 323 323 324 324 324 322 323 323 324 322 321 324 333 342 343 345 350 349 346 347
317 315 312 314 324 325 323 324 323 322 320 314 308 309 313 317 319 321 322 324 332 332 328 322 322 322 323 325 325 324 324 322 323 322 322 323 322 322 327 326 339 345 339 342 349 353 352
318 316 314 313 322 324 324 324 325 322 320 311 309 312 315 320 320 319 321 328 332 328 322 320 321 324 326 326 326 325 325 322 322 321 322 325 326 326 326 326 327 331 336 335 341 343 349
319 317 315 313 320 321 323 325 325 323 321 310 309 313 319 321 322 323 324 325 327 323 320 319 319 322 327 327 327 326 326 326 326 325 322 322 326 327 328 326 327 327 331 331 338 348 350
321 317 315 314 313 322 324 323 322 322 320 309 313 320 325 324 323 323 324 326 328 321 319 319 319 320 325 328 327 328 329 327 326 325 326 326 325 325 328 326 326 325 327 328 335 336 345
324 318 315 315 313 314 324 323 320 320 316 312 322 324 324 322 322 323 323 325 325 321 320 319 319 319 321 327 326 329 329 328 326 325 327 325 325 326 328 328 326 326 325 324 326 332 336
324 320 315 315 313 313 322 323 320 320 311 311 322 324 326 325 322 321 327 326 322 319 320 318 318 318 322 326 328 329 327 326 326 325 325 324 326 326 327 327 328 325 324 324 322 322 327
324 322 316 314 314 313 318 324 319 320 309 310 323 327 327 326 325 322 325 326 325 321 321 320 320 319 320 325 325 329 327 325 325 325 323 324 323 325 327 328 327 330 326 324 324 322 324
323 323 317 314 314 314 313 322 319 320 309 310 322 326 327 327 323 322 324 323 323 320 320 319 320 321 323 324 326 326 324 324 326 326 324 323 324 325 327 329 328 329 329 326 323 324 328
323 323 317 314 314 315 313 321 319 321 309 311 321 325 328 329 327 323 319 320 321 321 320 319 321 321 323 325 327 326 326 326 327 325 326 323 326 332 332 333 333 333 330 332 329 325 341
324 323 317 314 314 315 314 319 319 321 309 323 326 326 327 329 328 323 321 323 322 320 319 319 320 321 323 325 324 323 324 324 327 327 325 327 330 331 335 331 333 335 331 332 335 335 335
323 322 317 314 314 314 316 315 320 320 313 309 316 322 327 330 330 330 325 322 321 320 321 319 317 320 322 322 319 321 321 323 323 324 323 327 330 329 333 332 336 332 329 330 334 334 333
322 322 317 314 314 314 316 314 321 319 319 308 311 322 326 329 330 331 327 321 320 319 318 317 320 320 319 318 320 325 326 326 326 326 323 325 328 330 332 332 333 333 332 330 330 333 333
320 318 315 314 314 314 315 317 317 319 319 312 309 320 324 326 330 329 327 320 320 322 323 319 319 318 319 319 321 329 328 326 328 327 326 330 331 330 328 332 336 333 330 328 328 336 330
317 314 313 313 314 315 316 317 315 320 319 316 310 325 323 324 324 327 328 323 320 322 325 322 320 319 319 322 324 330 330 326 327 328 330 328 327 329 331 334 332 330 329 327 335 336 330
314 313 313 314 316 316 316 317 315 320 318 318 311 316 322 325 325 325 326 325 321 321 326 323 323 322 322 324 325 330 326 325 324 327 332 331 329 331 325 327 332 328 328 327 330 330 331
313 313 314 315 314 315 317 317 315 320 319 317 310 318 323 323 320 324 325 324 321 322 323 324 326 326 325 325 327 328 327 323 324 329 325 329 329 332 329 328 323 328 329 329 329 327 327

GFSGBSN_850_thetae_108.txt.gz
Theta_e
322 315 309 310 311 311 311 311 311 311 311 312 313 312 311 312 312 313 312 310 310 310 311 311 311 310 310 313 318 323 323 322 318 319 315 314 324 326 329 346 351 351 347 348 347 348 347
322 322 316 310 309 311 310 311 311 311 311 311 312 311 311 312 314 315 317 316 313 312 311 311 310 310 310 315 326 325 325 324 317 313 313 319 328 329 329 341 349 352 351 349 347 347 348
322 322 321 313 309 309 310 310 311 312 311 311 310 311 311 312 314 314 314 315 316 315 315 314 312 310 309 313 320 328 324 325 322 314 314 326 329 326 328 325 341 352 353 350 347 350 349
322 322 322 321 312 309 309 310 310 311 312 312 311 310 311 312 314 314 315 315 316 316 317 315 313 320 316 321 320 320 321 322 323 313 314 325 327 324 324 326 329 352 350 356 350 348 344
322 322 322 321 321 311 309 309 310 310 310 311 311 311 311 312 313 315 315 315 318 319 316 318 315 320 321 322 321 320 320 324 324 318 321 325 321 323 325 325 330 353 352 353 358 346 350
322 323 322 321 322 316 309 309 309 309 310 310 310 311 310 312 312 315 315 318 322 323 321 322 321 320 322 322 322 321 319 325 323 322 319 318 320 320 320 322 329 347 352 350 349 345 347
323 323 322 321 321 318 312 309 309 309 309 309 309 310 310 312 311 314 316 318 321 323 320 321 322 323 323 321 323 322 324 324 323 323 319 322 321 322 322 322 326 348 349 349 346 342 345
323 324 323 322 321 319 316 313 312 310 309 309 309 309 310 312 311 314 316 318 321 321 320 322 323 323 322 322 320 323 323 323 323 321 321 320 320 321 322 324 332 347 348 348 343 342 343
321 324 324 323 322 321 320 320 319 317 314 310 309 308 310 312 313 315 320 322 322 322 320 323 325 325 323 320 319 320 322 321 319 321 319 318 320 321 322 325 346 345 349 346 346 342 342
314 314 320 324 324 323 321 321 320 319 319 316 311 308 309 312 316 322 322 321 321 321 318 322 323 320 320 319 319 320 321 321 320 318 317 316 319 320 321 326 342 347 344 345 345 344 348
317 314 312 318 325 324 323 322 322 321 321 320 316 308 309 312 314 318 322 322 322 322 326 325 322 323 322 320 321 322 322 322 320 321 319 318 319 318 320 321 342 346 342 342 342 343 345
318 316 314 312 318 325 323 323 324 324 324 322 320 310 309 311 314 322 321 322 322 320 329 323 322 321 322 321 321 322 322 323 322 322 320 320 323 318 318 335 342 340 341 342 341 342 346
320 318 316 314 313 321 325 324 323 324 322 322 318 310 309 311 319 321 321 322 321 326 327 323 321 321 320 320 322 322 322 322 321 322 320 320 322 325 341 343 341 340 339 348 350 347 347
322 319 316 315 314 320 320 319 323 324 324 320 315 308 310 314 318 320 320 320 328 329 328 321 317 319 321 323 324 323 321 322 320 319 319 320 322 321 328 341 343 341 335 342 348 348 351
324 321 317 315 314 314 321 324 323 324 324 321 312 310 313 317 320 319 320 322 326 327 319 316 316 319 322 322 325 323 322 319 321 318 320 321 322 322 323 333 339 340 337 333 340 341 348
323 324 319 315 315 313 316 323 324 323 322 320 309 312 316 319 320 320 318 321 324 324 318 315 317 318 324 323 325 324 326 326 325 324 320 318 320 321 325 324 332 334 332 333 332 345 350
323 324 321 316 315 314 312 322 323 321 321 312 315 318 319 320 321 321 318 318 322 324 318 317 317 316 321 325 325 326 326 327 326 325 323 320 319 323 325 325 322 322 326 325 329 336 346
323 322 324 318 315 314 313 319 323 321 320 309 317 320 323 324 320 318 316 319 324 323 318 316 316 315 319 323 324 327 328 327 325 325 322 322 319 324 325 323 322 321 322 321 323 327 334
323 322 324 320 315 315 313 314 323 320 320 309 315 321 324 325 317 315 316 320 322 322 318 317 317 316 322 324 325 327 326 326 324 324 322 320 319 324 325 324 324 324 324 321 317 318 329
322 323 323 322 316 314 314 313 321 320 320 310 317 318 326 326 324 318 317 318 322 321 319 318 318 318 320 322 322 326 325 325 324 325 325 322 317 324 325 324 324 326 326 325 318 319 320
322 323 323 323 316 314 314 313 318 320 320 310 316 319 326 324 323 323 319 319 321 319 318 318 318 320 319 324 324 325 324 323 324 325 325 321 321 322 324 331 331 331 331 332 329 323 323
322 322 323 322 317 314 314 314 316 320 320 309 311 323 328 326 327 323 318 319 319 317 317 316 318 323 322 323 322 321 324 324 324 321 324 320 325 328 332 329 330 333 332 335 336 335 347
321 321 323 322 317 314 314 315 314 320 320 316 324 323 325 326 326 325 318 318 319 316 318 318 318 318 321 324 323 322 322 323 323 324 321 326 325 327 332 328 331 334 331 333 335 334 335
320 321 322 321 317 314 314 315 314 320 319 311 309 316 323 326 327 329 328 325 319 318 318 317 317 318 320 319 319 318 322 321 323 321 320 325 323 323 327 326 334 330 329 329 332 332 336
319 318 320 320 316 314 314 314 316 314 319 319 309 312 323 324 327 328 328 325 317 318 317 316 319 319 318 318 314 320 322 320 319 323 322 321 321 325 326 328 330 331 329 330 329 331 334
318 319 319 316 314 313 314 314 315 315 319 318 315 309 319 324 323 325 326 324 316 317 319 318 319 318 319 313 316 323 323 324 324 325 321 320 321 323 324 329 331 329 329 328 328 332 332
316 314 314 313 313 314 315 315 316 316 317 318 316 322 318 323 323 324 327 325 323 320 318 318 319 319 318 314 322 323 323 324 323 326 326 322 322 324 326 328 327 326 325 327 334 331 333
315 314 313 313 314 315 315 315 316 316 315 319 318 311 317 323 322 319 318 324 321 322 318 320 319 319 316 319 322 322 323 321 321 322 328 329 324 327 321 325 327 326 327 328 328 333 332
313 312 313 314 315 314 314 316 317 317 315 319 318 313 320 319 322 320 320 323 321 321 323 323 323 323 322 319 319 321 322 320 318 324 321 326 325 327 327 323 321 326 327 329 329 334 331

GFSGBSN_850_thetae_111.txt.gz
Theta_e
322 321 314 309 310 311 310 310 311 311 311 311 311 311 311 312 313 315 316 315 312 311 310 310 310 310 310 310 317 323 324 320 318 316 315 315 323 326 327 331 350 350 349 348 348 348 348
322 322 320 313 309 309 310 310 310 311 311 311 310 311 311 311 313 314 314 315 315 314 315 314 312 310 310 311 325 325 325 324 320 316 315 315 324 326 327 327 349 350 348 349 349 348 347
322 322 322 320 312 309 309 310 310 310 311 311 311 310 311 311 313 314 314 315 315 315 316 316 313 313 314 312 325 326 324 324 321 318 313 315 326 326 326 324 335 351 352 349 348 348 349
322 322 322 321 320 311 309 309 309 310 310 310 311 311 310 312 312 314 314 315 316 318 316 316 315 316 317 317 318 320 321 322 323 314 315 313 318 325 324 325 324 352 351 354 348 349 347
322 322 322 321 321 317 310 309 309 309 309 309 309 310 310 311 311 314 314 316 319 322 320 318 320 318 319 322 322 320 320 321 324 318 315 319 318 320 323 323 325 344 351 352 352 346 347
323 323 323 321 321 318 313 310 309 309 309 309 309 309 310 311 311 313 314 318 320 323 322 321 323 321 321 322 322 321 319 320 322 322 317 317 317 318 317 319 325 342 351 348 350 348 347
322 323 323 322 321 320 318 315 315 313 311 309 309 308 309 310 311 313 317 317 319 321 320 321 321 321 322 322 321 321 322 322 320 321 319 319 318 319 321 321 326 347 349 349 346 344 345
314 315 321 324 323 322 320 319 319 318 317 315 310 308 309 310 311 314 317 320 319 319 319 322 322 322 323 323 323 320 323 322 322 321 318 318 319 319 321 323 330 347 348 347 344 342 343
316 314 313 317 324 323 322 321 321 320 320 320 318 310 309 311 312 315 320 320 320 320 319 322 324 324 323 322 322 320 321 322 320 320 319 318 319 320 322 326 346 344 346 345 346 343 342
319 317 315 312 315 324 323 323 323 322 322 322 321 318 308 312 314 319 320 321 320 321 317 321 324 323 321 322 319 319 320 321 319 318 318 317 317 319 319 321 341 344 344 345 344 344 347
321 318 317 315 312 316 323 323 323 323 324 323 322 321 310 310 315 319 320 321 322 322 324 324 321 321 321 319 320 321 321 321 319 320 319 318 319 320 318 319 339 343 342 343 342 341 344
323 321 318 316 315 315 319 321 321 323 324 324 321 320 313 310 313 318 321 322 322 321 329 325 321 321 321 319 320 321 320 322 321 320 319 319 321 319 319 333 336 339 340 340 339 341 347
322 323 320 317 315 314 315 317 320 319 323 324 322 318 311 309 317 322 320 322 321 325 325 319 319 319 319 319 320 320 320 320 320 320 320 320 322 339 338 340 339 337 335 338 342 343 348
321 322 323 319 316 315 314 314 322 323 323 324 323 314 309 311 315 318 319 319 327 327 327 322 316 319 321 323 322 321 321 320 320 320 319 321 321 338 338 338 340 338 332 335 342 345 347
320 321 322 322 317 315 315 312 320 323 322 323 321 309 310 314 317 318 320 322 325 326 324 316 315 319 321 321 324 321 322 322 320 319 321 319 321 321 335 337 338 340 337 331 338 338 343
320 321 321 323 320 315 315 313 316 323 321 321 312 313 314 318 320 319 317 319 321 323 320 315 316 317 321 322 324 323 324 325 325 324 319 321 320 319 322 335 336 333 331 336 333 345 349
321 322 322 322 322 316 315 315 313 322 321 319 309 320 316 318 319 321 317 317 320 322 322 316 314 315 317 322 324 324 326 326 324 324 321 320 316 319 323 323 331 324 330 324 328 334 343
321 321 322 322 323 318 315 315 312 319 321 317 314 316 322 318 320 313 316 316 321 322 321 316 313 315 320 323 325 326 326 326 324 324 323 320 317 322 322 322 321 321 323 322 326 326 335
321 322 321 322 323 320 315 315 313 316 320 316 309 317 322 321 318 315 314 318 320 320 319 316 317 316 321 322 324 325 324 324 324 324 323 321 318 322 324 324 323 323 325 320 315 316 328
320 321 321 322 323 321 315 315 314 316 320 317 312 316 323 321 320 316 317 318 319 321 320 316 316 316 321 322 321 323 324 323 323 324 327 321 317 322 324 325 324 329 331 329 315 317 318
321 321 321 322 323 321 316 314 315 315 320 317 311 315 322 321 322 323 321 322 325 322 317 317 320 321 318 323 323 323 323 320 322 323 323 321 321 320 321 329 329 332 334 335 332 332 319
320 321 321 321 322 320 315 314 315 314 320 315 309 321 325 325 325 324 319 321 323 322 315 316 320 322 319 321 318 319 321 321 323 320 320 319 326 326 329 329 330 330 331 334 334 336 335
321 320 319 321 321 321 316 314 314 314 320 313 321 320 321 324 324 325 324 322 321 316 317 317 318 320 321 321 322 320 321 321 321 322 320 323 324 326 329 326 328 330 329 331 333 336 337
320 319 318 318 320 319 316 314 314 315 317 319 309 311 321 323 324 327 327 327 319 316 316 317 319 318 321 319 319 320 320 321 321 321 318 322 321 323 326 325 331 327 328 329 330 332 336
319 319 318 319 318 316 314 313 314 314 315 318 318 309 320 321 324 325 326 325 317 317 316 318 317 318 318 317 314 318 318 319 319 321 319 318 320 323 325 325 327 331 329 328 328 329 334
317 318 316 314 313 313 313 314 314 315 315 315 318 315 316 320 321 324 325 325 316 315 317 317 318 318 318 311 319 321 320 323 322 322 320 319 316 321 322 327 331 328 327 328 327 330 333
315 315 314 313 313 313 314 315 315 315 315 315 318 314 313 319 324 323 325 323 323 317 315 317 318 317 317 313 321 320 321 323 321 324 325 320 320 322 325 325 324 322 326 326 331 328 333
316 313 312 312 313 314 314 315 314 315 316 315 318 317 317 316 320 321 320 321 321 319 315 317 318 318 313 317 320 320 320 320 320 320 326 325 323 322 319 323 324 324 325 327 326 333 332
316 314 313 313 314 314 314 313 313 315 315 315 317 316 314 314 317 320 320 320 318 319 318 321 321 320 319 317 317 318 320 318 316 322 321 326 322 323 323 322 320 324 326 328 331 332 330

GFSGBSN_850_thetae_114.txt.gz
Theta_e
322 321 317 311 309 309 310 310 310 311 311 311 310 310 311 311 313 313 314 314 314 314 314 313 311 310 310 310 317 323 323 317 314 317 316 320 326 326 326 327 349 349 349 348 348 347 347
321 321 321 317 310 309 309 310 310 310 311 311 311 310 310 311 312 313 314 315 315 315 315 315 313 311 310 311 324 324 324 321 318 317 315 314 321 327 327 326 343 348 348 349 349 348 348
322 322 321 321 319 310 309 309 309 309 309 310 310 310 310 311 311 313 314 315 316 317 316 316 315 314 315 313 323 324 324 324 321 318 316 315 324 327 326 324 331 348 351 348 349 348 349
322 322 321 321 321 315 310 309 309 309 309 309 309 309 310 310 311 313 314 315 316 319 319 318 318 318 316 316 320 321 321 322 323 315 316 313 316 321 324 323 330 351 349 352 348 349 348
323 323 322 321 320 317 313 310 309 309 309 308 308 308 309 310 311 312 314 315 317 320 322 321 321 320 319 321 320 321 320 320 321 316 316 317 319 320 322 320 322 338 349 352 350 345 348
316 320 323 323 322 320 318 316 315 315 313 310 309 308 308 309 311 312 314 317 319 321 322 320 322 320 321 322 321 321 319 319 321 319 316 316 317 317 316 317 325 344 349 348 350 347 345
315 314 314 321 323 322 321 319 319 319 318 317 314 309 308 309 311 313 317 320 319 320 320 321 321 321 321 321 321 319 318 320 320 319 317 318 316 318 321 320 326 344 348 348 346 345 346
318 316 314 313 316 323 323 322 321 321 320 320 320 317 308 309 311 314 320 320 319 318 318 322 321 321 322 322 322 320 320 321 320 320 317 316 319 318 320 321 327 345 346 346 344 343 342
320 319 317 316 313 314 322 323 323 323 323 323 322 321 312 310 312 315 320 319 319 318 318 321 323 323 323 322 321 320 322 321 320 320 318 318 320 319 321 333 341 344 343 344 345 343 341
322 321 319 317 315 314 315 320 323 323 323 324 323 322 319 310 313 318 319 320 320 321 316 320 323 322 322 322 318 318 319 321 317 319 316 318 316 318 319 320 336 343 340 342 344 344 345
320 322 321 319 316 315 315 316 316 317 319 323 324 322 322 310 312 318 317 320 321 320 321 323 321 320 320 319 320 319 319 320 318 318 316 317 319 319 318 317 332 334 341 340 342 340 343
319 320 322 322 319 316 315 314 315 321 320 319 323 323 320 312 311 316 320 320 321 320 327 325 320 320 320 319 319 320 320 321 320 318 318 318 319 319 319 331 333 338 338 337 336 338 343
317 318 319 321 322 318 315 315 312 318 322 321 322 324 320 312 313 319 320 321 320 323 323 321 316 317 319 319 319 319 319 319 318 319 318 318 320 335 337 338 336 336 331 336 340 341 343
319 318 318 319 321 321 316 315 314 315 323 322 323 323 314 309 311 317 318 319 326 325 326 319 314 319 320 320 321 320 319 319 319 318 317 318 319 338 336 337 338 335 330 333 337 340 342
319 320 320 320 320 322 319 315 315 313 322 322 322 314 309 310 314 316 320 321 323 325 324 315 314 315 318 320 322 322 321 320 321 317 318 319 319 321 335 336 336 338 337 330 335 336 341
319 320 320 320 321 321 321 317 315 313 321 322 319 311 312 313 316 318 317 319 320 321 321 314 315 316 319 320 323 322 324 324 324 322 318 321 321 319 321 336 336 334 333 336 332 340 345
319 320 320 321 321 321 322 318 315 314 317 321 310 317 315 317 318 320 315 315 318 321 320 314 314 314 317 322 324 324 325 324 323 323 319 319 316 320 321 327 335 325 332 327 328 333 339
320 319 320 321 321 322 322 319 315 314 315 321 310 314 317 317 318 311 315 315 319 321 319 314 313 314 319 322 324 323 324 324 324 323 322 319 317 321 323 320 320 322 328 324 328 327 333
319 319 319 320 321 322 322 319 315 314 317 319 311 316 320 319 316 314 314 316 319 319 319 315 315 314 320 321 322 324 323 323 323 323 322 318 317 323 324 324 325 323 328 319 314 317 331
320 320 320 321 321 322 322 319 315 314 317 319 310 313 321 319 317 316 317 318 319 321 319 316 314 320 319 321 320 321 323 322 322 323 325 320 316 322 324 325 325 331 331 332 313 316 318
320 321 320 320 320 322 321 318 314 315 316 319 310 312 319 319 319 321 319 322 324 325 317 317 321 317 319 322 322 321 322 320 320 321 321 317 319 321 321 327 330 331 331 333 331 331 319
321 321 319 318 318 320 320 318 314 314 315 319 309 320 322 323 323 323 319 322 322 321 317 315 320 320 318 318 318 317 319 320 321 319 319 318 322 326 329 327 329 330 330 333 334 338 336
320 320 319 318 317 319 319 317 314 314 315 317 318 318 319 321 321 322 322 322 326 323 316 317 320 320 319 318 319 319 319 319 320 321 320 323 324 324 326 326 327 330 329 331 332 335 336
320 318 319 318 318 318 317 315 314 314 315 317 316 309 318 320 321 324 326 326 326 324 315 316 321 318 319 320 319 320 319 319 320 319 317 321 321 324 326 325 330 327 327 327 329 331 334
318 317 317 316 314 313 312 313 313 313 314 315 317 311 318 321 322 323 325 324 319 315 315 317 318 318 318 316 313 316 316 319 319 319 317 316 319 322 325 325 325 331 330 328 327 329 331
317 315 314 314 313 313 313 313 314 314 314 314 315 318 312 318 321 323 324 324 315 314 315 317 317 317 317 314 316 319 319 321 321 322 318 317 315 320 321 326 329 326 328 327 326 331 331
317 316 315 313 312 313 313 313 314 314 314 314 315 317 315 316 317 323 323 321 322 317 314 314 316 316 317 314 318 318 320 321 320 322 323 319 319 321 322 324 323 321 326 327 332 328 332
316 316 315 313 312 313 314 314 314 313 313 313 315 316 310 313 313 317 321 320 320 318 314 315 316 317 312 316 318 319 318 319 319 318 324 321 321 321 318 322 322 322 325 328 325 330 334
316 316 315 314 312 313 314 314 314 311 313 312 314 315 315 315 315 317 318 318 321 320 319 318 317 317 316 314 315 316 319 316 314 321 319 324 320 321 319 319 319 322 324 326 330 332 332

GFSGBSN_850_thetae_117.txt.gz
Theta_e
321 321 320 314 309 309 309 310 310 310 310 311 310 310 310 311 312 313 313 314 314 314 314 314 312 311 311 311 317 322 321 317 314 317 316 325 331 329 333 329 343 348 349 347 345 342 341
322 321 321 321 315 309 309 309 309 309 309 309 310 310 310 310 311 313 313 315 316 316 316 315 315 314 312 313 323 323 319 316 315 317 316 320 329 330 328 328 338 350 350 350 349 348 346
322 322 321 321 320 314 309 309 309 308 308 308 308 309 310 310 310 312 313 315 315 317 319 318 317 318 314 315 324 324 323 322 319 317 316 315 324 327 327 327 330 349 352 350 349 348 347
322 323 322 321 320 317 313 310 309 309 309 308 308 308 309 310 310 311 314 315 316 318 321 320 320 317 315 322 322 323 322 323 322 316 314 314 323 322 325 323 346 350 349 353 349 348 349
314 316 321 322 322 320 319 317 315 315 314 312 310 309 308 309 310 311 314 316 317 320 321 320 321 320 320 319 320 321 320 320 321 314 314 314 316 321 322 326 335 348 348 354 351 346 348
316 314 313 315 322 323 322 320 319 319 318 318 317 313 309 309 310 312 316 320 319 320 321 320 321 320 321 321 321 320 320 319 321 315 315 317 319 324 324 326 334 345 350 352 353 348 344
319 318 316 314 313 317 323 322 322 321 320 320 320 320 312 309 310 314 320 321 320 320 320 321 321 321 321 321 321 318 319 319 318 318 320 318 325 330 325 325 330 336 345 349 348 346 347
321 320 318 317 315 313 314 322 323 322 323 323 323 322 319 309 311 316 320 320 319 318 319 321 321 321 322 321 321 320 319 321 320 324 320 322 326 322 323 324 334 338 342 349 346 344 345
320 321 321 319 317 315 315 315 318 321 322 323 324 323 322 310 312 317 320 319 319 318 320 321 322 322 323 321 321 320 320 321 322 323 322 324 323 321 323 331 335 339 336 346 347 345 342
317 318 319 321 320 317 315 314 313 315 318 318 323 323 323 312 313 318 319 320 319 320 323 324 323 323 323 322 320 319 321 321 319 323 321 323 319 321 322 322 328 331 339 343 346 347 349
316 316 318 318 321 320 317 315 315 312 319 320 318 324 322 317 312 317 318 319 321 320 324 326 322 320 319 319 320 318 318 320 321 320 321 323 320 322 322 322 325 327 342 344 345 345 346
317 318 317 317 318 320 320 317 315 313 315 321 320 321 323 321 311 315 319 319 321 326 324 325 321 321 320 319 319 319 319 320 319 320 320 322 319 321 322 333 326 340 341 341 342 344 350
318 318 320 320 319 318 319 320 316 315 313 322 322 321 323 321 312 315 320 320 326 326 324 321 318 318 321 322 321 321 321 322 323 323 323 322 322 330 336 339 338 340 341 341 344 349 345
320 320 319 320 319 320 319 320 318 315 313 319 322 322 322 313 310 318 318 324 329 325 326 319 317 320 323 323 323 321 321 322 321 322 323 324 323 336 337 336 338 339 334 330 334 341 345
319 320 319 319 319 319 320 320 320 317 315 316 322 320 310 309 310 316 320 327 328 327 325 318 317 321 323 323 324 326 325 323 324 322 324 323 324 324 338 338 337 340 340 334 341 343 347
322 321 320 319 320 320 321 321 320 318 315 316 322 311 313 310 312 316 322 324 326 323 323 316 318 319 322 323 326 326 327 326 326 324 321 324 327 323 328 338 337 339 336 340 343 340 340
322 321 320 319 319 321 321 321 321 318 315 317 318 317 315 314 313 319 322 323 322 321 322 319 317 318 319 324 326 327 327 326 325 325 322 322 323 326 323 333 334 337 338 337 339 342 339
321 320 319 319 319 321 321 321 320 317 315 319 310 319 315 316 320 315 321 320 319 322 319 316 315 316 320 324 327 326 326 326 324 324 325 323 324 327 327 324 323 333 335 336 337 337 341
320 320 320 319 319 321 321 321 318 315 314 319 317 314 316 317 321 321 318 319 319 320 321 316 317 317 323 325 324 325 324 323 323 324 325 322 324 326 327 327 327 330 334 328 325 330 337
320 319 320 320 320 319 321 321 318 315 314 319 313 318 319 317 317 320 321 322 322 320 321 319 317 322 324 325 324 323 325 323 322 323 325 321 323 326 326 329 329 336 335 336 329 329 332
319 319 320 319 318 318 319 320 318 314 314 319 310 314 318 323 321 320 321 324 324 325 320 317 320 321 323 324 324 325 324 323 322 322 323 324 326 325 325 330 331 332 333 337 333 337 326
319 320 320 319 319 318 318 320 317 314 315 318 312 320 320 323 322 325 322 326 326 326 324 318 321 321 323 324 324 323 323 324 326 323 325 325 327 328 330 329 328 332 330 335 338 340 341
320 320 319 318 318 318 318 318 316 314 314 317 313 317 318 320 323 325 326 324 324 326 323 318 320 322 322 322 321 319 319 320 323 325 326 329 331 330 328 328 328 331 330 330 335 337 339
318 318 317 317 317 316 314 313 313 313 313 315 317 311 316 321 324 327 327 326 327 326 325 316 321 323 321 320 319 320 320 321 323 324 321 328 330 331 329 329 330 329 329 330 332 333 337
316 317 317 314 314 314 314 313 313 314 314 314 314 316 313 322 323 323 325 326 324 317 321 318 319 319 320 317 320 321 323 323 323 324 324 322 328 330 330 331 328 331 330 330 330 331 334
314 315 316 315 313 312 312 313 313 314 314 314 314 316 313 318 318 322 325 324 321 317 317 316 315 318 316 320 321 324 327 325 325 327 322 323 324 328 328 329 329 330 328 328 328 333 331
314 315 316 316 313 313 312 313 314 314 313 313 313 315 316 313 313 321 324 323 321 319 318 316 316 316 316 323 324 327 329 325 328 327 328 328 328 329 330 331 328 325 326 328 333 332 334
314 315 316 315 314 313 312 313 314 314 312 312 313 313 314 312 316 314 321 321 320 318 319 316 319 317 320 325 325 328 328 328 325 324 328 329 331 333 328 331 329 324 326 332 329 331 335
312 312 314 315 314 312 312 314 314 313 312 312 312 313 314 312 314 316 317 314 317 319 321 317 319 319 320 322 323 325 327 324 324 328 322 332 327 332 329 329 325 324 326 326 326 334 335

GFSGBSN_850_thetae_120.txt.gz
Theta_e
322 321 321 319 312 309 309 309 309 309 309 309 310 310 310 310 311 312 314 315 316 316 315 314 314 311 311 318 319 323 318 318 314 316 319 331 338 342 344 339 342 348 347 347 346 344 345
322 321 321 321 319 312 309 309 309 309 308 308 308 309 309 310 310 311 313 315 316 317 318 318 318 316 315 321 323 320 316 315 318 318 317 328 337 339 337 332 342 348 350 351 349 349 346
320 322 322 321 319 317 313 310 310 309 309 309 308 308 308 309 310 310 313 315 316 317 319 320 320 316 317 321 324 322 320 320 318 318 318 320 330 338 335 332 343 350 353 352 351 349 348
314 314 319 322 322 321 319 317 315 315 314 313 311 309 308 308 310 310 313 315 317 319 320 321 320 316 321 323 324 323 323 324 319 318 317 318 324 335 332 328 345 350 348 353 352 350 349
317 316 314 313 318 323 322 321 319 319 318 318 318 315 311 308 310 310 313 318 319 320 321 320 321 321 321 318 320 320 322 323 319 317 315 316 325 332 331 333 339 343 344 349 354 350 349
320 319 317 316 314 313 321 323 322 322 321 320 320 321 317 309 310 311 318 320 320 320 321 320 321 323 322 323 322 320 322 321 318 316 317 318 324 331 335 335 335 338 342 345 349 352 351
320 321 320 318 316 315 314 316 322 323 323 323 323 322 321 312 310 315 321 321 323 324 322 324 324 323 322 323 320 320 321 320 319 317 320 321 325 328 332 334 333 335 338 341 351 349 351
317 318 320 321 319 317 315 315 315 317 319 321 323 324 322 314 311 318 320 322 320 319 324 323 322 322 322 322 322 320 321 323 322 322 322 323 324 328 329 329 333 335 336 341 349 348 349
316 316 317 318 320 320 318 316 315 313 315 317 318 323 323 317 312 318 320 320 320 319 325 325 324 324 324 323 321 321 323 323 324 325 322 323 326 326 328 329 331 333 335 336 344 348 347
316 317 317 316 317 318 320 318 315 315 313 317 318 320 323 318 313 318 319 320 320 321 328 325 325 324 324 324 322 321 322 323 323 324 324 325 324 325 327 328 329 331 333 334 346 346 348
319 318 318 319 319 318 317 320 318 315 314 314 321 318 323 322 315 316 319 320 321 320 328 326 324 322 323 323 322 321 321 322 324 324 324 325 324 324 324 325 325 327 332 335 344 345 345
319 319 319 319 319 319 319 318 320 318 315 313 320 321 319 323 316 314 318 320 321 328 327 325 323 323 323 323 323 321 321 322 323 324 324 325 322 324 324 326 325 330 334 341 344 343 344
319 318 319 319 319 319 319 319 319 319 318 315 315 322 320 322 317 312 318 321 329 328 325 323 323 323 325 325 324 324 324 324 325 325 324 324 324 323 324 328 328 333 334 337 339 341 339
321 321 321 320 320 319 319 319 319 319 319 317 314 322 322 322 317 313 318 326 330 326 325 322 323 324 325 326 326 325 325 326 325 325 326 325 326 325 328 329 331 332 331 332 335 334 336
321 321 322 321 320 319 318 319 320 320 319 318 315 322 316 313 311 317 321 329 329 326 324 322 323 325 326 326 327 327 326 326 327 326 326 326 325 327 332 332 333 333 337 331 332 333 336
322 322 322 320 319 318 319 321 321 321 319 317 317 317 318 310 309 315 324 327 329 326 324 321 323 323 324 325 326 325 327 327 328 327 327 327 327 327 330 336 336 338 337 336 333 336 337
322 322 321 320 319 319 321 321 321 321 318 315 320 319 317 311 310 320 325 327 328 325 323 321 320 320 321 322 323 325 327 328 327 327 326 328 327 328 328 333 331 337 339 337 336 337 336
322 320 320 320 320 320 321 321 321 320 318 315 315 319 316 312 319 321 324 326 323 324 323 321 320 321 321 322 324 324 326 328 326 325 325 326 326 328 328 328 328 328 334 334 336 335 338
321 320 319 319 320 320 319 321 321 319 316 314 321 317 316 317 322 323 323 324 324 325 323 321 320 321 322 323 323 323 323 325 325 324 325 325 324 327 327 328 329 330 333 334 333 335 338
320 319 319 319 320 319 319 319 321 318 315 315 318 320 320 318 321 323 322 324 325 323 324 322 321 321 323 324 324 323 323 324 324 324 325 324 322 322 325 327 330 335 335 336 335 334 332
320 319 319 320 320 319 319 319 320 318 315 315 316 317 323 321 321 322 322 321 324 326 324 324 324 322 323 324 324 324 323 324 324 323 325 326 325 324 324 324 329 332 333 335 336 334 335
319 319 320 320 318 318 318 319 319 318 315 316 317 320 323 326 325 322 320 324 324 326 327 324 324 324 324 324 323 323 324 325 324 326 327 327 328 326 326 325 328 330 330 331 335 337 338
317 317 318 317 317 317 316 315 316 316 314 316 314 316 320 322 327 326 323 324 324 324 326 326 323 324 323 323 323 323 323 323 324 325 326 328 329 330 329 326 328 329 328 330 331 333 335
316 316 316 317 315 314 314 314 314 314 313 314 315 315 315 322 323 328 327 326 326 327 328 323 324 324 324 323 323 322 323 323 323 324 324 327 328 328 329 329 334 327 329 329 330 331 332
316 315 314 315 315 315 313 313 313 314 314 314 314 316 314 320 320 323 327 329 328 328 327 325 321 323 323 323 323 324 323 322 322 322 324 325 327 327 330 330 327 327 329 331 332 330 329
315 315 315 315 316 314 313 312 313 313 313 313 314 314 315 317 320 320 324 326 329 327 323 321 318 322 322 322 323 324 324 324 325 327 326 325 329 329 327 331 330 332 331 329 329 333 330
314 315 314 315 315 315 314 313 313 314 313 313 314 313 315 315 317 318 323 324 325 322 323 320 319 320 321 323 324 324 324 327 327 327 330 329 329 328 328 331 328 328 329 329 334 336 336
312 313 313 313 315 315 313 312 313 314 313 313 313 313 313 316 317 317 318 322 324 322 322 321 320 320 321 324 324 325 323 328 328 327 328 329 331 330 329 331 331 327 329 333 333 335 338
310 309 311 312 313 315 312 312 314 313 312 312 312 312 312 313 316 317 317 317 318 319 322 320 323 321 321 323 325 325 326 329 327 329 327 332 329 332 329 331 331 329 329 330 330 336 339